<?xml version="1.0" encoding="UTF-8" standalone="no" ?>
<gpx xmlns="http://www.topografix.com/GPX/1/1" xmlns:xsi="http://www.w3.org/2001/XMLSchema-instance" xsi:schemaLocation="http://www.topografix.com/GPX/1/1 http://www.topografix.com/GPX/1/1/gpx.xsd" version="1.1" creator="VisuGPX - https://www.visugpx.com">
  <metadata>
    <name>Solesmes suite dernières modifs du 20 07 2020</name>
    <desc><![CDATA[Solesmes suite dernières modifs du 20 07 2020]]></desc>
  </metadata>
  <trk>
    <name><![CDATA[11712744-Solesmes suite modifs du 20 07 2020]]></name>
    <trkseg>
      <trkpt lat="47.47186" lon="-0.5639">
        <ele>21</ele>
        <time>2020-07-20T15:12:25Z</time>
      </trkpt>
      <trkpt lat="47.47286" lon="-0.56238">
        <ele>22</ele>
        <time>2020-07-20T15:12:51Z</time>
      </trkpt>
      <trkpt lat="47.47303" lon="-0.56216">
        <ele>23</ele>
        <time>2020-07-20T15:12:55Z</time>
      </trkpt>
      <trkpt lat="47.47318" lon="-0.56208">
        <ele>23</ele>
        <time>2020-07-20T15:12:57Z</time>
      </trkpt>
      <trkpt lat="47.47339" lon="-0.56181">
        <ele>24</ele>
        <time>2020-07-20T15:13:02Z</time>
      </trkpt>
      <trkpt lat="47.47511" lon="-0.55921">
        <ele>23</ele>
        <time>2020-07-20T15:13:46Z</time>
      </trkpt>
      <trkpt lat="47.47661" lon="-0.55795">
        <ele>25</ele>
        <time>2020-07-20T15:14:17Z</time>
      </trkpt>
      <trkpt lat="47.47872" lon="-0.55612">
        <ele>27</ele>
        <time>2020-07-20T15:15:00Z</time>
      </trkpt>
      <trkpt lat="47.47945" lon="-0.55552">
        <ele>25</ele>
        <time>2020-07-20T15:15:15Z</time>
      </trkpt>
      <trkpt lat="47.47952" lon="-0.55541">
        <ele>25</ele>
        <time>2020-07-20T15:15:17Z</time>
      </trkpt>
      <trkpt lat="47.48034" lon="-0.55467">
        <ele>22</ele>
        <time>2020-07-20T15:15:34Z</time>
      </trkpt>
      <trkpt lat="47.48034" lon="-0.55463">
        <ele>22</ele>
        <time>2020-07-20T15:15:35Z</time>
      </trkpt>
      <trkpt lat="47.48042" lon="-0.55453">
        <ele>22</ele>
        <time>2020-07-20T15:15:36Z</time>
      </trkpt>
      <trkpt lat="47.48169" lon="-0.55364">
        <ele>19</ele>
        <time>2020-07-20T15:16:01Z</time>
      </trkpt>
      <trkpt lat="47.48178" lon="-0.55364">
        <ele>20</ele>
        <time>2020-07-20T15:16:03Z</time>
      </trkpt>
      <trkpt lat="47.48187" lon="-0.55347">
        <ele>20</ele>
        <time>2020-07-20T15:16:06Z</time>
      </trkpt>
      <trkpt lat="47.4821" lon="-0.55329">
        <ele>21</ele>
        <time>2020-07-20T15:16:10Z</time>
      </trkpt>
      <trkpt lat="47.48379" lon="-0.55225">
        <ele>18</ele>
        <time>2020-07-20T15:16:43Z</time>
      </trkpt>
      <trkpt lat="47.48442" lon="-0.55176">
        <ele>19</ele>
        <time>2020-07-20T15:16:55Z</time>
      </trkpt>
      <trkpt lat="47.48553" lon="-0.55096">
        <ele>21</ele>
        <time>2020-07-20T15:17:17Z</time>
      </trkpt>
      <trkpt lat="47.48591" lon="-0.55073">
        <ele>23</ele>
        <time>2020-07-20T15:17:25Z</time>
      </trkpt>
      <trkpt lat="47.48615" lon="-0.55051">
        <ele>23</ele>
        <time>2020-07-20T15:17:30Z</time>
      </trkpt>
      <trkpt lat="47.48643" lon="-0.55031">
        <ele>23</ele>
        <time>2020-07-20T15:17:35Z</time>
      </trkpt>
      <trkpt lat="47.48683" lon="-0.5499">
        <ele>23</ele>
        <time>2020-07-20T15:17:44Z</time>
      </trkpt>
      <trkpt lat="47.48719" lon="-0.54963">
        <ele>23</ele>
        <time>2020-07-20T15:17:51Z</time>
      </trkpt>
      <trkpt lat="47.48806" lon="-0.54873">
        <ele>20</ele>
        <time>2020-07-20T15:18:10Z</time>
      </trkpt>
      <trkpt lat="47.48992" lon="-0.54739">
        <ele>21</ele>
        <time>2020-07-20T15:18:47Z</time>
      </trkpt>
      <trkpt lat="47.49038" lon="-0.54711">
        <ele>19</ele>
        <time>2020-07-20T15:18:56Z</time>
      </trkpt>
      <trkpt lat="47.49062" lon="-0.54704">
        <ele>19</ele>
        <time>2020-07-20T15:19:00Z</time>
      </trkpt>
      <trkpt lat="47.4908" lon="-0.54702">
        <ele>19</ele>
        <time>2020-07-20T15:19:03Z</time>
      </trkpt>
      <trkpt lat="47.49193" lon="-0.54704">
        <ele>19</ele>
        <time>2020-07-20T15:19:23Z</time>
      </trkpt>
      <trkpt lat="47.49224" lon="-0.54709">
        <ele>18</ele>
        <time>2020-07-20T15:19:29Z</time>
      </trkpt>
      <trkpt lat="47.49262" lon="-0.54729">
        <ele>19</ele>
        <time>2020-07-20T15:19:36Z</time>
      </trkpt>
      <trkpt lat="47.49275" lon="-0.54733">
        <ele>20</ele>
        <time>2020-07-20T15:19:38Z</time>
      </trkpt>
      <trkpt lat="47.49301" lon="-0.5471">
        <ele>20</ele>
        <time>2020-07-20T15:19:44Z</time>
      </trkpt>
      <trkpt lat="47.49314" lon="-0.54692">
        <ele>20</ele>
        <time>2020-07-20T15:19:47Z</time>
      </trkpt>
      <trkpt lat="47.49329" lon="-0.54678">
        <ele>20</ele>
        <time>2020-07-20T15:19:50Z</time>
      </trkpt>
      <trkpt lat="47.49346" lon="-0.5468">
        <ele>20</ele>
        <time>2020-07-20T15:19:53Z</time>
      </trkpt>
      <trkpt lat="47.49373" lon="-0.5469">
        <ele>20</ele>
        <time>2020-07-20T15:19:58Z</time>
      </trkpt>
      <trkpt lat="47.4941" lon="-0.54716">
        <ele>20</ele>
        <time>2020-07-20T15:20:05Z</time>
      </trkpt>
      <trkpt lat="47.49444" lon="-0.54745">
        <ele>20</ele>
        <time>2020-07-20T15:20:12Z</time>
      </trkpt>
      <trkpt lat="47.49479" lon="-0.54754">
        <ele>21</ele>
        <time>2020-07-20T15:20:19Z</time>
      </trkpt>
      <trkpt lat="47.4951" lon="-0.54774">
        <ele>23</ele>
        <time>2020-07-20T15:20:25Z</time>
      </trkpt>
      <trkpt lat="47.49575" lon="-0.54838">
        <ele>26</ele>
        <time>2020-07-20T15:20:39Z</time>
      </trkpt>
      <trkpt lat="47.49583" lon="-0.54843">
        <ele>27</ele>
        <time>2020-07-20T15:20:40Z</time>
      </trkpt>
      <trkpt lat="47.49597" lon="-0.54838">
        <ele>24</ele>
        <time>2020-07-20T15:20:43Z</time>
      </trkpt>
      <trkpt lat="47.49616" lon="-0.54836">
        <ele>22</ele>
        <time>2020-07-20T15:20:46Z</time>
      </trkpt>
      <trkpt lat="47.49642" lon="-0.54849">
        <ele>21</ele>
        <time>2020-07-20T15:20:51Z</time>
      </trkpt>
      <trkpt lat="47.49679" lon="-0.54879">
        <ele>21</ele>
        <time>2020-07-20T15:20:59Z</time>
      </trkpt>
      <trkpt lat="47.49735" lon="-0.54935">
        <ele>18</ele>
        <time>2020-07-20T15:21:11Z</time>
      </trkpt>
      <trkpt lat="47.49771" lon="-0.54989">
        <ele>17</ele>
        <time>2020-07-20T15:21:20Z</time>
      </trkpt>
      <trkpt lat="47.49899" lon="-0.55234">
        <ele>15</ele>
        <time>2020-07-20T15:21:57Z</time>
      </trkpt>
      <trkpt lat="47.49979" lon="-0.55418">
        <ele>16</ele>
        <time>2020-07-20T15:22:23Z</time>
      </trkpt>
      <trkpt lat="47.50027" lon="-0.55572">
        <ele>16</ele>
        <time>2020-07-20T15:22:44Z</time>
      </trkpt>
      <trkpt lat="47.50062" lon="-0.55705">
        <ele>16</ele>
        <time>2020-07-20T15:23:01Z</time>
      </trkpt>
      <trkpt lat="47.50071" lon="-0.55809">
        <ele>15</ele>
        <time>2020-07-20T15:23:13Z</time>
      </trkpt>
      <trkpt lat="47.5008" lon="-0.55845">
        <ele>15</ele>
        <time>2020-07-20T15:23:18Z</time>
      </trkpt>
      <trkpt lat="47.50104" lon="-0.55916">
        <ele>17</ele>
        <time>2020-07-20T15:23:27Z</time>
      </trkpt>
      <trkpt lat="47.5012" lon="-0.55943">
        <ele>19</ele>
        <time>2020-07-20T15:23:32Z</time>
      </trkpt>
      <trkpt lat="47.50142" lon="-0.55971">
        <ele>19</ele>
        <time>2020-07-20T15:23:37Z</time>
      </trkpt>
      <trkpt lat="47.50279" lon="-0.56104">
        <ele>19</ele>
        <time>2020-07-20T15:24:06Z</time>
      </trkpt>
      <trkpt lat="47.50307" lon="-0.56139">
        <ele>18</ele>
        <time>2020-07-20T15:24:13Z</time>
      </trkpt>
      <trkpt lat="47.50372" lon="-0.56258">
        <ele>21</ele>
        <time>2020-07-20T15:24:31Z</time>
      </trkpt>
      <trkpt lat="47.50458" lon="-0.56367">
        <ele>17</ele>
        <time>2020-07-20T15:24:51Z</time>
      </trkpt>
      <trkpt lat="47.50595" lon="-0.56511">
        <ele>16</ele>
        <time>2020-07-20T15:25:21Z</time>
      </trkpt>
      <trkpt lat="47.50616" lon="-0.56549">
        <ele>16</ele>
        <time>2020-07-20T15:25:27Z</time>
      </trkpt>
      <trkpt lat="47.50628" lon="-0.56615">
        <ele>18</ele>
        <time>2020-07-20T15:25:35Z</time>
      </trkpt>
      <trkpt lat="47.50619" lon="-0.56621">
        <ele>18</ele>
        <time>2020-07-20T15:25:37Z</time>
      </trkpt>
      <trkpt lat="47.50624" lon="-0.56664">
        <ele>18</ele>
        <time>2020-07-20T15:25:42Z</time>
      </trkpt>
      <trkpt lat="47.50631" lon="-0.56705">
        <ele>18</ele>
        <time>2020-07-20T15:25:47Z</time>
      </trkpt>
      <trkpt lat="47.50643" lon="-0.56742">
        <ele>18</ele>
        <time>2020-07-20T15:25:52Z</time>
      </trkpt>
      <trkpt lat="47.50644" lon="-0.56759">
        <ele>18</ele>
        <time>2020-07-20T15:25:54Z</time>
      </trkpt>
      <trkpt lat="47.50626" lon="-0.5679">
        <ele>18</ele>
        <time>2020-07-20T15:25:59Z</time>
      </trkpt>
      <trkpt lat="47.50547" lon="-0.56879">
        <ele>19</ele>
        <time>2020-07-20T15:26:17Z</time>
      </trkpt>
      <trkpt lat="47.50541" lon="-0.56891">
        <ele>20</ele>
        <time>2020-07-20T15:26:19Z</time>
      </trkpt>
      <trkpt lat="47.50533" lon="-0.56924">
        <ele>21</ele>
        <time>2020-07-20T15:26:23Z</time>
      </trkpt>
      <trkpt lat="47.50539" lon="-0.56942">
        <ele>21</ele>
        <time>2020-07-20T15:26:25Z</time>
      </trkpt>
      <trkpt lat="47.50538" lon="-0.56954">
        <ele>22</ele>
        <time>2020-07-20T15:26:27Z</time>
      </trkpt>
      <trkpt lat="47.50534" lon="-0.56965">
        <ele>22</ele>
        <time>2020-07-20T15:26:28Z</time>
      </trkpt>
      <trkpt lat="47.50526" lon="-0.56973">
        <ele>23</ele>
        <time>2020-07-20T15:26:30Z</time>
      </trkpt>
      <trkpt lat="47.50521" lon="-0.56974">
        <ele>23</ele>
        <time>2020-07-20T15:26:31Z</time>
      </trkpt>
      <trkpt lat="47.5051" lon="-0.5697">
        <ele>23</ele>
        <time>2020-07-20T15:26:33Z</time>
      </trkpt>
      <trkpt lat="47.50505" lon="-0.56964">
        <ele>23</ele>
        <time>2020-07-20T15:26:34Z</time>
      </trkpt>
      <trkpt lat="47.50483" lon="-0.56993">
        <ele>25</ele>
        <time>2020-07-20T15:26:39Z</time>
      </trkpt>
      <trkpt lat="47.50523" lon="-0.57011">
        <ele>24</ele>
        <time>2020-07-20T15:26:47Z</time>
      </trkpt>
      <trkpt lat="47.50591" lon="-0.57017">
        <ele>23</ele>
        <time>2020-07-20T15:26:59Z</time>
      </trkpt>
      <trkpt lat="47.50629" lon="-0.57017">
        <ele>22</ele>
        <time>2020-07-20T15:27:06Z</time>
      </trkpt>
      <trkpt lat="47.5114" lon="-0.56962">
        <ele>18</ele>
        <time>2020-07-20T15:28:37Z</time>
      </trkpt>
      <trkpt lat="47.51241" lon="-0.56968">
        <ele>17</ele>
        <time>2020-07-20T15:28:55Z</time>
      </trkpt>
      <trkpt lat="47.51255" lon="-0.56971">
        <ele>17</ele>
        <time>2020-07-20T15:28:57Z</time>
      </trkpt>
      <trkpt lat="47.51266" lon="-0.56979">
        <ele>17</ele>
        <time>2020-07-20T15:28:59Z</time>
      </trkpt>
      <trkpt lat="47.51272" lon="-0.56994">
        <ele>17</ele>
        <time>2020-07-20T15:29:01Z</time>
      </trkpt>
      <trkpt lat="47.51291" lon="-0.56979">
        <ele>18</ele>
        <time>2020-07-20T15:29:05Z</time>
      </trkpt>
      <trkpt lat="47.51312" lon="-0.56971">
        <ele>18</ele>
        <time>2020-07-20T15:29:09Z</time>
      </trkpt>
      <trkpt lat="47.51338" lon="-0.56966">
        <ele>18</ele>
        <time>2020-07-20T15:29:14Z</time>
      </trkpt>
      <trkpt lat="47.51393" lon="-0.56961">
        <ele>18</ele>
        <time>2020-07-20T15:29:24Z</time>
      </trkpt>
      <trkpt lat="47.51476" lon="-0.56966">
        <ele>17</ele>
        <time>2020-07-20T15:29:38Z</time>
      </trkpt>
      <trkpt lat="47.51618" lon="-0.56991">
        <ele>19</ele>
        <time>2020-07-20T15:30:04Z</time>
      </trkpt>
      <trkpt lat="47.51673" lon="-0.57003">
        <ele>19</ele>
        <time>2020-07-20T15:30:14Z</time>
      </trkpt>
      <trkpt lat="47.51773" lon="-0.57018">
        <ele>18</ele>
        <time>2020-07-20T15:30:32Z</time>
      </trkpt>
      <trkpt lat="47.51848" lon="-0.57035">
        <ele>18</ele>
        <time>2020-07-20T15:30:45Z</time>
      </trkpt>
      <trkpt lat="47.51903" lon="-0.57054">
        <ele>19</ele>
        <time>2020-07-20T15:30:55Z</time>
      </trkpt>
      <trkpt lat="47.51971" lon="-0.57085">
        <ele>20</ele>
        <time>2020-07-20T15:31:08Z</time>
      </trkpt>
      <trkpt lat="47.52017" lon="-0.57112">
        <ele>19</ele>
        <time>2020-07-20T15:31:17Z</time>
      </trkpt>
      <trkpt lat="47.52044" lon="-0.57141">
        <ele>19</ele>
        <time>2020-07-20T15:31:23Z</time>
      </trkpt>
      <trkpt lat="47.5207" lon="-0.57189">
        <ele>18</ele>
        <time>2020-07-20T15:31:30Z</time>
      </trkpt>
      <trkpt lat="47.52083" lon="-0.57207">
        <ele>19</ele>
        <time>2020-07-20T15:31:33Z</time>
      </trkpt>
      <trkpt lat="47.52096" lon="-0.57214">
        <ele>18</ele>
        <time>2020-07-20T15:31:36Z</time>
      </trkpt>
      <trkpt lat="47.52111" lon="-0.57213">
        <ele>18</ele>
        <time>2020-07-20T15:31:38Z</time>
      </trkpt>
      <trkpt lat="47.52132" lon="-0.57202">
        <ele>18</ele>
        <time>2020-07-20T15:31:42Z</time>
      </trkpt>
      <trkpt lat="47.52126" lon="-0.57184">
        <ele>19</ele>
        <time>2020-07-20T15:31:45Z</time>
      </trkpt>
      <trkpt lat="47.52129" lon="-0.57169">
        <ele>19</ele>
        <time>2020-07-20T15:31:47Z</time>
      </trkpt>
      <trkpt lat="47.52136" lon="-0.57159">
        <ele>19</ele>
        <time>2020-07-20T15:31:48Z</time>
      </trkpt>
      <trkpt lat="47.52144" lon="-0.57156">
        <ele>19</ele>
        <time>2020-07-20T15:31:50Z</time>
      </trkpt>
      <trkpt lat="47.52149" lon="-0.57157">
        <ele>19</ele>
        <time>2020-07-20T15:31:51Z</time>
      </trkpt>
      <trkpt lat="47.52153" lon="-0.57159">
        <ele>19</ele>
        <time>2020-07-20T15:31:51Z</time>
      </trkpt>
      <trkpt lat="47.52161" lon="-0.57171">
        <ele>19</ele>
        <time>2020-07-20T15:31:53Z</time>
      </trkpt>
      <trkpt lat="47.52208" lon="-0.57144">
        <ele>18</ele>
        <time>2020-07-20T15:32:02Z</time>
      </trkpt>
      <trkpt lat="47.52256" lon="-0.57121">
        <ele>17</ele>
        <time>2020-07-20T15:32:11Z</time>
      </trkpt>
      <trkpt lat="47.52299" lon="-0.57088">
        <ele>16</ele>
        <time>2020-07-20T15:32:20Z</time>
      </trkpt>
      <trkpt lat="47.52321" lon="-0.57064">
        <ele>16</ele>
        <time>2020-07-20T15:32:25Z</time>
      </trkpt>
      <trkpt lat="47.52347" lon="-0.57026">
        <ele>15</ele>
        <time>2020-07-20T15:32:31Z</time>
      </trkpt>
      <trkpt lat="47.52518" lon="-0.56745">
        <ele>15</ele>
        <time>2020-07-20T15:33:17Z</time>
      </trkpt>
      <trkpt lat="47.5254" lon="-0.56722">
        <ele>15</ele>
        <time>2020-07-20T15:33:22Z</time>
      </trkpt>
      <trkpt lat="47.52551" lon="-0.56714">
        <ele>15</ele>
        <time>2020-07-20T15:33:24Z</time>
      </trkpt>
      <trkpt lat="47.5257" lon="-0.56706">
        <ele>15</ele>
        <time>2020-07-20T15:33:27Z</time>
      </trkpt>
      <trkpt lat="47.52589" lon="-0.56705">
        <ele>15</ele>
        <time>2020-07-20T15:33:31Z</time>
      </trkpt>
      <trkpt lat="47.52623" lon="-0.56714">
        <ele>15</ele>
        <time>2020-07-20T15:33:37Z</time>
      </trkpt>
      <trkpt lat="47.52824" lon="-0.56786">
        <ele>16</ele>
        <time>2020-07-20T15:34:14Z</time>
      </trkpt>
      <trkpt lat="47.52841" lon="-0.56786">
        <ele>17</ele>
        <time>2020-07-20T15:34:17Z</time>
      </trkpt>
      <trkpt lat="47.52887" lon="-0.56799">
        <ele>18</ele>
        <time>2020-07-20T15:34:25Z</time>
      </trkpt>
      <trkpt lat="47.52903" lon="-0.56801">
        <ele>19</ele>
        <time>2020-07-20T15:34:28Z</time>
      </trkpt>
      <trkpt lat="47.52907" lon="-0.56796">
        <ele>19</ele>
        <time>2020-07-20T15:34:29Z</time>
      </trkpt>
      <trkpt lat="47.52916" lon="-0.56796">
        <ele>19</ele>
        <time>2020-07-20T15:34:30Z</time>
      </trkpt>
      <trkpt lat="47.52921" lon="-0.56802">
        <ele>19</ele>
        <time>2020-07-20T15:34:31Z</time>
      </trkpt>
      <trkpt lat="47.52921" lon="-0.56815">
        <ele>19</ele>
        <time>2020-07-20T15:34:33Z</time>
      </trkpt>
      <trkpt lat="47.5303" lon="-0.56866">
        <ele>22</ele>
        <time>2020-07-20T15:34:53Z</time>
      </trkpt>
      <trkpt lat="47.53081" lon="-0.56885">
        <ele>27</ele>
        <time>2020-07-20T15:35:03Z</time>
      </trkpt>
      <trkpt lat="47.53157" lon="-0.56903">
        <ele>27</ele>
        <time>2020-07-20T15:35:16Z</time>
      </trkpt>
      <trkpt lat="47.53256" lon="-0.56912">
        <ele>28</ele>
        <time>2020-07-20T15:35:34Z</time>
      </trkpt>
      <trkpt lat="47.53313" lon="-0.56926">
        <ele>29</ele>
        <time>2020-07-20T15:35:44Z</time>
      </trkpt>
      <trkpt lat="47.53348" lon="-0.56929">
        <ele>29</ele>
        <time>2020-07-20T15:35:51Z</time>
      </trkpt>
      <trkpt lat="47.53381" lon="-0.56924">
        <ele>29</ele>
        <time>2020-07-20T15:35:57Z</time>
      </trkpt>
      <trkpt lat="47.53448" lon="-0.56903">
        <ele>29</ele>
        <time>2020-07-20T15:36:09Z</time>
      </trkpt>
      <trkpt lat="47.53465" lon="-0.56901">
        <ele>29</ele>
        <time>2020-07-20T15:36:12Z</time>
      </trkpt>
      <trkpt lat="47.53482" lon="-0.56904">
        <ele>29</ele>
        <time>2020-07-20T15:36:15Z</time>
      </trkpt>
      <trkpt lat="47.53485" lon="-0.56898">
        <ele>29</ele>
        <time>2020-07-20T15:36:16Z</time>
      </trkpt>
      <trkpt lat="47.53491" lon="-0.569">
        <ele>29</ele>
        <time>2020-07-20T15:36:17Z</time>
      </trkpt>
      <trkpt lat="47.53503" lon="-0.56891">
        <ele>30</ele>
        <time>2020-07-20T15:36:19Z</time>
      </trkpt>
      <trkpt lat="47.53511" lon="-0.56888">
        <ele>30</ele>
        <time>2020-07-20T15:36:21Z</time>
      </trkpt>
      <trkpt lat="47.5358" lon="-0.56879">
        <ele>30</ele>
        <time>2020-07-20T15:36:33Z</time>
      </trkpt>
      <trkpt lat="47.53642" lon="-0.56883">
        <ele>30</ele>
        <time>2020-07-20T15:36:44Z</time>
      </trkpt>
      <trkpt lat="47.5373" lon="-0.56878">
        <ele>30</ele>
        <time>2020-07-20T15:37:00Z</time>
      </trkpt>
      <trkpt lat="47.53843" lon="-0.56862">
        <ele>30</ele>
        <time>2020-07-20T15:37:20Z</time>
      </trkpt>
      <trkpt lat="47.53924" lon="-0.56844">
        <ele>27</ele>
        <time>2020-07-20T15:37:34Z</time>
      </trkpt>
      <trkpt lat="47.5402" lon="-0.56804">
        <ele>25</ele>
        <time>2020-07-20T15:37:52Z</time>
      </trkpt>
      <trkpt lat="47.54102" lon="-0.56774">
        <ele>22</ele>
        <time>2020-07-20T15:38:07Z</time>
      </trkpt>
      <trkpt lat="47.5416" lon="-0.56763">
        <ele>20</ele>
        <time>2020-07-20T15:38:18Z</time>
      </trkpt>
      <trkpt lat="47.54204" lon="-0.5676">
        <ele>20</ele>
        <time>2020-07-20T15:38:25Z</time>
      </trkpt>
      <trkpt lat="47.54311" lon="-0.5677">
        <ele>19</ele>
        <time>2020-07-20T15:38:45Z</time>
      </trkpt>
      <trkpt lat="47.54341" lon="-0.5677">
        <ele>18</ele>
        <time>2020-07-20T15:38:50Z</time>
      </trkpt>
      <trkpt lat="47.54398" lon="-0.56753">
        <ele>17</ele>
        <time>2020-07-20T15:39:00Z</time>
      </trkpt>
      <trkpt lat="47.54477" lon="-0.56712">
        <ele>18</ele>
        <time>2020-07-20T15:39:15Z</time>
      </trkpt>
      <trkpt lat="47.54567" lon="-0.56656">
        <ele>19</ele>
        <time>2020-07-20T15:39:32Z</time>
      </trkpt>
      <trkpt lat="47.54685" lon="-0.56596">
        <ele>20</ele>
        <time>2020-07-20T15:39:55Z</time>
      </trkpt>
      <trkpt lat="47.5474" lon="-0.56561">
        <ele>19</ele>
        <time>2020-07-20T15:40:05Z</time>
      </trkpt>
      <trkpt lat="47.54919" lon="-0.56432">
        <ele>19</ele>
        <time>2020-07-20T15:40:41Z</time>
      </trkpt>
      <trkpt lat="47.55089" lon="-0.56293">
        <ele>19</ele>
        <time>2020-07-20T15:41:15Z</time>
      </trkpt>
      <trkpt lat="47.55141" lon="-0.5626">
        <ele>18</ele>
        <time>2020-07-20T15:41:25Z</time>
      </trkpt>
      <trkpt lat="47.55144" lon="-0.56251">
        <ele>18</ele>
        <time>2020-07-20T15:41:27Z</time>
      </trkpt>
      <trkpt lat="47.55158" lon="-0.5623">
        <ele>18</ele>
        <time>2020-07-20T15:41:30Z</time>
      </trkpt>
      <trkpt lat="47.55236" lon="-0.56137">
        <ele>18</ele>
        <time>2020-07-20T15:41:48Z</time>
      </trkpt>
      <trkpt lat="47.55265" lon="-0.56095">
        <ele>17</ele>
        <time>2020-07-20T15:41:55Z</time>
      </trkpt>
      <trkpt lat="47.55276" lon="-0.56069">
        <ele>17</ele>
        <time>2020-07-20T15:41:59Z</time>
      </trkpt>
      <trkpt lat="47.55287" lon="-0.56009">
        <ele>17</ele>
        <time>2020-07-20T15:42:06Z</time>
      </trkpt>
      <trkpt lat="47.55302" lon="-0.55973">
        <ele>17</ele>
        <time>2020-07-20T15:42:11Z</time>
      </trkpt>
      <trkpt lat="47.55353" lon="-0.55909">
        <ele>16</ele>
        <time>2020-07-20T15:42:23Z</time>
      </trkpt>
      <trkpt lat="47.55431" lon="-0.5584">
        <ele>16</ele>
        <time>2020-07-20T15:42:39Z</time>
      </trkpt>
      <trkpt lat="47.55571" lon="-0.55672">
        <ele>15</ele>
        <time>2020-07-20T15:43:11Z</time>
      </trkpt>
      <trkpt lat="47.55597" lon="-0.55633">
        <ele>15</ele>
        <time>2020-07-20T15:43:18Z</time>
      </trkpt>
      <trkpt lat="47.5563" lon="-0.55593">
        <ele>16</ele>
        <time>2020-07-20T15:43:26Z</time>
      </trkpt>
      <trkpt lat="47.55644" lon="-0.55565">
        <ele>16</ele>
        <time>2020-07-20T15:43:30Z</time>
      </trkpt>
      <trkpt lat="47.5565" lon="-0.55533">
        <ele>16</ele>
        <time>2020-07-20T15:43:34Z</time>
      </trkpt>
      <trkpt lat="47.55655" lon="-0.55464">
        <ele>17</ele>
        <time>2020-07-20T15:43:42Z</time>
      </trkpt>
      <trkpt lat="47.55662" lon="-0.55434">
        <ele>17</ele>
        <time>2020-07-20T15:43:46Z</time>
      </trkpt>
      <trkpt lat="47.55698" lon="-0.5536">
        <ele>19</ele>
        <time>2020-07-20T15:43:57Z</time>
      </trkpt>
      <trkpt lat="47.55745" lon="-0.55243">
        <ele>18</ele>
        <time>2020-07-20T15:44:13Z</time>
      </trkpt>
      <trkpt lat="47.55816" lon="-0.55093">
        <ele>17</ele>
        <time>2020-07-20T15:44:35Z</time>
      </trkpt>
      <trkpt lat="47.55988" lon="-0.54803">
        <ele>16</ele>
        <time>2020-07-20T15:45:22Z</time>
      </trkpt>
      <trkpt lat="47.56023" lon="-0.54758">
        <ele>16</ele>
        <time>2020-07-20T15:45:30Z</time>
      </trkpt>
      <trkpt lat="47.56053" lon="-0.54725">
        <ele>16</ele>
        <time>2020-07-20T15:45:37Z</time>
      </trkpt>
      <trkpt lat="47.56186" lon="-0.54602">
        <ele>18</ele>
        <time>2020-07-20T15:46:04Z</time>
      </trkpt>
      <trkpt lat="47.56201" lon="-0.54592">
        <ele>18</ele>
        <time>2020-07-20T15:46:07Z</time>
      </trkpt>
      <trkpt lat="47.56221" lon="-0.54583">
        <ele>18</ele>
        <time>2020-07-20T15:46:11Z</time>
      </trkpt>
      <trkpt lat="47.56293" lon="-0.54577">
        <ele>20</ele>
        <time>2020-07-20T15:46:24Z</time>
      </trkpt>
      <trkpt lat="47.56321" lon="-0.54572">
        <ele>20</ele>
        <time>2020-07-20T15:46:29Z</time>
      </trkpt>
      <trkpt lat="47.56351" lon="-0.54573">
        <ele>21</ele>
        <time>2020-07-20T15:46:34Z</time>
      </trkpt>
      <trkpt lat="47.56419" lon="-0.54565">
        <ele>21</ele>
        <time>2020-07-20T15:46:46Z</time>
      </trkpt>
      <trkpt lat="47.56449" lon="-0.54564">
        <ele>21</ele>
        <time>2020-07-20T15:46:52Z</time>
      </trkpt>
      <trkpt lat="47.56537" lon="-0.54548">
        <ele>20</ele>
        <time>2020-07-20T15:47:07Z</time>
      </trkpt>
      <trkpt lat="47.56559" lon="-0.54547">
        <ele>20</ele>
        <time>2020-07-20T15:47:11Z</time>
      </trkpt>
      <trkpt lat="47.56599" lon="-0.54551">
        <ele>20</ele>
        <time>2020-07-20T15:47:19Z</time>
      </trkpt>
      <trkpt lat="47.56661" lon="-0.54571">
        <ele>20</ele>
        <time>2020-07-20T15:47:30Z</time>
      </trkpt>
      <trkpt lat="47.56678" lon="-0.54565">
        <ele>20</ele>
        <time>2020-07-20T15:47:33Z</time>
      </trkpt>
      <trkpt lat="47.56719" lon="-0.54539">
        <ele>19</ele>
        <time>2020-07-20T15:47:41Z</time>
      </trkpt>
      <trkpt lat="47.56748" lon="-0.54529">
        <ele>19</ele>
        <time>2020-07-20T15:47:46Z</time>
      </trkpt>
      <trkpt lat="47.56855" lon="-0.54537">
        <ele>19</ele>
        <time>2020-07-20T15:48:05Z</time>
      </trkpt>
      <trkpt lat="47.56908" lon="-0.54532">
        <ele>20</ele>
        <time>2020-07-20T15:48:15Z</time>
      </trkpt>
      <trkpt lat="47.56951" lon="-0.54521">
        <ele>20</ele>
        <time>2020-07-20T15:48:22Z</time>
      </trkpt>
      <trkpt lat="47.56996" lon="-0.54494">
        <ele>20</ele>
        <time>2020-07-20T15:48:31Z</time>
      </trkpt>
      <trkpt lat="47.57016" lon="-0.54489">
        <ele>20</ele>
        <time>2020-07-20T15:48:35Z</time>
      </trkpt>
      <trkpt lat="47.57177" lon="-0.54511">
        <ele>19</ele>
        <time>2020-07-20T15:49:03Z</time>
      </trkpt>
      <trkpt lat="47.57243" lon="-0.54542">
        <ele>20</ele>
        <time>2020-07-20T15:49:16Z</time>
      </trkpt>
      <trkpt lat="47.57289" lon="-0.54557">
        <ele>21</ele>
        <time>2020-07-20T15:49:24Z</time>
      </trkpt>
      <trkpt lat="47.57359" lon="-0.54574">
        <ele>21</ele>
        <time>2020-07-20T15:49:37Z</time>
      </trkpt>
      <trkpt lat="47.57382" lon="-0.54577">
        <ele>20</ele>
        <time>2020-07-20T15:49:41Z</time>
      </trkpt>
      <trkpt lat="47.57436" lon="-0.54571">
        <ele>20</ele>
        <time>2020-07-20T15:49:51Z</time>
      </trkpt>
      <trkpt lat="47.57493" lon="-0.54572">
        <ele>20</ele>
        <time>2020-07-20T15:50:01Z</time>
      </trkpt>
      <trkpt lat="47.57515" lon="-0.54568">
        <ele>20</ele>
        <time>2020-07-20T15:50:05Z</time>
      </trkpt>
      <trkpt lat="47.57536" lon="-0.54559">
        <ele>21</ele>
        <time>2020-07-20T15:50:09Z</time>
      </trkpt>
      <trkpt lat="47.57614" lon="-0.54508">
        <ele>22</ele>
        <time>2020-07-20T15:50:24Z</time>
      </trkpt>
      <trkpt lat="47.57643" lon="-0.54498">
        <ele>22</ele>
        <time>2020-07-20T15:50:29Z</time>
      </trkpt>
      <trkpt lat="47.57678" lon="-0.54494">
        <ele>23</ele>
        <time>2020-07-20T15:50:35Z</time>
      </trkpt>
      <trkpt lat="47.57678" lon="-0.54486">
        <ele>23</ele>
        <time>2020-07-20T15:50:36Z</time>
      </trkpt>
      <trkpt lat="47.5769" lon="-0.54482">
        <ele>23</ele>
        <time>2020-07-20T15:50:38Z</time>
      </trkpt>
      <trkpt lat="47.57746" lon="-0.54453">
        <ele>23</ele>
        <time>2020-07-20T15:50:49Z</time>
      </trkpt>
      <trkpt lat="47.57766" lon="-0.54438">
        <ele>23</ele>
        <time>2020-07-20T15:50:53Z</time>
      </trkpt>
      <trkpt lat="47.57794" lon="-0.54412">
        <ele>22</ele>
        <time>2020-07-20T15:50:59Z</time>
      </trkpt>
      <trkpt lat="47.57831" lon="-0.54372">
        <ele>21</ele>
        <time>2020-07-20T15:51:07Z</time>
      </trkpt>
      <trkpt lat="47.57865" lon="-0.54343">
        <ele>20</ele>
        <time>2020-07-20T15:51:14Z</time>
      </trkpt>
      <trkpt lat="47.57884" lon="-0.54324">
        <ele>20</ele>
        <time>2020-07-20T15:51:18Z</time>
      </trkpt>
      <trkpt lat="47.57901" lon="-0.543">
        <ele>20</ele>
        <time>2020-07-20T15:51:22Z</time>
      </trkpt>
      <trkpt lat="47.5793" lon="-0.54271">
        <ele>20</ele>
        <time>2020-07-20T15:51:28Z</time>
      </trkpt>
      <trkpt lat="47.58014" lon="-0.54238">
        <ele>21</ele>
        <time>2020-07-20T15:51:44Z</time>
      </trkpt>
      <trkpt lat="47.58052" lon="-0.54209">
        <ele>21</ele>
        <time>2020-07-20T15:51:51Z</time>
      </trkpt>
      <trkpt lat="47.58082" lon="-0.54194">
        <ele>22</ele>
        <time>2020-07-20T15:51:57Z</time>
      </trkpt>
      <trkpt lat="47.582" lon="-0.54162">
        <ele>25</ele>
        <time>2020-07-20T15:52:18Z</time>
      </trkpt>
      <trkpt lat="47.58222" lon="-0.54151">
        <ele>25</ele>
        <time>2020-07-20T15:52:23Z</time>
      </trkpt>
      <trkpt lat="47.58329" lon="-0.54078">
        <ele>25</ele>
        <time>2020-07-20T15:52:44Z</time>
      </trkpt>
      <trkpt lat="47.58375" lon="-0.54056">
        <ele>25</ele>
        <time>2020-07-20T15:52:52Z</time>
      </trkpt>
      <trkpt lat="47.58402" lon="-0.54038">
        <ele>25</ele>
        <time>2020-07-20T15:52:57Z</time>
      </trkpt>
      <trkpt lat="47.58472" lon="-0.53944">
        <ele>24</ele>
        <time>2020-07-20T15:53:14Z</time>
      </trkpt>
      <trkpt lat="47.58518" lon="-0.53896">
        <ele>23</ele>
        <time>2020-07-20T15:53:24Z</time>
      </trkpt>
      <trkpt lat="47.58539" lon="-0.53881">
        <ele>23</ele>
        <time>2020-07-20T15:53:28Z</time>
      </trkpt>
      <trkpt lat="47.58557" lon="-0.53877">
        <ele>22</ele>
        <time>2020-07-20T15:53:32Z</time>
      </trkpt>
      <trkpt lat="47.58588" lon="-0.53877">
        <ele>22</ele>
        <time>2020-07-20T15:53:37Z</time>
      </trkpt>
      <trkpt lat="47.58636" lon="-0.539">
        <ele>20</ele>
        <time>2020-07-20T15:53:46Z</time>
      </trkpt>
      <trkpt lat="47.58676" lon="-0.53923">
        <ele>21</ele>
        <time>2020-07-20T15:53:54Z</time>
      </trkpt>
      <trkpt lat="47.58715" lon="-0.53937">
        <ele>23</ele>
        <time>2020-07-20T15:54:01Z</time>
      </trkpt>
      <trkpt lat="47.58767" lon="-0.53944">
        <ele>25</ele>
        <time>2020-07-20T15:54:10Z</time>
      </trkpt>
      <trkpt lat="47.58794" lon="-0.53953">
        <ele>25</ele>
        <time>2020-07-20T15:54:15Z</time>
      </trkpt>
      <trkpt lat="47.58822" lon="-0.53958">
        <ele>25</ele>
        <time>2020-07-20T15:54:20Z</time>
      </trkpt>
      <trkpt lat="47.5887" lon="-0.53938">
        <ele>26</ele>
        <time>2020-07-20T15:54:29Z</time>
      </trkpt>
      <trkpt lat="47.5893" lon="-0.53919">
        <ele>27</ele>
        <time>2020-07-20T15:54:40Z</time>
      </trkpt>
      <trkpt lat="47.58979" lon="-0.53909">
        <ele>27</ele>
        <time>2020-07-20T15:54:49Z</time>
      </trkpt>
      <trkpt lat="47.59021" lon="-0.53883">
        <ele>27</ele>
        <time>2020-07-20T15:54:57Z</time>
      </trkpt>
      <trkpt lat="47.59078" lon="-0.53826">
        <ele>26</ele>
        <time>2020-07-20T15:55:09Z</time>
      </trkpt>
      <trkpt lat="47.59097" lon="-0.53797">
        <ele>26</ele>
        <time>2020-07-20T15:55:14Z</time>
      </trkpt>
      <trkpt lat="47.5913" lon="-0.53729">
        <ele>25</ele>
        <time>2020-07-20T15:55:24Z</time>
      </trkpt>
      <trkpt lat="47.59156" lon="-0.53705">
        <ele>25</ele>
        <time>2020-07-20T15:55:29Z</time>
      </trkpt>
      <trkpt lat="47.59225" lon="-0.53687">
        <ele>26</ele>
        <time>2020-07-20T15:55:42Z</time>
      </trkpt>
      <trkpt lat="47.59239" lon="-0.53687">
        <ele>27</ele>
        <time>2020-07-20T15:55:44Z</time>
      </trkpt>
      <trkpt lat="47.59303" lon="-0.53696">
        <ele>27</ele>
        <time>2020-07-20T15:55:56Z</time>
      </trkpt>
      <trkpt lat="47.59347" lon="-0.53698">
        <ele>27</ele>
        <time>2020-07-20T15:56:04Z</time>
      </trkpt>
      <trkpt lat="47.59405" lon="-0.53693">
        <ele>28</ele>
        <time>2020-07-20T15:56:14Z</time>
      </trkpt>
      <trkpt lat="47.59419" lon="-0.53695">
        <ele>28</ele>
        <time>2020-07-20T15:56:16Z</time>
      </trkpt>
      <trkpt lat="47.59422" lon="-0.53702">
        <ele>28</ele>
        <time>2020-07-20T15:56:17Z</time>
      </trkpt>
      <trkpt lat="47.5943" lon="-0.5369">
        <ele>28</ele>
        <time>2020-07-20T15:56:19Z</time>
      </trkpt>
      <trkpt lat="47.59437" lon="-0.53685">
        <ele>28</ele>
        <time>2020-07-20T15:56:21Z</time>
      </trkpt>
      <trkpt lat="47.59468" lon="-0.5367">
        <ele>29</ele>
        <time>2020-07-20T15:56:27Z</time>
      </trkpt>
      <trkpt lat="47.59482" lon="-0.53657">
        <ele>29</ele>
        <time>2020-07-20T15:56:30Z</time>
      </trkpt>
      <trkpt lat="47.59494" lon="-0.5363">
        <ele>29</ele>
        <time>2020-07-20T15:56:33Z</time>
      </trkpt>
      <trkpt lat="47.59505" lon="-0.53578">
        <ele>28</ele>
        <time>2020-07-20T15:56:40Z</time>
      </trkpt>
      <trkpt lat="47.59516" lon="-0.5354">
        <ele>28</ele>
        <time>2020-07-20T15:56:45Z</time>
      </trkpt>
      <trkpt lat="47.5953" lon="-0.53452">
        <ele>29</ele>
        <time>2020-07-20T15:56:56Z</time>
      </trkpt>
      <trkpt lat="47.59537" lon="-0.5329">
        <ele>28</ele>
        <time>2020-07-20T15:57:15Z</time>
      </trkpt>
      <trkpt lat="47.59542" lon="-0.53225">
        <ele>28</ele>
        <time>2020-07-20T15:57:23Z</time>
      </trkpt>
      <trkpt lat="47.59547" lon="-0.53193">
        <ele>27</ele>
        <time>2020-07-20T15:57:27Z</time>
      </trkpt>
      <trkpt lat="47.59622" lon="-0.52846">
        <ele>25</ele>
        <time>2020-07-20T15:58:11Z</time>
      </trkpt>
      <trkpt lat="47.59639" lon="-0.52799">
        <ele>25</ele>
        <time>2020-07-20T15:58:17Z</time>
      </trkpt>
      <trkpt lat="47.59648" lon="-0.52783">
        <ele>25</ele>
        <time>2020-07-20T15:58:20Z</time>
      </trkpt>
      <trkpt lat="47.59682" lon="-0.52737">
        <ele>25</ele>
        <time>2020-07-20T15:58:28Z</time>
      </trkpt>
      <trkpt lat="47.59709" lon="-0.5271">
        <ele>25</ele>
        <time>2020-07-20T15:58:34Z</time>
      </trkpt>
      <trkpt lat="47.59728" lon="-0.52699">
        <ele>25</ele>
        <time>2020-07-20T15:58:37Z</time>
      </trkpt>
      <trkpt lat="47.59752" lon="-0.52694">
        <ele>24</ele>
        <time>2020-07-20T15:58:42Z</time>
      </trkpt>
      <trkpt lat="47.59909" lon="-0.52702">
        <ele>25</ele>
        <time>2020-07-20T15:59:10Z</time>
      </trkpt>
      <trkpt lat="47.5993" lon="-0.52701">
        <ele>26</ele>
        <time>2020-07-20T15:59:13Z</time>
      </trkpt>
      <trkpt lat="47.59955" lon="-0.52693">
        <ele>26</ele>
        <time>2020-07-20T15:59:18Z</time>
      </trkpt>
      <trkpt lat="47.5997" lon="-0.5268">
        <ele>25</ele>
        <time>2020-07-20T15:59:21Z</time>
      </trkpt>
      <trkpt lat="47.60001" lon="-0.52644">
        <ele>25</ele>
        <time>2020-07-20T15:59:28Z</time>
      </trkpt>
      <trkpt lat="47.60088" lon="-0.52531">
        <ele>25</ele>
        <time>2020-07-20T15:59:49Z</time>
      </trkpt>
      <trkpt lat="47.60134" lon="-0.52457">
        <ele>27</ele>
        <time>2020-07-20T16:00:01Z</time>
      </trkpt>
      <trkpt lat="47.60168" lon="-0.52391">
        <ele>28</ele>
        <time>2020-07-20T16:00:11Z</time>
      </trkpt>
      <trkpt lat="47.60176" lon="-0.52381">
        <ele>28</ele>
        <time>2020-07-20T16:00:12Z</time>
      </trkpt>
      <trkpt lat="47.60195" lon="-0.52366">
        <ele>28</ele>
        <time>2020-07-20T16:00:16Z</time>
      </trkpt>
      <trkpt lat="47.60307" lon="-0.52327">
        <ele>26</ele>
        <time>2020-07-20T16:00:37Z</time>
      </trkpt>
      <trkpt lat="47.60342" lon="-0.52307">
        <ele>25</ele>
        <time>2020-07-20T16:00:43Z</time>
      </trkpt>
      <trkpt lat="47.60369" lon="-0.5228">
        <ele>25</ele>
        <time>2020-07-20T16:00:49Z</time>
      </trkpt>
      <trkpt lat="47.60399" lon="-0.52239">
        <ele>24</ele>
        <time>2020-07-20T16:00:56Z</time>
      </trkpt>
      <trkpt lat="47.6044" lon="-0.52194">
        <ele>23</ele>
        <time>2020-07-20T16:01:06Z</time>
      </trkpt>
      <trkpt lat="47.60584" lon="-0.52066">
        <ele>20</ele>
        <time>2020-07-20T16:01:35Z</time>
      </trkpt>
      <trkpt lat="47.60602" lon="-0.52038">
        <ele>21</ele>
        <time>2020-07-20T16:01:40Z</time>
      </trkpt>
      <trkpt lat="47.60612" lon="-0.52013">
        <ele>21</ele>
        <time>2020-07-20T16:01:44Z</time>
      </trkpt>
      <trkpt lat="47.60651" lon="-0.51891">
        <ele>20</ele>
        <time>2020-07-20T16:02:00Z</time>
      </trkpt>
      <trkpt lat="47.60661" lon="-0.51873">
        <ele>20</ele>
        <time>2020-07-20T16:02:03Z</time>
      </trkpt>
      <trkpt lat="47.60674" lon="-0.51862">
        <ele>20</ele>
        <time>2020-07-20T16:02:05Z</time>
      </trkpt>
      <trkpt lat="47.60689" lon="-0.51857">
        <ele>19</ele>
        <time>2020-07-20T16:02:08Z</time>
      </trkpt>
      <trkpt lat="47.60699" lon="-0.51857">
        <ele>19</ele>
        <time>2020-07-20T16:02:10Z</time>
      </trkpt>
      <trkpt lat="47.60851" lon="-0.51878">
        <ele>19</ele>
        <time>2020-07-20T16:02:37Z</time>
      </trkpt>
      <trkpt lat="47.60888" lon="-0.51878">
        <ele>19</ele>
        <time>2020-07-20T16:02:43Z</time>
      </trkpt>
      <trkpt lat="47.61091" lon="-0.51824">
        <ele>20</ele>
        <time>2020-07-20T16:03:20Z</time>
      </trkpt>
      <trkpt lat="47.61127" lon="-0.51806">
        <ele>20</ele>
        <time>2020-07-20T16:03:27Z</time>
      </trkpt>
      <trkpt lat="47.61156" lon="-0.51788">
        <ele>19</ele>
        <time>2020-07-20T16:03:33Z</time>
      </trkpt>
      <trkpt lat="47.61345" lon="-0.51645">
        <ele>17</ele>
        <time>2020-07-20T16:04:10Z</time>
      </trkpt>
      <trkpt lat="47.61379" lon="-0.51614">
        <ele>17</ele>
        <time>2020-07-20T16:04:17Z</time>
      </trkpt>
      <trkpt lat="47.61396" lon="-0.51593">
        <ele>18</ele>
        <time>2020-07-20T16:04:21Z</time>
      </trkpt>
      <trkpt lat="47.61418" lon="-0.51551">
        <ele>18</ele>
        <time>2020-07-20T16:04:28Z</time>
      </trkpt>
      <trkpt lat="47.61427" lon="-0.51519">
        <ele>18</ele>
        <time>2020-07-20T16:04:32Z</time>
      </trkpt>
      <trkpt lat="47.61434" lon="-0.51478">
        <ele>18</ele>
        <time>2020-07-20T16:04:37Z</time>
      </trkpt>
      <trkpt lat="47.61448" lon="-0.51351">
        <ele>19</ele>
        <time>2020-07-20T16:04:52Z</time>
      </trkpt>
      <trkpt lat="47.61461" lon="-0.51306">
        <ele>20</ele>
        <time>2020-07-20T16:04:58Z</time>
      </trkpt>
      <trkpt lat="47.61476" lon="-0.51284">
        <ele>20</ele>
        <time>2020-07-20T16:05:02Z</time>
      </trkpt>
      <trkpt lat="47.61492" lon="-0.51275">
        <ele>21</ele>
        <time>2020-07-20T16:05:05Z</time>
      </trkpt>
      <trkpt lat="47.6153" lon="-0.5127">
        <ele>20</ele>
        <time>2020-07-20T16:05:12Z</time>
      </trkpt>
      <trkpt lat="47.61573" lon="-0.51272">
        <ele>19</ele>
        <time>2020-07-20T16:05:19Z</time>
      </trkpt>
      <trkpt lat="47.61622" lon="-0.51279">
        <ele>19</ele>
        <time>2020-07-20T16:05:28Z</time>
      </trkpt>
      <trkpt lat="47.61749" lon="-0.51283">
        <ele>20</ele>
        <time>2020-07-20T16:05:51Z</time>
      </trkpt>
      <trkpt lat="47.61843" lon="-0.51276">
        <ele>20</ele>
        <time>2020-07-20T16:06:08Z</time>
      </trkpt>
      <trkpt lat="47.61893" lon="-0.51265">
        <ele>20</ele>
        <time>2020-07-20T16:06:17Z</time>
      </trkpt>
      <trkpt lat="47.61935" lon="-0.5125">
        <ele>20</ele>
        <time>2020-07-20T16:06:24Z</time>
      </trkpt>
      <trkpt lat="47.61975" lon="-0.51228">
        <ele>20</ele>
        <time>2020-07-20T16:06:32Z</time>
      </trkpt>
      <trkpt lat="47.61995" lon="-0.51214">
        <ele>20</ele>
        <time>2020-07-20T16:06:36Z</time>
      </trkpt>
      <trkpt lat="47.62053" lon="-0.51167">
        <ele>19</ele>
        <time>2020-07-20T16:06:48Z</time>
      </trkpt>
      <trkpt lat="47.62054" lon="-0.51147">
        <ele>19</ele>
        <time>2020-07-20T16:06:50Z</time>
      </trkpt>
      <trkpt lat="47.62062" lon="-0.51138">
        <ele>19</ele>
        <time>2020-07-20T16:06:52Z</time>
      </trkpt>
      <trkpt lat="47.62066" lon="-0.51137">
        <ele>19</ele>
        <time>2020-07-20T16:06:52Z</time>
      </trkpt>
      <trkpt lat="47.62073" lon="-0.5114">
        <ele>19</ele>
        <time>2020-07-20T16:06:54Z</time>
      </trkpt>
      <trkpt lat="47.62077" lon="-0.51144">
        <ele>18</ele>
        <time>2020-07-20T16:06:55Z</time>
      </trkpt>
      <trkpt lat="47.62079" lon="-0.51152">
        <ele>18</ele>
        <time>2020-07-20T16:06:56Z</time>
      </trkpt>
      <trkpt lat="47.6222" lon="-0.51084">
        <ele>19</ele>
        <time>2020-07-20T16:07:22Z</time>
      </trkpt>
      <trkpt lat="47.62235" lon="-0.51073">
        <ele>19</ele>
        <time>2020-07-20T16:07:25Z</time>
      </trkpt>
      <trkpt lat="47.62252" lon="-0.51053">
        <ele>19</ele>
        <time>2020-07-20T16:07:29Z</time>
      </trkpt>
      <trkpt lat="47.62285" lon="-0.51002">
        <ele>21</ele>
        <time>2020-07-20T16:07:37Z</time>
      </trkpt>
      <trkpt lat="47.62301" lon="-0.50983">
        <ele>21</ele>
        <time>2020-07-20T16:07:41Z</time>
      </trkpt>
      <trkpt lat="47.62334" lon="-0.51">
        <ele>23</ele>
        <time>2020-07-20T16:07:47Z</time>
      </trkpt>
      <trkpt lat="47.62352" lon="-0.51006">
        <ele>23</ele>
        <time>2020-07-20T16:07:50Z</time>
      </trkpt>
      <trkpt lat="47.62364" lon="-0.51008">
        <ele>23</ele>
        <time>2020-07-20T16:07:53Z</time>
      </trkpt>
      <trkpt lat="47.62388" lon="-0.51007">
        <ele>23</ele>
        <time>2020-07-20T16:07:57Z</time>
      </trkpt>
      <trkpt lat="47.62401" lon="-0.51004">
        <ele>23</ele>
        <time>2020-07-20T16:07:59Z</time>
      </trkpt>
      <trkpt lat="47.62412" lon="-0.50998">
        <ele>23</ele>
        <time>2020-07-20T16:08:01Z</time>
      </trkpt>
      <trkpt lat="47.62428" lon="-0.50986">
        <ele>23</ele>
        <time>2020-07-20T16:08:04Z</time>
      </trkpt>
      <trkpt lat="47.62443" lon="-0.5097">
        <ele>23</ele>
        <time>2020-07-20T16:08:08Z</time>
      </trkpt>
      <trkpt lat="47.62471" lon="-0.50923">
        <ele>22</ele>
        <time>2020-07-20T16:08:15Z</time>
      </trkpt>
      <trkpt lat="47.625" lon="-0.50862">
        <ele>20</ele>
        <time>2020-07-20T16:08:24Z</time>
      </trkpt>
      <trkpt lat="47.6253" lon="-0.50761">
        <ele>19</ele>
        <time>2020-07-20T16:08:37Z</time>
      </trkpt>
      <trkpt lat="47.6255" lon="-0.50671">
        <ele>19</ele>
        <time>2020-07-20T16:08:49Z</time>
      </trkpt>
      <trkpt lat="47.6258" lon="-0.50503">
        <ele>17</ele>
        <time>2020-07-20T16:09:10Z</time>
      </trkpt>
      <trkpt lat="47.62622" lon="-0.50295">
        <ele>18</ele>
        <time>2020-07-20T16:09:36Z</time>
      </trkpt>
      <trkpt lat="47.6266" lon="-0.50089">
        <ele>20</ele>
        <time>2020-07-20T16:10:01Z</time>
      </trkpt>
      <trkpt lat="47.62676" lon="-0.50029">
        <ele>22</ele>
        <time>2020-07-20T16:10:09Z</time>
      </trkpt>
      <trkpt lat="47.6271" lon="-0.49931">
        <ele>22</ele>
        <time>2020-07-20T16:10:22Z</time>
      </trkpt>
      <trkpt lat="47.62727" lon="-0.49852">
        <ele>21</ele>
        <time>2020-07-20T16:10:32Z</time>
      </trkpt>
      <trkpt lat="47.62742" lon="-0.49797">
        <ele>20</ele>
        <time>2020-07-20T16:10:39Z</time>
      </trkpt>
      <trkpt lat="47.62759" lon="-0.49753">
        <ele>21</ele>
        <time>2020-07-20T16:10:45Z</time>
      </trkpt>
      <trkpt lat="47.628" lon="-0.49677">
        <ele>20</ele>
        <time>2020-07-20T16:10:57Z</time>
      </trkpt>
      <trkpt lat="47.62831" lon="-0.49635">
        <ele>19</ele>
        <time>2020-07-20T16:11:05Z</time>
      </trkpt>
      <trkpt lat="47.62876" lon="-0.49583">
        <ele>19</ele>
        <time>2020-07-20T16:11:15Z</time>
      </trkpt>
      <trkpt lat="47.62902" lon="-0.49561">
        <ele>19</ele>
        <time>2020-07-20T16:11:20Z</time>
      </trkpt>
      <trkpt lat="47.62942" lon="-0.49538">
        <ele>19</ele>
        <time>2020-07-20T16:11:28Z</time>
      </trkpt>
      <trkpt lat="47.63096" lon="-0.49418">
        <ele>19</ele>
        <time>2020-07-20T16:11:59Z</time>
      </trkpt>
      <trkpt lat="47.63131" lon="-0.49397">
        <ele>20</ele>
        <time>2020-07-20T16:12:05Z</time>
      </trkpt>
      <trkpt lat="47.63172" lon="-0.49383">
        <ele>20</ele>
        <time>2020-07-20T16:12:13Z</time>
      </trkpt>
      <trkpt lat="47.63253" lon="-0.49362">
        <ele>21</ele>
        <time>2020-07-20T16:12:27Z</time>
      </trkpt>
      <trkpt lat="47.63284" lon="-0.49359">
        <ele>22</ele>
        <time>2020-07-20T16:12:33Z</time>
      </trkpt>
      <trkpt lat="47.6333" lon="-0.49366">
        <ele>22</ele>
        <time>2020-07-20T16:12:41Z</time>
      </trkpt>
      <trkpt lat="47.63346" lon="-0.49371">
        <ele>23</ele>
        <time>2020-07-20T16:12:44Z</time>
      </trkpt>
      <trkpt lat="47.63418" lon="-0.49405">
        <ele>24</ele>
        <time>2020-07-20T16:12:58Z</time>
      </trkpt>
      <trkpt lat="47.63443" lon="-0.49408">
        <ele>24</ele>
        <time>2020-07-20T16:13:02Z</time>
      </trkpt>
      <trkpt lat="47.63469" lon="-0.49402">
        <ele>24</ele>
        <time>2020-07-20T16:13:07Z</time>
      </trkpt>
      <trkpt lat="47.6355" lon="-0.49359">
        <ele>23</ele>
        <time>2020-07-20T16:13:22Z</time>
      </trkpt>
      <trkpt lat="47.63595" lon="-0.49341">
        <ele>20</ele>
        <time>2020-07-20T16:13:30Z</time>
      </trkpt>
      <trkpt lat="47.63776" lon="-0.49302">
        <ele>21</ele>
        <time>2020-07-20T16:14:03Z</time>
      </trkpt>
      <trkpt lat="47.63795" lon="-0.49302">
        <ele>21</ele>
        <time>2020-07-20T16:14:06Z</time>
      </trkpt>
      <trkpt lat="47.63834" lon="-0.49313">
        <ele>21</ele>
        <time>2020-07-20T16:14:13Z</time>
      </trkpt>
      <trkpt lat="47.63958" lon="-0.49377">
        <ele>21</ele>
        <time>2020-07-20T16:14:37Z</time>
      </trkpt>
      <trkpt lat="47.64003" lon="-0.49395">
        <ele>22</ele>
        <time>2020-07-20T16:14:45Z</time>
      </trkpt>
      <trkpt lat="47.64072" lon="-0.49416">
        <ele>21</ele>
        <time>2020-07-20T16:14:57Z</time>
      </trkpt>
      <trkpt lat="47.64116" lon="-0.49439">
        <ele>21</ele>
        <time>2020-07-20T16:15:06Z</time>
      </trkpt>
      <trkpt lat="47.64212" lon="-0.49509">
        <ele>21</ele>
        <time>2020-07-20T16:15:25Z</time>
      </trkpt>
      <trkpt lat="47.64301" lon="-0.49565">
        <ele>21</ele>
        <time>2020-07-20T16:15:42Z</time>
      </trkpt>
      <trkpt lat="47.64357" lon="-0.49612">
        <ele>21</ele>
        <time>2020-07-20T16:15:53Z</time>
      </trkpt>
      <trkpt lat="47.64399" lon="-0.49641">
        <ele>21</ele>
        <time>2020-07-20T16:16:02Z</time>
      </trkpt>
      <trkpt lat="47.64426" lon="-0.49654">
        <ele>20</ele>
        <time>2020-07-20T16:16:07Z</time>
      </trkpt>
      <trkpt lat="47.6444" lon="-0.49657">
        <ele>21</ele>
        <time>2020-07-20T16:16:09Z</time>
      </trkpt>
      <trkpt lat="47.64454" lon="-0.49658">
        <ele>21</ele>
        <time>2020-07-20T16:16:12Z</time>
      </trkpt>
      <trkpt lat="47.64487" lon="-0.49653">
        <ele>22</ele>
        <time>2020-07-20T16:16:18Z</time>
      </trkpt>
      <trkpt lat="47.64562" lon="-0.49635">
        <ele>22</ele>
        <time>2020-07-20T16:16:31Z</time>
      </trkpt>
      <trkpt lat="47.64629" lon="-0.49624">
        <ele>21</ele>
        <time>2020-07-20T16:16:43Z</time>
      </trkpt>
      <trkpt lat="47.64874" lon="-0.49603">
        <ele>22</ele>
        <time>2020-07-20T16:17:27Z</time>
      </trkpt>
      <trkpt lat="47.64903" lon="-0.49605">
        <ele>23</ele>
        <time>2020-07-20T16:17:32Z</time>
      </trkpt>
      <trkpt lat="47.64928" lon="-0.49609">
        <ele>23</ele>
        <time>2020-07-20T16:17:36Z</time>
      </trkpt>
      <trkpt lat="47.64962" lon="-0.49619">
        <ele>23</ele>
        <time>2020-07-20T16:17:43Z</time>
      </trkpt>
      <trkpt lat="47.65207" lon="-0.49712">
        <ele>25</ele>
        <time>2020-07-20T16:18:28Z</time>
      </trkpt>
      <trkpt lat="47.65245" lon="-0.49722">
        <ele>25</ele>
        <time>2020-07-20T16:18:35Z</time>
      </trkpt>
      <trkpt lat="47.65257" lon="-0.49722">
        <ele>25</ele>
        <time>2020-07-20T16:18:37Z</time>
      </trkpt>
      <trkpt lat="47.65276" lon="-0.49715">
        <ele>25</ele>
        <time>2020-07-20T16:18:40Z</time>
      </trkpt>
      <trkpt lat="47.65341" lon="-0.49677">
        <ele>25</ele>
        <time>2020-07-20T16:18:53Z</time>
      </trkpt>
      <trkpt lat="47.65377" lon="-0.49622">
        <ele>25</ele>
        <time>2020-07-20T16:19:02Z</time>
      </trkpt>
      <trkpt lat="47.65374" lon="-0.49614">
        <ele>25</ele>
        <time>2020-07-20T16:19:03Z</time>
      </trkpt>
      <trkpt lat="47.65375" lon="-0.49609">
        <ele>25</ele>
        <time>2020-07-20T16:19:03Z</time>
      </trkpt>
      <trkpt lat="47.6538" lon="-0.49605">
        <ele>25</ele>
        <time>2020-07-20T16:19:04Z</time>
      </trkpt>
      <trkpt lat="47.65385" lon="-0.49609">
        <ele>25</ele>
        <time>2020-07-20T16:19:06Z</time>
      </trkpt>
      <trkpt lat="47.65385" lon="-0.49619">
        <ele>25</ele>
        <time>2020-07-20T16:19:07Z</time>
      </trkpt>
      <trkpt lat="47.65395" lon="-0.49631">
        <ele>25</ele>
        <time>2020-07-20T16:19:09Z</time>
      </trkpt>
      <trkpt lat="47.65435" lon="-0.4967">
        <ele>27</ele>
        <time>2020-07-20T16:19:18Z</time>
      </trkpt>
      <trkpt lat="47.65485" lon="-0.49707">
        <ele>28</ele>
        <time>2020-07-20T16:19:27Z</time>
      </trkpt>
      <trkpt lat="47.65516" lon="-0.49737">
        <ele>28</ele>
        <time>2020-07-20T16:19:34Z</time>
      </trkpt>
      <trkpt lat="47.65542" lon="-0.49768">
        <ele>29</ele>
        <time>2020-07-20T16:19:40Z</time>
      </trkpt>
      <trkpt lat="47.65549" lon="-0.49786">
        <ele>29</ele>
        <time>2020-07-20T16:19:42Z</time>
      </trkpt>
      <trkpt lat="47.65536" lon="-0.49826">
        <ele>28</ele>
        <time>2020-07-20T16:19:48Z</time>
      </trkpt>
      <trkpt lat="47.65529" lon="-0.49858">
        <ele>28</ele>
        <time>2020-07-20T16:19:52Z</time>
      </trkpt>
      <trkpt lat="47.65869" lon="-0.4993">
        <ele>18</ele>
        <time>2020-07-20T16:20:53Z</time>
      </trkpt>
      <trkpt lat="47.66061" lon="-0.49975">
        <ele>20</ele>
        <time>2020-07-20T16:21:28Z</time>
      </trkpt>
      <trkpt lat="47.66203" lon="-0.50013">
        <ele>23</ele>
        <time>2020-07-20T16:21:53Z</time>
      </trkpt>
      <trkpt lat="47.66264" lon="-0.50019">
        <ele>25</ele>
        <time>2020-07-20T16:22:04Z</time>
      </trkpt>
      <trkpt lat="47.66348" lon="-0.5002">
        <ele>26</ele>
        <time>2020-07-20T16:22:19Z</time>
      </trkpt>
      <trkpt lat="47.66394" lon="-0.50026">
        <ele>27</ele>
        <time>2020-07-20T16:22:27Z</time>
      </trkpt>
      <trkpt lat="47.66501" lon="-0.50047">
        <ele>24</ele>
        <time>2020-07-20T16:22:46Z</time>
      </trkpt>
      <trkpt lat="47.66532" lon="-0.50041">
        <ele>22</ele>
        <time>2020-07-20T16:22:52Z</time>
      </trkpt>
      <trkpt lat="47.66571" lon="-0.50028">
        <ele>20</ele>
        <time>2020-07-20T16:22:59Z</time>
      </trkpt>
      <trkpt lat="47.66695" lon="-0.49974">
        <ele>24</ele>
        <time>2020-07-20T16:23:22Z</time>
      </trkpt>
      <trkpt lat="47.66832" lon="-0.49918">
        <ele>32</ele>
        <time>2020-07-20T16:23:47Z</time>
      </trkpt>
      <trkpt lat="47.66865" lon="-0.49902">
        <ele>32</ele>
        <time>2020-07-20T16:23:54Z</time>
      </trkpt>
      <trkpt lat="47.6699" lon="-0.49808">
        <ele>33</ele>
        <time>2020-07-20T16:24:18Z</time>
      </trkpt>
      <trkpt lat="47.67038" lon="-0.49784">
        <ele>33</ele>
        <time>2020-07-20T16:24:27Z</time>
      </trkpt>
      <trkpt lat="47.67092" lon="-0.49763">
        <ele>34</ele>
        <time>2020-07-20T16:24:37Z</time>
      </trkpt>
      <trkpt lat="47.67109" lon="-0.49753">
        <ele>34</ele>
        <time>2020-07-20T16:24:41Z</time>
      </trkpt>
      <trkpt lat="47.67314" lon="-0.49616">
        <ele>36</ele>
        <time>2020-07-20T16:25:21Z</time>
      </trkpt>
      <trkpt lat="47.67332" lon="-0.49606">
        <ele>37</ele>
        <time>2020-07-20T16:25:24Z</time>
      </trkpt>
      <trkpt lat="47.67365" lon="-0.49592">
        <ele>35</ele>
        <time>2020-07-20T16:25:30Z</time>
      </trkpt>
      <trkpt lat="47.67396" lon="-0.49586">
        <ele>34</ele>
        <time>2020-07-20T16:25:36Z</time>
      </trkpt>
      <trkpt lat="47.67425" lon="-0.49584">
        <ele>33</ele>
        <time>2020-07-20T16:25:41Z</time>
      </trkpt>
      <trkpt lat="47.67451" lon="-0.49587">
        <ele>33</ele>
        <time>2020-07-20T16:25:46Z</time>
      </trkpt>
      <trkpt lat="47.67504" lon="-0.49586">
        <ele>33</ele>
        <time>2020-07-20T16:25:55Z</time>
      </trkpt>
      <trkpt lat="47.67564" lon="-0.49564">
        <ele>32</ele>
        <time>2020-07-20T16:26:06Z</time>
      </trkpt>
      <trkpt lat="47.67622" lon="-0.49535">
        <ele>31</ele>
        <time>2020-07-20T16:26:17Z</time>
      </trkpt>
      <trkpt lat="47.67653" lon="-0.49513">
        <ele>32</ele>
        <time>2020-07-20T16:26:23Z</time>
      </trkpt>
      <trkpt lat="47.67696" lon="-0.49467">
        <ele>31</ele>
        <time>2020-07-20T16:26:32Z</time>
      </trkpt>
      <trkpt lat="47.67785" lon="-0.49357">
        <ele>32</ele>
        <time>2020-07-20T16:26:53Z</time>
      </trkpt>
      <trkpt lat="47.67815" lon="-0.4931">
        <ele>34</ele>
        <time>2020-07-20T16:27:01Z</time>
      </trkpt>
      <trkpt lat="47.67946" lon="-0.49057">
        <ele>30</ele>
        <time>2020-07-20T16:27:39Z</time>
      </trkpt>
      <trkpt lat="47.67975" lon="-0.48987">
        <ele>29</ele>
        <time>2020-07-20T16:27:49Z</time>
      </trkpt>
      <trkpt lat="47.68041" lon="-0.48813">
        <ele>29</ele>
        <time>2020-07-20T16:28:13Z</time>
      </trkpt>
      <trkpt lat="47.681" lon="-0.48696">
        <ele>31</ele>
        <time>2020-07-20T16:28:30Z</time>
      </trkpt>
      <trkpt lat="47.68161" lon="-0.48596">
        <ele>34</ele>
        <time>2020-07-20T16:28:46Z</time>
      </trkpt>
      <trkpt lat="47.68201" lon="-0.48547">
        <ele>34</ele>
        <time>2020-07-20T16:28:56Z</time>
      </trkpt>
      <trkpt lat="47.68213" lon="-0.48506">
        <ele>35</ele>
        <time>2020-07-20T16:29:01Z</time>
      </trkpt>
      <trkpt lat="47.68334" lon="-0.47874">
        <ele>23</ele>
        <time>2020-07-20T16:30:20Z</time>
      </trkpt>
      <trkpt lat="47.68349" lon="-0.47806">
        <ele>22</ele>
        <time>2020-07-20T16:30:28Z</time>
      </trkpt>
      <trkpt lat="47.68364" lon="-0.47758">
        <ele>21</ele>
        <time>2020-07-20T16:30:35Z</time>
      </trkpt>
      <trkpt lat="47.68452" lon="-0.47538">
        <ele>23</ele>
        <time>2020-07-20T16:31:05Z</time>
      </trkpt>
      <trkpt lat="47.68536" lon="-0.4722">
        <ele>23</ele>
        <time>2020-07-20T16:31:46Z</time>
      </trkpt>
      <trkpt lat="47.68558" lon="-0.47152">
        <ele>23</ele>
        <time>2020-07-20T16:31:55Z</time>
      </trkpt>
      <trkpt lat="47.68697" lon="-0.46779">
        <ele>21</ele>
        <time>2020-07-20T16:32:46Z</time>
      </trkpt>
      <trkpt lat="47.68727" lon="-0.46712">
        <ele>22</ele>
        <time>2020-07-20T16:32:56Z</time>
      </trkpt>
      <trkpt lat="47.68739" lon="-0.46694">
        <ele>22</ele>
        <time>2020-07-20T16:32:59Z</time>
      </trkpt>
      <trkpt lat="47.68763" lon="-0.46666">
        <ele>22</ele>
        <time>2020-07-20T16:33:04Z</time>
      </trkpt>
      <trkpt lat="47.68808" lon="-0.46628">
        <ele>22</ele>
        <time>2020-07-20T16:33:14Z</time>
      </trkpt>
      <trkpt lat="47.68846" lon="-0.466">
        <ele>21</ele>
        <time>2020-07-20T16:33:21Z</time>
      </trkpt>
      <trkpt lat="47.68882" lon="-0.46581">
        <ele>21</ele>
        <time>2020-07-20T16:33:28Z</time>
      </trkpt>
      <trkpt lat="47.689" lon="-0.46575">
        <ele>21</ele>
        <time>2020-07-20T16:33:31Z</time>
      </trkpt>
      <trkpt lat="47.68923" lon="-0.46569">
        <ele>22</ele>
        <time>2020-07-20T16:33:35Z</time>
      </trkpt>
      <trkpt lat="47.68951" lon="-0.46566">
        <ele>22</ele>
        <time>2020-07-20T16:33:40Z</time>
      </trkpt>
      <trkpt lat="47.68966" lon="-0.46567">
        <ele>23</ele>
        <time>2020-07-20T16:33:43Z</time>
      </trkpt>
      <trkpt lat="47.68979" lon="-0.46571">
        <ele>23</ele>
        <time>2020-07-20T16:33:45Z</time>
      </trkpt>
      <trkpt lat="47.69008" lon="-0.46586">
        <ele>24</ele>
        <time>2020-07-20T16:33:51Z</time>
      </trkpt>
      <trkpt lat="47.69084" lon="-0.4664">
        <ele>25</ele>
        <time>2020-07-20T16:34:06Z</time>
      </trkpt>
      <trkpt lat="47.69126" lon="-0.46657">
        <ele>25</ele>
        <time>2020-07-20T16:34:14Z</time>
      </trkpt>
      <trkpt lat="47.6919" lon="-0.46663">
        <ele>25</ele>
        <time>2020-07-20T16:34:25Z</time>
      </trkpt>
      <trkpt lat="47.69268" lon="-0.46663">
        <ele>26</ele>
        <time>2020-07-20T16:34:39Z</time>
      </trkpt>
      <trkpt lat="47.69322" lon="-0.46657">
        <ele>25</ele>
        <time>2020-07-20T16:34:49Z</time>
      </trkpt>
      <trkpt lat="47.69385" lon="-0.46631">
        <ele>26</ele>
        <time>2020-07-20T16:35:00Z</time>
      </trkpt>
      <trkpt lat="47.69399" lon="-0.46623">
        <ele>26</ele>
        <time>2020-07-20T16:35:03Z</time>
      </trkpt>
      <trkpt lat="47.69422" lon="-0.46603">
        <ele>26</ele>
        <time>2020-07-20T16:35:08Z</time>
      </trkpt>
      <trkpt lat="47.6954" lon="-0.46446">
        <ele>27</ele>
        <time>2020-07-20T16:35:36Z</time>
      </trkpt>
      <trkpt lat="47.69562" lon="-0.46412">
        <ele>26</ele>
        <time>2020-07-20T16:35:41Z</time>
      </trkpt>
      <trkpt lat="47.69587" lon="-0.46363">
        <ele>25</ele>
        <time>2020-07-20T16:35:49Z</time>
      </trkpt>
      <trkpt lat="47.69662" lon="-0.46135">
        <ele>24</ele>
        <time>2020-07-20T16:36:19Z</time>
      </trkpt>
      <trkpt lat="47.69683" lon="-0.46084">
        <ele>25</ele>
        <time>2020-07-20T16:36:26Z</time>
      </trkpt>
      <trkpt lat="47.69703" lon="-0.46046">
        <ele>24</ele>
        <time>2020-07-20T16:36:32Z</time>
      </trkpt>
      <trkpt lat="47.69724" lon="-0.46018">
        <ele>24</ele>
        <time>2020-07-20T16:36:37Z</time>
      </trkpt>
      <trkpt lat="47.69754" lon="-0.45992">
        <ele>24</ele>
        <time>2020-07-20T16:36:43Z</time>
      </trkpt>
      <trkpt lat="47.69839" lon="-0.45958">
        <ele>24</ele>
        <time>2020-07-20T16:36:59Z</time>
      </trkpt>
      <trkpt lat="47.69851" lon="-0.45951">
        <ele>24</ele>
        <time>2020-07-20T16:37:01Z</time>
      </trkpt>
      <trkpt lat="47.6987" lon="-0.45931">
        <ele>24</ele>
        <time>2020-07-20T16:37:05Z</time>
      </trkpt>
      <trkpt lat="47.69894" lon="-0.45888">
        <ele>24</ele>
        <time>2020-07-20T16:37:12Z</time>
      </trkpt>
      <trkpt lat="47.69904" lon="-0.45848">
        <ele>25</ele>
        <time>2020-07-20T16:37:17Z</time>
      </trkpt>
      <trkpt lat="47.69938" lon="-0.45639">
        <ele>25</ele>
        <time>2020-07-20T16:37:43Z</time>
      </trkpt>
      <trkpt lat="47.69964" lon="-0.45527">
        <ele>24</ele>
        <time>2020-07-20T16:37:57Z</time>
      </trkpt>
      <trkpt lat="47.69997" lon="-0.45282">
        <ele>23</ele>
        <time>2020-07-20T16:38:27Z</time>
      </trkpt>
      <trkpt lat="47.70046" lon="-0.44954">
        <ele>23</ele>
        <time>2020-07-20T16:39:07Z</time>
      </trkpt>
      <trkpt lat="47.70062" lon="-0.44964">
        <ele>23</ele>
        <time>2020-07-20T16:39:10Z</time>
      </trkpt>
      <trkpt lat="47.70087" lon="-0.44975">
        <ele>23</ele>
        <time>2020-07-20T16:39:15Z</time>
      </trkpt>
      <trkpt lat="47.70173" lon="-0.44997">
        <ele>22</ele>
        <time>2020-07-20T16:39:31Z</time>
      </trkpt>
      <trkpt lat="47.7019" lon="-0.45005">
        <ele>22</ele>
        <time>2020-07-20T16:39:34Z</time>
      </trkpt>
      <trkpt lat="47.70208" lon="-0.45023">
        <ele>22</ele>
        <time>2020-07-20T16:39:38Z</time>
      </trkpt>
      <trkpt lat="47.70269" lon="-0.45103">
        <ele>23</ele>
        <time>2020-07-20T16:39:52Z</time>
      </trkpt>
      <trkpt lat="47.70336" lon="-0.45208">
        <ele>23</ele>
        <time>2020-07-20T16:40:09Z</time>
      </trkpt>
      <trkpt lat="47.70354" lon="-0.45224">
        <ele>23</ele>
        <time>2020-07-20T16:40:13Z</time>
      </trkpt>
      <trkpt lat="47.70365" lon="-0.45229">
        <ele>23</ele>
        <time>2020-07-20T16:40:15Z</time>
      </trkpt>
      <trkpt lat="47.70373" lon="-0.45229">
        <ele>23</ele>
        <time>2020-07-20T16:40:17Z</time>
      </trkpt>
      <trkpt lat="47.7039" lon="-0.45221">
        <ele>22</ele>
        <time>2020-07-20T16:40:20Z</time>
      </trkpt>
      <trkpt lat="47.70435" lon="-0.45185">
        <ele>21</ele>
        <time>2020-07-20T16:40:29Z</time>
      </trkpt>
      <trkpt lat="47.70682" lon="-0.44965">
        <ele>18</ele>
        <time>2020-07-20T16:41:20Z</time>
      </trkpt>
      <trkpt lat="47.70696" lon="-0.44954">
        <ele>19</ele>
        <time>2020-07-20T16:41:23Z</time>
      </trkpt>
      <trkpt lat="47.70723" lon="-0.44939">
        <ele>19</ele>
        <time>2020-07-20T16:41:28Z</time>
      </trkpt>
      <trkpt lat="47.70777" lon="-0.44921">
        <ele>20</ele>
        <time>2020-07-20T16:41:38Z</time>
      </trkpt>
      <trkpt lat="47.71631" lon="-0.44685">
        <ele>20</ele>
        <time>2020-07-20T16:44:12Z</time>
      </trkpt>
      <trkpt lat="47.7172" lon="-0.44655">
        <ele>20</ele>
        <time>2020-07-20T16:44:29Z</time>
      </trkpt>
      <trkpt lat="47.71807" lon="-0.44607">
        <ele>20</ele>
        <time>2020-07-20T16:44:45Z</time>
      </trkpt>
      <trkpt lat="47.71845" lon="-0.44576">
        <ele>20</ele>
        <time>2020-07-20T16:44:53Z</time>
      </trkpt>
      <trkpt lat="47.71933" lon="-0.44487">
        <ele>20</ele>
        <time>2020-07-20T16:45:12Z</time>
      </trkpt>
      <trkpt lat="47.7195" lon="-0.44476">
        <ele>20</ele>
        <time>2020-07-20T16:45:15Z</time>
      </trkpt>
      <trkpt lat="47.71958" lon="-0.44475">
        <ele>20</ele>
        <time>2020-07-20T16:45:17Z</time>
      </trkpt>
      <trkpt lat="47.71974" lon="-0.44479">
        <ele>20</ele>
        <time>2020-07-20T16:45:20Z</time>
      </trkpt>
      <trkpt lat="47.71982" lon="-0.44484">
        <ele>21</ele>
        <time>2020-07-20T16:45:21Z</time>
      </trkpt>
      <trkpt lat="47.72229" lon="-0.44724">
        <ele>22</ele>
        <time>2020-07-20T16:46:14Z</time>
      </trkpt>
      <trkpt lat="47.7226" lon="-0.4475">
        <ele>22</ele>
        <time>2020-07-20T16:46:20Z</time>
      </trkpt>
      <trkpt lat="47.72416" lon="-0.44855">
        <ele>22</ele>
        <time>2020-07-20T16:46:50Z</time>
      </trkpt>
      <trkpt lat="47.72456" lon="-0.44876">
        <ele>21</ele>
        <time>2020-07-20T16:46:58Z</time>
      </trkpt>
      <trkpt lat="47.7253" lon="-0.44906">
        <ele>21</ele>
        <time>2020-07-20T16:47:12Z</time>
      </trkpt>
      <trkpt lat="47.7255" lon="-0.44908">
        <ele>22</ele>
        <time>2020-07-20T16:47:15Z</time>
      </trkpt>
      <trkpt lat="47.72676" lon="-0.44908">
        <ele>23</ele>
        <time>2020-07-20T16:47:38Z</time>
      </trkpt>
      <trkpt lat="47.72699" lon="-0.44906">
        <ele>23</ele>
        <time>2020-07-20T16:47:42Z</time>
      </trkpt>
      <trkpt lat="47.72766" lon="-0.44879">
        <ele>24</ele>
        <time>2020-07-20T16:47:54Z</time>
      </trkpt>
      <trkpt lat="47.72825" lon="-0.44866">
        <ele>23</ele>
        <time>2020-07-20T16:48:05Z</time>
      </trkpt>
      <trkpt lat="47.72848" lon="-0.44857">
        <ele>23</ele>
        <time>2020-07-20T16:48:09Z</time>
      </trkpt>
      <trkpt lat="47.72867" lon="-0.44843">
        <ele>23</ele>
        <time>2020-07-20T16:48:13Z</time>
      </trkpt>
      <trkpt lat="47.72911" lon="-0.44792">
        <ele>23</ele>
        <time>2020-07-20T16:48:23Z</time>
      </trkpt>
      <trkpt lat="47.72963" lon="-0.44722">
        <ele>23</ele>
        <time>2020-07-20T16:48:35Z</time>
      </trkpt>
      <trkpt lat="47.73006" lon="-0.44657">
        <ele>23</ele>
        <time>2020-07-20T16:48:46Z</time>
      </trkpt>
      <trkpt lat="47.73029" lon="-0.44631">
        <ele>22</ele>
        <time>2020-07-20T16:48:51Z</time>
      </trkpt>
      <trkpt lat="47.73159" lon="-0.44518">
        <ele>21</ele>
        <time>2020-07-20T16:49:18Z</time>
      </trkpt>
      <trkpt lat="47.73215" lon="-0.44464">
        <ele>22</ele>
        <time>2020-07-20T16:49:30Z</time>
      </trkpt>
      <trkpt lat="47.73266" lon="-0.44427">
        <ele>23</ele>
        <time>2020-07-20T16:49:40Z</time>
      </trkpt>
      <trkpt lat="47.73282" lon="-0.44412">
        <ele>23</ele>
        <time>2020-07-20T16:49:43Z</time>
      </trkpt>
      <trkpt lat="47.73353" lon="-0.44313">
        <ele>23</ele>
        <time>2020-07-20T16:50:01Z</time>
      </trkpt>
      <trkpt lat="47.73394" lon="-0.44252">
        <ele>22</ele>
        <time>2020-07-20T16:50:11Z</time>
      </trkpt>
      <trkpt lat="47.73426" lon="-0.44199">
        <ele>21</ele>
        <time>2020-07-20T16:50:19Z</time>
      </trkpt>
      <trkpt lat="47.73466" lon="-0.44149">
        <ele>21</ele>
        <time>2020-07-20T16:50:29Z</time>
      </trkpt>
      <trkpt lat="47.73504" lon="-0.44112">
        <ele>20</ele>
        <time>2020-07-20T16:50:37Z</time>
      </trkpt>
      <trkpt lat="47.73524" lon="-0.44102">
        <ele>20</ele>
        <time>2020-07-20T16:50:41Z</time>
      </trkpt>
      <trkpt lat="47.73582" lon="-0.44093">
        <ele>20</ele>
        <time>2020-07-20T16:50:51Z</time>
      </trkpt>
      <trkpt lat="47.73629" lon="-0.44076">
        <ele>21</ele>
        <time>2020-07-20T16:50:59Z</time>
      </trkpt>
      <trkpt lat="47.7366" lon="-0.44057">
        <ele>22</ele>
        <time>2020-07-20T16:51:05Z</time>
      </trkpt>
      <trkpt lat="47.73694" lon="-0.44029">
        <ele>22</ele>
        <time>2020-07-20T16:51:12Z</time>
      </trkpt>
      <trkpt lat="47.73777" lon="-0.43949">
        <ele>22</ele>
        <time>2020-07-20T16:51:30Z</time>
      </trkpt>
      <trkpt lat="47.73824" lon="-0.439">
        <ele>22</ele>
        <time>2020-07-20T16:51:40Z</time>
      </trkpt>
      <trkpt lat="47.73897" lon="-0.43814">
        <ele>23</ele>
        <time>2020-07-20T16:51:57Z</time>
      </trkpt>
      <trkpt lat="47.73906" lon="-0.43806">
        <ele>23</ele>
        <time>2020-07-20T16:51:59Z</time>
      </trkpt>
      <trkpt lat="47.73927" lon="-0.43794">
        <ele>23</ele>
        <time>2020-07-20T16:52:03Z</time>
      </trkpt>
      <trkpt lat="47.74047" lon="-0.43757">
        <ele>24</ele>
        <time>2020-07-20T16:52:24Z</time>
      </trkpt>
      <trkpt lat="47.74089" lon="-0.4374">
        <ele>25</ele>
        <time>2020-07-20T16:52:32Z</time>
      </trkpt>
      <trkpt lat="47.74224" lon="-0.43659">
        <ele>23</ele>
        <time>2020-07-20T16:52:58Z</time>
      </trkpt>
      <trkpt lat="47.74257" lon="-0.43642">
        <ele>23</ele>
        <time>2020-07-20T16:53:04Z</time>
      </trkpt>
      <trkpt lat="47.74295" lon="-0.43626">
        <ele>22</ele>
        <time>2020-07-20T16:53:11Z</time>
      </trkpt>
      <trkpt lat="47.74359" lon="-0.43607">
        <ele>21</ele>
        <time>2020-07-20T16:53:23Z</time>
      </trkpt>
      <trkpt lat="47.74429" lon="-0.43591">
        <ele>22</ele>
        <time>2020-07-20T16:53:36Z</time>
      </trkpt>
      <trkpt lat="47.74528" lon="-0.43562">
        <ele>23</ele>
        <time>2020-07-20T16:53:53Z</time>
      </trkpt>
      <trkpt lat="47.74571" lon="-0.43544">
        <ele>23</ele>
        <time>2020-07-20T16:54:01Z</time>
      </trkpt>
      <trkpt lat="47.74613" lon="-0.4352">
        <ele>24</ele>
        <time>2020-07-20T16:54:09Z</time>
      </trkpt>
      <trkpt lat="47.74669" lon="-0.43477">
        <ele>26</ele>
        <time>2020-07-20T16:54:21Z</time>
      </trkpt>
      <trkpt lat="47.74703" lon="-0.43442">
        <ele>25</ele>
        <time>2020-07-20T16:54:28Z</time>
      </trkpt>
      <trkpt lat="47.74767" lon="-0.4337">
        <ele>24</ele>
        <time>2020-07-20T16:54:42Z</time>
      </trkpt>
      <trkpt lat="47.7481" lon="-0.43309">
        <ele>24</ele>
        <time>2020-07-20T16:54:53Z</time>
      </trkpt>
      <trkpt lat="47.74888" lon="-0.43183">
        <ele>24</ele>
        <time>2020-07-20T16:55:13Z</time>
      </trkpt>
      <trkpt lat="47.74643" lon="-0.42504">
        <ele>23</ele>
        <time>2020-07-20T16:56:46Z</time>
      </trkpt>
      <trkpt lat="47.74621" lon="-0.42436">
        <ele>22</ele>
        <time>2020-07-20T16:56:55Z</time>
      </trkpt>
      <trkpt lat="47.74614" lon="-0.42403">
        <ele>22</ele>
        <time>2020-07-20T16:56:59Z</time>
      </trkpt>
      <trkpt lat="47.7461" lon="-0.42346">
        <ele>21</ele>
        <time>2020-07-20T16:57:06Z</time>
      </trkpt>
      <trkpt lat="47.74612" lon="-0.42118">
        <ele>21</ele>
        <time>2020-07-20T16:57:33Z</time>
      </trkpt>
      <trkpt lat="47.74611" lon="-0.41707">
        <ele>24</ele>
        <time>2020-07-20T16:58:22Z</time>
      </trkpt>
      <trkpt lat="47.74604" lon="-0.41656">
        <ele>25</ele>
        <time>2020-07-20T16:58:28Z</time>
      </trkpt>
      <trkpt lat="47.74604" lon="-0.41635">
        <ele>25</ele>
        <time>2020-07-20T16:58:31Z</time>
      </trkpt>
      <trkpt lat="47.74607" lon="-0.4163">
        <ele>25</ele>
        <time>2020-07-20T16:58:32Z</time>
      </trkpt>
      <trkpt lat="47.74617" lon="-0.41623">
        <ele>25</ele>
        <time>2020-07-20T16:58:34Z</time>
      </trkpt>
      <trkpt lat="47.74648" lon="-0.41612">
        <ele>25</ele>
        <time>2020-07-20T16:58:39Z</time>
      </trkpt>
      <trkpt lat="47.74746" lon="-0.41556">
        <ele>25</ele>
        <time>2020-07-20T16:58:58Z</time>
      </trkpt>
      <trkpt lat="47.74775" lon="-0.4153">
        <ele>25</ele>
        <time>2020-07-20T16:59:04Z</time>
      </trkpt>
      <trkpt lat="47.74795" lon="-0.41496">
        <ele>25</ele>
        <time>2020-07-20T16:59:09Z</time>
      </trkpt>
      <trkpt lat="47.74981" lon="-0.40916">
        <ele>33</ele>
        <time>2020-07-20T17:00:26Z</time>
      </trkpt>
      <trkpt lat="47.75008" lon="-0.4082">
        <ele>32</ele>
        <time>2020-07-20T17:00:39Z</time>
      </trkpt>
      <trkpt lat="47.75125" lon="-0.40346">
        <ele>34</ele>
        <time>2020-07-20T17:01:39Z</time>
      </trkpt>
      <trkpt lat="47.75149" lon="-0.40262">
        <ele>32</ele>
        <time>2020-07-20T17:01:50Z</time>
      </trkpt>
      <trkpt lat="47.75231" lon="-0.40064">
        <ele>24</ele>
        <time>2020-07-20T17:02:18Z</time>
      </trkpt>
      <trkpt lat="47.75441" lon="-0.39572">
        <ele>25</ele>
        <time>2020-07-20T17:03:27Z</time>
      </trkpt>
      <trkpt lat="47.75489" lon="-0.39423">
        <ele>25</ele>
        <time>2020-07-20T17:03:47Z</time>
      </trkpt>
      <trkpt lat="47.7552" lon="-0.39312">
        <ele>26</ele>
        <time>2020-07-20T17:04:02Z</time>
      </trkpt>
      <trkpt lat="47.75552" lon="-0.39158">
        <ele>28</ele>
        <time>2020-07-20T17:04:21Z</time>
      </trkpt>
      <trkpt lat="47.75556" lon="-0.39123">
        <ele>28</ele>
        <time>2020-07-20T17:04:25Z</time>
      </trkpt>
      <trkpt lat="47.75557" lon="-0.39055">
        <ele>29</ele>
        <time>2020-07-20T17:04:33Z</time>
      </trkpt>
      <trkpt lat="47.75563" lon="-0.39006">
        <ele>29</ele>
        <time>2020-07-20T17:04:39Z</time>
      </trkpt>
      <trkpt lat="47.75603" lon="-0.38879">
        <ele>30</ele>
        <time>2020-07-20T17:04:56Z</time>
      </trkpt>
      <trkpt lat="47.7572" lon="-0.38259">
        <ele>33</ele>
        <time>2020-07-20T17:06:13Z</time>
      </trkpt>
      <trkpt lat="47.75734" lon="-0.38169">
        <ele>33</ele>
        <time>2020-07-20T17:06:24Z</time>
      </trkpt>
      <trkpt lat="47.75738" lon="-0.38109">
        <ele>32</ele>
        <time>2020-07-20T17:06:31Z</time>
      </trkpt>
      <trkpt lat="47.75737" lon="-0.37781">
        <ele>29</ele>
        <time>2020-07-20T17:07:11Z</time>
      </trkpt>
      <trkpt lat="47.75724" lon="-0.37599">
        <ele>25</ele>
        <time>2020-07-20T17:07:32Z</time>
      </trkpt>
      <trkpt lat="47.7572" lon="-0.37446">
        <ele>25</ele>
        <time>2020-07-20T17:07:51Z</time>
      </trkpt>
      <trkpt lat="47.7572" lon="-0.37278">
        <ele>24</ele>
        <time>2020-07-20T17:08:11Z</time>
      </trkpt>
      <trkpt lat="47.75728" lon="-0.37275">
        <ele>24</ele>
        <time>2020-07-20T17:08:12Z</time>
      </trkpt>
      <trkpt lat="47.7608" lon="-0.37063">
        <ele>23</ele>
        <time>2020-07-20T17:09:20Z</time>
      </trkpt>
      <trkpt lat="47.76111" lon="-0.37047">
        <ele>23</ele>
        <time>2020-07-20T17:09:26Z</time>
      </trkpt>
      <trkpt lat="47.76137" lon="-0.37037">
        <ele>23</ele>
        <time>2020-07-20T17:09:31Z</time>
      </trkpt>
      <trkpt lat="47.76157" lon="-0.37032">
        <ele>23</ele>
        <time>2020-07-20T17:09:34Z</time>
      </trkpt>
      <trkpt lat="47.76192" lon="-0.37028">
        <ele>23</ele>
        <time>2020-07-20T17:09:40Z</time>
      </trkpt>
      <trkpt lat="47.76343" lon="-0.37037">
        <ele>24</ele>
        <time>2020-07-20T17:10:07Z</time>
      </trkpt>
      <trkpt lat="47.76382" lon="-0.37041">
        <ele>24</ele>
        <time>2020-07-20T17:10:14Z</time>
      </trkpt>
      <trkpt lat="47.76403" lon="-0.37046">
        <ele>25</ele>
        <time>2020-07-20T17:10:18Z</time>
      </trkpt>
      <trkpt lat="47.76446" lon="-0.37061">
        <ele>25</ele>
        <time>2020-07-20T17:10:26Z</time>
      </trkpt>
      <trkpt lat="47.76638" lon="-0.37156">
        <ele>22</ele>
        <time>2020-07-20T17:11:02Z</time>
      </trkpt>
      <trkpt lat="47.7668" lon="-0.37172">
        <ele>21</ele>
        <time>2020-07-20T17:11:10Z</time>
      </trkpt>
      <trkpt lat="47.76798" lon="-0.37201">
        <ele>23</ele>
        <time>2020-07-20T17:11:31Z</time>
      </trkpt>
      <trkpt lat="47.76841" lon="-0.37206">
        <ele>23</ele>
        <time>2020-07-20T17:11:39Z</time>
      </trkpt>
      <trkpt lat="47.76894" lon="-0.37192">
        <ele>23</ele>
        <time>2020-07-20T17:11:48Z</time>
      </trkpt>
      <trkpt lat="47.76961" lon="-0.37165">
        <ele>24</ele>
        <time>2020-07-20T17:12:00Z</time>
      </trkpt>
      <trkpt lat="47.76995" lon="-0.37157">
        <ele>24</ele>
        <time>2020-07-20T17:12:07Z</time>
      </trkpt>
      <trkpt lat="47.77151" lon="-0.37135">
        <ele>27</ele>
        <time>2020-07-20T17:12:34Z</time>
      </trkpt>
      <trkpt lat="47.77242" lon="-0.37125">
        <ele>26</ele>
        <time>2020-07-20T17:12:51Z</time>
      </trkpt>
      <trkpt lat="47.77335" lon="-0.37124">
        <ele>26</ele>
        <time>2020-07-20T17:13:07Z</time>
      </trkpt>
      <trkpt lat="47.7753" lon="-0.37141">
        <ele>28</ele>
        <time>2020-07-20T17:13:42Z</time>
      </trkpt>
      <trkpt lat="47.77557" lon="-0.37138">
        <ele>29</ele>
        <time>2020-07-20T17:13:47Z</time>
      </trkpt>
      <trkpt lat="47.77572" lon="-0.37211">
        <ele>27</ele>
        <time>2020-07-20T17:13:56Z</time>
      </trkpt>
      <trkpt lat="47.77582" lon="-0.37244">
        <ele>25</ele>
        <time>2020-07-20T17:14:00Z</time>
      </trkpt>
      <trkpt lat="47.77589" lon="-0.37259">
        <ele>25</ele>
        <time>2020-07-20T17:14:02Z</time>
      </trkpt>
      <trkpt lat="47.77615" lon="-0.37293">
        <ele>24</ele>
        <time>2020-07-20T17:14:09Z</time>
      </trkpt>
      <trkpt lat="47.77651" lon="-0.37314">
        <ele>24</ele>
        <time>2020-07-20T17:14:15Z</time>
      </trkpt>
      <trkpt lat="47.77711" lon="-0.37333">
        <ele>24</ele>
        <time>2020-07-20T17:14:26Z</time>
      </trkpt>
      <trkpt lat="47.77784" lon="-0.37346">
        <ele>24</ele>
        <time>2020-07-20T17:14:39Z</time>
      </trkpt>
      <trkpt lat="47.77807" lon="-0.37348">
        <ele>25</ele>
        <time>2020-07-20T17:14:44Z</time>
      </trkpt>
      <trkpt lat="47.77832" lon="-0.37347">
        <ele>25</ele>
        <time>2020-07-20T17:14:48Z</time>
      </trkpt>
      <trkpt lat="47.77994" lon="-0.37326">
        <ele>26</ele>
        <time>2020-07-20T17:15:17Z</time>
      </trkpt>
      <trkpt lat="47.78027" lon="-0.37328">
        <ele>27</ele>
        <time>2020-07-20T17:15:23Z</time>
      </trkpt>
      <trkpt lat="47.78149" lon="-0.37356">
        <ele>28</ele>
        <time>2020-07-20T17:15:45Z</time>
      </trkpt>
      <trkpt lat="47.78384" lon="-0.37417">
        <ele>28</ele>
        <time>2020-07-20T17:16:27Z</time>
      </trkpt>
      <trkpt lat="47.7841" lon="-0.37429">
        <ele>28</ele>
        <time>2020-07-20T17:16:32Z</time>
      </trkpt>
      <trkpt lat="47.78448" lon="-0.3745">
        <ele>29</ele>
        <time>2020-07-20T17:16:39Z</time>
      </trkpt>
      <trkpt lat="47.7849" lon="-0.37477">
        <ele>29</ele>
        <time>2020-07-20T17:16:47Z</time>
      </trkpt>
      <trkpt lat="47.78546" lon="-0.37506">
        <ele>30</ele>
        <time>2020-07-20T17:16:58Z</time>
      </trkpt>
      <trkpt lat="47.78582" lon="-0.37514">
        <ele>30</ele>
        <time>2020-07-20T17:17:04Z</time>
      </trkpt>
      <trkpt lat="47.78652" lon="-0.37523">
        <ele>30</ele>
        <time>2020-07-20T17:17:17Z</time>
      </trkpt>
      <trkpt lat="47.78682" lon="-0.37536">
        <ele>30</ele>
        <time>2020-07-20T17:17:23Z</time>
      </trkpt>
      <trkpt lat="47.78741" lon="-0.37577">
        <ele>28</ele>
        <time>2020-07-20T17:17:34Z</time>
      </trkpt>
      <trkpt lat="47.78815" lon="-0.37668">
        <ele>29</ele>
        <time>2020-07-20T17:17:51Z</time>
      </trkpt>
      <trkpt lat="47.78836" lon="-0.37684">
        <ele>29</ele>
        <time>2020-07-20T17:17:55Z</time>
      </trkpt>
      <trkpt lat="47.78884" lon="-0.37714">
        <ele>28</ele>
        <time>2020-07-20T17:18:05Z</time>
      </trkpt>
      <trkpt lat="47.78928" lon="-0.37739">
        <ele>27</ele>
        <time>2020-07-20T17:18:13Z</time>
      </trkpt>
      <trkpt lat="47.79053" lon="-0.37802">
        <ele>26</ele>
        <time>2020-07-20T17:18:37Z</time>
      </trkpt>
      <trkpt lat="47.79431" lon="-0.37985">
        <ele>29</ele>
        <time>2020-07-20T17:19:47Z</time>
      </trkpt>
      <trkpt lat="47.79449" lon="-0.37991">
        <ele>29</ele>
        <time>2020-07-20T17:19:51Z</time>
      </trkpt>
      <trkpt lat="47.7946" lon="-0.37985">
        <ele>29</ele>
        <time>2020-07-20T17:19:53Z</time>
      </trkpt>
      <trkpt lat="47.79464" lon="-0.37978">
        <ele>29</ele>
        <time>2020-07-20T17:19:54Z</time>
      </trkpt>
      <trkpt lat="47.7955" lon="-0.37698">
        <ele>35</ele>
        <time>2020-07-20T17:20:31Z</time>
      </trkpt>
      <trkpt lat="47.79638" lon="-0.37399">
        <ele>40</ele>
        <time>2020-07-20T17:21:10Z</time>
      </trkpt>
      <trkpt lat="47.79659" lon="-0.37343">
        <ele>40</ele>
        <time>2020-07-20T17:21:17Z</time>
      </trkpt>
      <trkpt lat="47.7967" lon="-0.37321">
        <ele>40</ele>
        <time>2020-07-20T17:21:20Z</time>
      </trkpt>
      <trkpt lat="47.79697" lon="-0.37281">
        <ele>40</ele>
        <time>2020-07-20T17:21:27Z</time>
      </trkpt>
      <trkpt lat="47.79727" lon="-0.37254">
        <ele>41</ele>
        <time>2020-07-20T17:21:33Z</time>
      </trkpt>
      <trkpt lat="47.79753" lon="-0.37237">
        <ele>41</ele>
        <time>2020-07-20T17:21:39Z</time>
      </trkpt>
      <trkpt lat="47.798" lon="-0.37224">
        <ele>42</ele>
        <time>2020-07-20T17:21:47Z</time>
      </trkpt>
      <trkpt lat="47.79852" lon="-0.37221">
        <ele>43</ele>
        <time>2020-07-20T17:21:56Z</time>
      </trkpt>
      <trkpt lat="47.79865" lon="-0.37218">
        <ele>42</ele>
        <time>2020-07-20T17:21:59Z</time>
      </trkpt>
      <trkpt lat="47.79894" lon="-0.37202">
        <ele>42</ele>
        <time>2020-07-20T17:22:04Z</time>
      </trkpt>
      <trkpt lat="47.79905" lon="-0.37192">
        <ele>41</ele>
        <time>2020-07-20T17:22:06Z</time>
      </trkpt>
      <trkpt lat="47.79916" lon="-0.37179">
        <ele>41</ele>
        <time>2020-07-20T17:22:09Z</time>
      </trkpt>
      <trkpt lat="47.79943" lon="-0.37135">
        <ele>42</ele>
        <time>2020-07-20T17:22:16Z</time>
      </trkpt>
      <trkpt lat="47.80141" lon="-0.36767">
        <ele>46</ele>
        <time>2020-07-20T17:23:12Z</time>
      </trkpt>
      <trkpt lat="47.80157" lon="-0.36743">
        <ele>47</ele>
        <time>2020-07-20T17:23:16Z</time>
      </trkpt>
      <trkpt lat="47.80201" lon="-0.36693">
        <ele>47</ele>
        <time>2020-07-20T17:23:26Z</time>
      </trkpt>
      <trkpt lat="47.8121" lon="-0.35725">
        <ele>58</ele>
        <time>2020-07-20T17:27:00Z</time>
      </trkpt>
      <trkpt lat="47.81228" lon="-0.35706">
        <ele>57</ele>
        <time>2020-07-20T17:27:04Z</time>
      </trkpt>
      <trkpt lat="47.81237" lon="-0.35692">
        <ele>57</ele>
        <time>2020-07-20T17:27:06Z</time>
      </trkpt>
      <trkpt lat="47.81256" lon="-0.35655">
        <ele>56</ele>
        <time>2020-07-20T17:27:12Z</time>
      </trkpt>
      <trkpt lat="47.8127" lon="-0.35614">
        <ele>55</ele>
        <time>2020-07-20T17:27:17Z</time>
      </trkpt>
      <trkpt lat="47.81311" lon="-0.35442">
        <ele>56</ele>
        <time>2020-07-20T17:27:39Z</time>
      </trkpt>
      <trkpt lat="47.81358" lon="-0.35274">
        <ele>57</ele>
        <time>2020-07-20T17:28:01Z</time>
      </trkpt>
      <trkpt lat="47.81367" lon="-0.35231">
        <ele>57</ele>
        <time>2020-07-20T17:28:06Z</time>
      </trkpt>
      <trkpt lat="47.81385" lon="-0.35114">
        <ele>56</ele>
        <time>2020-07-20T17:28:20Z</time>
      </trkpt>
      <trkpt lat="47.81438" lon="-0.34694">
        <ele>55</ele>
        <time>2020-07-20T17:29:12Z</time>
      </trkpt>
      <trkpt lat="47.81471" lon="-0.3446">
        <ele>52</ele>
        <time>2020-07-20T17:29:40Z</time>
      </trkpt>
      <trkpt lat="47.81484" lon="-0.3439">
        <ele>50</ele>
        <time>2020-07-20T17:29:49Z</time>
      </trkpt>
      <trkpt lat="47.81498" lon="-0.34332">
        <ele>49</ele>
        <time>2020-07-20T17:29:56Z</time>
      </trkpt>
      <trkpt lat="47.81524" lon="-0.34245">
        <ele>49</ele>
        <time>2020-07-20T17:30:08Z</time>
      </trkpt>
      <trkpt lat="47.81548" lon="-0.34184">
        <ele>48</ele>
        <time>2020-07-20T17:30:16Z</time>
      </trkpt>
      <trkpt lat="47.81573" lon="-0.34132">
        <ele>47</ele>
        <time>2020-07-20T17:30:24Z</time>
      </trkpt>
      <trkpt lat="47.81603" lon="-0.34079">
        <ele>47</ele>
        <time>2020-07-20T17:30:32Z</time>
      </trkpt>
      <trkpt lat="47.81638" lon="-0.34028">
        <ele>48</ele>
        <time>2020-07-20T17:30:41Z</time>
      </trkpt>
      <trkpt lat="47.82067" lon="-0.33463">
        <ele>41</ele>
        <time>2020-07-20T17:32:23Z</time>
      </trkpt>
      <trkpt lat="47.8215" lon="-0.3335">
        <ele>37</ele>
        <time>2020-07-20T17:32:43Z</time>
      </trkpt>
      <trkpt lat="47.82216" lon="-0.33278">
        <ele>37</ele>
        <time>2020-07-20T17:32:57Z</time>
      </trkpt>
      <trkpt lat="47.82617" lon="-0.32878">
        <ele>36</ele>
        <time>2020-07-20T17:34:23Z</time>
      </trkpt>
      <trkpt lat="47.82649" lon="-0.32853">
        <ele>36</ele>
        <time>2020-07-20T17:34:29Z</time>
      </trkpt>
      <trkpt lat="47.827" lon="-0.32829">
        <ele>38</ele>
        <time>2020-07-20T17:34:39Z</time>
      </trkpt>
      <trkpt lat="47.82703" lon="-0.32815">
        <ele>39</ele>
        <time>2020-07-20T17:34:41Z</time>
      </trkpt>
      <trkpt lat="47.82708" lon="-0.32811">
        <ele>39</ele>
        <time>2020-07-20T17:34:42Z</time>
      </trkpt>
      <trkpt lat="47.82715" lon="-0.32812">
        <ele>40</ele>
        <time>2020-07-20T17:34:43Z</time>
      </trkpt>
      <trkpt lat="47.82719" lon="-0.3282">
        <ele>40</ele>
        <time>2020-07-20T17:34:44Z</time>
      </trkpt>
      <trkpt lat="47.8272" lon="-0.32829">
        <ele>39</ele>
        <time>2020-07-20T17:34:45Z</time>
      </trkpt>
      <trkpt lat="47.82732" lon="-0.3284">
        <ele>40</ele>
        <time>2020-07-20T17:34:48Z</time>
      </trkpt>
      <trkpt lat="47.82764" lon="-0.32856">
        <ele>40</ele>
        <time>2020-07-20T17:34:54Z</time>
      </trkpt>
      <trkpt lat="47.82777" lon="-0.32857">
        <ele>40</ele>
        <time>2020-07-20T17:34:56Z</time>
      </trkpt>
      <trkpt lat="47.8281" lon="-0.32852">
        <ele>40</ele>
        <time>2020-07-20T17:35:02Z</time>
      </trkpt>
      <trkpt lat="47.82866" lon="-0.32818">
        <ele>40</ele>
        <time>2020-07-20T17:35:13Z</time>
      </trkpt>
      <trkpt lat="47.82937" lon="-0.32754">
        <ele>39</ele>
        <time>2020-07-20T17:35:27Z</time>
      </trkpt>
      <trkpt lat="47.83075" lon="-0.326">
        <ele>40</ele>
        <time>2020-07-20T17:35:58Z</time>
      </trkpt>
      <trkpt lat="47.83104" lon="-0.32538">
        <ele>42</ele>
        <time>2020-07-20T17:36:07Z</time>
      </trkpt>
      <trkpt lat="47.8312" lon="-0.32521">
        <ele>42</ele>
        <time>2020-07-20T17:36:11Z</time>
      </trkpt>
      <trkpt lat="47.83138" lon="-0.32513">
        <ele>42</ele>
        <time>2020-07-20T17:36:14Z</time>
      </trkpt>
      <trkpt lat="47.83309" lon="-0.32493">
        <ele>33</ele>
        <time>2020-07-20T17:36:45Z</time>
      </trkpt>
      <trkpt lat="47.83423" lon="-0.32443">
        <ele>38</ele>
        <time>2020-07-20T17:37:06Z</time>
      </trkpt>
      <trkpt lat="47.83499" lon="-0.32415">
        <ele>42</ele>
        <time>2020-07-20T17:37:20Z</time>
      </trkpt>
      <trkpt lat="47.83534" lon="-0.32395">
        <ele>43</ele>
        <time>2020-07-20T17:37:26Z</time>
      </trkpt>
      <trkpt lat="47.83593" lon="-0.32341">
        <ele>45</ele>
        <time>2020-07-20T17:37:39Z</time>
      </trkpt>
      <trkpt lat="47.83615" lon="-0.32385">
        <ele>44</ele>
        <time>2020-07-20T17:37:45Z</time>
      </trkpt>
      <trkpt lat="47.83725" lon="-0.32545">
        <ele>38</ele>
        <time>2020-07-20T17:38:12Z</time>
      </trkpt>
      <trkpt lat="47.8374" lon="-0.32563">
        <ele>36</ele>
        <time>2020-07-20T17:38:16Z</time>
      </trkpt>
      <trkpt lat="47.8375" lon="-0.32563">
        <ele>36</ele>
        <time>2020-07-20T17:38:18Z</time>
      </trkpt>
      <trkpt lat="47.8378" lon="-0.32604">
        <ele>34</ele>
        <time>2020-07-20T17:38:25Z</time>
      </trkpt>
      <trkpt lat="47.83836" lon="-0.32706">
        <ele>30</ele>
        <time>2020-07-20T17:38:41Z</time>
      </trkpt>
      <trkpt lat="47.83873" lon="-0.32803">
        <ele>28</ele>
        <time>2020-07-20T17:38:54Z</time>
      </trkpt>
      <trkpt lat="47.83878" lon="-0.32794">
        <ele>28</ele>
        <time>2020-07-20T17:38:55Z</time>
      </trkpt>
      <trkpt lat="47.83882" lon="-0.32793">
        <ele>28</ele>
        <time>2020-07-20T17:38:56Z</time>
      </trkpt>
      <trkpt lat="47.83889" lon="-0.32799">
        <ele>28</ele>
        <time>2020-07-20T17:38:58Z</time>
      </trkpt>
      <trkpt lat="47.8389" lon="-0.32807">
        <ele>28</ele>
        <time>2020-07-20T17:38:59Z</time>
      </trkpt>
      <trkpt lat="47.83887" lon="-0.32815">
        <ele>27</ele>
        <time>2020-07-20T17:39:00Z</time>
      </trkpt>
      <trkpt lat="47.83882" lon="-0.32818">
        <ele>27</ele>
        <time>2020-07-20T17:39:01Z</time>
      </trkpt>
      <trkpt lat="47.83882" lon="-0.32883">
        <ele>27</ele>
        <time>2020-07-20T17:39:08Z</time>
      </trkpt>
      <trkpt lat="47.8388" lon="-0.32895">
        <ele>27</ele>
        <time>2020-07-20T17:39:10Z</time>
      </trkpt>
      <trkpt lat="47.83878" lon="-0.329">
        <ele>27</ele>
        <time>2020-07-20T17:39:11Z</time>
      </trkpt>
      <trkpt lat="47.83855" lon="-0.32927">
        <ele>27</ele>
        <time>2020-07-20T17:39:16Z</time>
      </trkpt>
      <trkpt lat="47.83846" lon="-0.32946">
        <ele>27</ele>
        <time>2020-07-20T17:39:18Z</time>
      </trkpt>
      <trkpt lat="47.83844" lon="-0.32967">
        <ele>28</ele>
        <time>2020-07-20T17:39:21Z</time>
      </trkpt>
      <trkpt lat="47.83851" lon="-0.33003">
        <ele>29</ele>
        <time>2020-07-20T17:39:26Z</time>
      </trkpt>
      <trkpt lat="47.83863" lon="-0.33038">
        <ele>28</ele>
        <time>2020-07-20T17:39:30Z</time>
      </trkpt>
      <trkpt lat="47.83878" lon="-0.33062">
        <ele>28</ele>
        <time>2020-07-20T17:39:34Z</time>
      </trkpt>
      <trkpt lat="47.83903" lon="-0.33092">
        <ele>28</ele>
        <time>2020-07-20T17:39:40Z</time>
      </trkpt>
      <trkpt lat="47.83954" lon="-0.33134">
        <ele>27</ele>
        <time>2020-07-20T17:39:50Z</time>
      </trkpt>
      <trkpt lat="47.83959" lon="-0.33145">
        <ele>27</ele>
        <time>2020-07-20T17:39:52Z</time>
      </trkpt>
      <trkpt lat="47.83963" lon="-0.33175">
        <ele>28</ele>
        <time>2020-07-20T17:39:55Z</time>
      </trkpt>
      <trkpt lat="47.83966" lon="-0.33261">
        <ele>30</ele>
        <time>2020-07-20T17:40:06Z</time>
      </trkpt>
      <trkpt lat="47.83962" lon="-0.33298">
        <ele>31</ele>
        <time>2020-07-20T17:40:10Z</time>
      </trkpt>
      <trkpt lat="47.8401" lon="-0.33325">
        <ele>30</ele>
        <time>2020-07-20T17:40:19Z</time>
      </trkpt>
      <trkpt lat="47.84064" lon="-0.33379">
        <ele>32</ele>
        <time>2020-07-20T17:40:31Z</time>
      </trkpt>
      <trkpt lat="47.84074" lon="-0.33366">
        <ele>31</ele>
        <time>2020-07-20T17:40:33Z</time>
      </trkpt>
      <trkpt lat="47.84082" lon="-0.3335">
        <ele>30</ele>
        <time>2020-07-20T17:40:36Z</time>
      </trkpt>
      <trkpt lat="47.84132" lon="-0.33229">
        <ele>28</ele>
        <time>2020-07-20T17:40:53Z</time>
      </trkpt>
      <trkpt lat="47.84151" lon="-0.3319">
        <ele>28</ele>
        <time>2020-07-20T17:40:58Z</time>
      </trkpt>
      <trkpt lat="47.84194" lon="-0.33089">
        <ele>28</ele>
        <time>2020-07-20T17:41:13Z</time>
      </trkpt>
      <trkpt lat="47.84203" lon="-0.33076">
        <ele>28</ele>
        <time>2020-07-20T17:41:15Z</time>
      </trkpt>
      <trkpt lat="47.84229" lon="-0.33056">
        <ele>29</ele>
        <time>2020-07-20T17:41:20Z</time>
      </trkpt>
      <trkpt lat="47.84241" lon="-0.33036">
        <ele>30</ele>
        <time>2020-07-20T17:41:23Z</time>
      </trkpt>
      <trkpt lat="47.84249" lon="-0.33003">
        <ele>30</ele>
        <time>2020-07-20T17:41:27Z</time>
      </trkpt>
      <trkpt lat="47.84254" lon="-0.32959">
        <ele>30</ele>
        <time>2020-07-20T17:41:33Z</time>
      </trkpt>
      <trkpt lat="47.84262" lon="-0.32935">
        <ele>31</ele>
        <time>2020-07-20T17:41:36Z</time>
      </trkpt>
      <trkpt lat="47.84449" lon="-0.32504">
        <ele>39</ele>
        <time>2020-07-20T17:42:37Z</time>
      </trkpt>
      <trkpt lat="47.84486" lon="-0.32403">
        <ele>39</ele>
        <time>2020-07-20T17:42:51Z</time>
      </trkpt>
      <trkpt lat="47.84497" lon="-0.32379">
        <ele>39</ele>
        <time>2020-07-20T17:42:55Z</time>
      </trkpt>
      <trkpt lat="47.84541" lon="-0.32301">
        <ele>40</ele>
        <time>2020-07-20T17:43:07Z</time>
      </trkpt>
      <trkpt lat="47.84571" lon="-0.3226">
        <ele>38</ele>
        <time>2020-07-20T17:43:14Z</time>
      </trkpt>
      <trkpt lat="47.84619" lon="-0.32183">
        <ele>37</ele>
        <time>2020-07-20T17:43:26Z</time>
      </trkpt>
      <trkpt lat="47.84658" lon="-0.3209">
        <ele>36</ele>
        <time>2020-07-20T17:43:40Z</time>
      </trkpt>
      <trkpt lat="47.84712" lon="-0.31996">
        <ele>36</ele>
        <time>2020-07-20T17:43:54Z</time>
      </trkpt>
      <trkpt lat="47.84764" lon="-0.31869">
        <ele>29</ele>
        <time>2020-07-20T17:44:12Z</time>
      </trkpt>
      <trkpt lat="47.84789" lon="-0.31817">
        <ele>30</ele>
        <time>2020-07-20T17:44:20Z</time>
      </trkpt>
      <trkpt lat="47.84808" lon="-0.31765">
        <ele>32</ele>
        <time>2020-07-20T17:44:27Z</time>
      </trkpt>
      <trkpt lat="47.84938" lon="-0.31459">
        <ele>37</ele>
        <time>2020-07-20T17:45:10Z</time>
      </trkpt>
      <trkpt lat="47.84964" lon="-0.31379">
        <ele>38</ele>
        <time>2020-07-20T17:45:21Z</time>
      </trkpt>
      <trkpt lat="47.85015" lon="-0.31193">
        <ele>36</ele>
        <time>2020-07-20T17:45:45Z</time>
      </trkpt>
      <trkpt lat="47.85042" lon="-0.31129">
        <ele>37</ele>
        <time>2020-07-20T17:45:54Z</time>
      </trkpt>
      <trkpt lat="47.85072" lon="-0.3107">
        <ele>36</ele>
        <time>2020-07-20T17:46:03Z</time>
      </trkpt>
      <trkpt lat="47.85115" lon="-0.30994">
        <ele>33</ele>
        <time>2020-07-20T17:46:14Z</time>
      </trkpt>
      <trkpt lat="47.85159" lon="-0.30926">
        <ele>30</ele>
        <time>2020-07-20T17:46:26Z</time>
      </trkpt>
      <trkpt lat="47.85197" lon="-0.3088">
        <ele>31</ele>
        <time>2020-07-20T17:46:34Z</time>
      </trkpt>
      <trkpt lat="47.85233" lon="-0.30845">
        <ele>33</ele>
        <time>2020-07-20T17:46:42Z</time>
      </trkpt>
      <trkpt lat="47.85282" lon="-0.30789">
        <ele>35</ele>
        <time>2020-07-20T17:46:53Z</time>
      </trkpt>
      <trkpt lat="47.85314" lon="-0.30738">
        <ele>34</ele>
        <time>2020-07-20T17:47:01Z</time>
      </trkpt>
      <trkpt lat="47.85343" lon="-0.30685">
        <ele>32</ele>
        <time>2020-07-20T17:47:10Z</time>
      </trkpt>
      <trkpt lat="47.85358" lon="-0.30639">
        <ele>31</ele>
        <time>2020-07-20T17:47:16Z</time>
      </trkpt>
      <trkpt lat="47.85371" lon="-0.30538">
        <ele>31</ele>
        <time>2020-07-20T17:47:28Z</time>
      </trkpt>
      <trkpt lat="47.85409" lon="-0.30353">
        <ele>30</ele>
        <time>2020-07-20T17:47:51Z</time>
      </trkpt>
      <trkpt lat="47.85416" lon="-0.30305">
        <ele>30</ele>
        <time>2020-07-20T17:47:57Z</time>
      </trkpt>
      <trkpt lat="47.85447" lon="-0.30201">
        <ele>35</ele>
        <time>2020-07-20T17:48:10Z</time>
      </trkpt>
      <trkpt lat="47.85461" lon="-0.3012">
        <ele>35</ele>
        <time>2020-07-20T17:48:20Z</time>
      </trkpt>
      <trkpt lat="47.85436" lon="-0.30117">
        <ele>32</ele>
        <time>2020-07-20T17:48:25Z</time>
      </trkpt>
      <trkpt lat="47.85413" lon="-0.30111">
        <ele>30</ele>
        <time>2020-07-20T17:48:29Z</time>
      </trkpt>
      <trkpt lat="47.85289" lon="-0.30068">
        <ele>33</ele>
        <time>2020-07-20T17:48:52Z</time>
      </trkpt>
      <trkpt lat="47.85245" lon="-0.30056">
        <ele>38</ele>
        <time>2020-07-20T17:49:00Z</time>
      </trkpt>
      <trkpt lat="47.85207" lon="-0.30142">
        <ele>40</ele>
        <time>2020-07-20T17:49:12Z</time>
      </trkpt>
      <trkpt lat="47.85146" lon="-0.30305">
        <ele>43</ele>
        <time>2020-07-20T17:49:34Z</time>
      </trkpt>
      <trkpt lat="47.85207" lon="-0.30142">
        <ele>40</ele>
        <time>2020-07-20T17:49:57Z</time>
      </trkpt>
      <trkpt lat="47.85245" lon="-0.30056">
        <ele>38</ele>
        <time>2020-07-20T17:50:09Z</time>
      </trkpt>
      <trkpt lat="47.8526" lon="-0.30009">
        <ele>36</ele>
        <time>2020-07-20T17:50:15Z</time>
      </trkpt>
      <trkpt lat="47.85276" lon="-0.29943">
        <ele>35</ele>
        <time>2020-07-20T17:50:23Z</time>
      </trkpt>
      <trkpt lat="47.85291" lon="-0.29855">
        <ele>34</ele>
        <time>2020-07-20T17:50:34Z</time>
      </trkpt>
      <trkpt lat="47.85276" lon="-0.29789">
        <ele>36</ele>
        <time>2020-07-20T17:50:43Z</time>
      </trkpt>
      <trkpt lat="47.85191" lon="-0.29527">
        <ele>49</ele>
        <time>2020-07-20T17:51:17Z</time>
      </trkpt>
      <trkpt lat="47.85177" lon="-0.29491">
        <ele>50</ele>
        <time>2020-07-20T17:51:22Z</time>
      </trkpt>
      <trkpt lat="47.8516" lon="-0.29431">
        <ele>51</ele>
        <time>2020-07-20T17:51:30Z</time>
      </trkpt>
      <trkpt lat="47.85139" lon="-0.29335">
        <ele>51</ele>
        <time>2020-07-20T17:51:42Z</time>
      </trkpt>
      <trkpt lat="47.85132" lon="-0.2927">
        <ele>53</ele>
        <time>2020-07-20T17:51:50Z</time>
      </trkpt>
      <trkpt lat="47.85127" lon="-0.29181">
        <ele>54</ele>
        <time>2020-07-20T17:52:01Z</time>
      </trkpt>
      <trkpt lat="47.85121" lon="-0.29146">
        <ele>54</ele>
        <time>2020-07-20T17:52:05Z</time>
      </trkpt>
      <trkpt lat="47.85121" lon="-0.29122">
        <ele>54</ele>
        <time>2020-07-20T17:52:08Z</time>
      </trkpt>
      <trkpt lat="47.85116" lon="-0.29125">
        <ele>54</ele>
        <time>2020-07-20T17:52:09Z</time>
      </trkpt>
      <trkpt lat="47.85108" lon="-0.29118">
        <ele>54</ele>
        <time>2020-07-20T17:52:10Z</time>
      </trkpt>
      <trkpt lat="47.85108" lon="-0.29104">
        <ele>54</ele>
        <time>2020-07-20T17:52:12Z</time>
      </trkpt>
      <trkpt lat="47.85112" lon="-0.29099">
        <ele>54</ele>
        <time>2020-07-20T17:52:13Z</time>
      </trkpt>
      <trkpt lat="47.85104" lon="-0.29084">
        <ele>54</ele>
        <time>2020-07-20T17:52:15Z</time>
      </trkpt>
      <trkpt lat="47.85056" lon="-0.28942">
        <ele>46</ele>
        <time>2020-07-20T17:52:34Z</time>
      </trkpt>
      <trkpt lat="47.85043" lon="-0.28883">
        <ele>45</ele>
        <time>2020-07-20T17:52:42Z</time>
      </trkpt>
      <trkpt lat="47.85035" lon="-0.28823">
        <ele>46</ele>
        <time>2020-07-20T17:52:49Z</time>
      </trkpt>
      <trkpt lat="47.85023" lon="-0.28551">
        <ele>53</ele>
        <time>2020-07-20T17:53:22Z</time>
      </trkpt>
      <trkpt lat="47.85014" lon="-0.28463">
        <ele>54</ele>
        <time>2020-07-20T17:53:32Z</time>
      </trkpt>
      <trkpt lat="47.84986" lon="-0.28301">
        <ele>54</ele>
        <time>2020-07-20T17:53:52Z</time>
      </trkpt>
      <trkpt lat="47.84982" lon="-0.28256">
        <ele>55</ele>
        <time>2020-07-20T17:53:58Z</time>
      </trkpt>
      <trkpt lat="47.84987" lon="-0.28033">
        <ele>54</ele>
        <time>2020-07-20T17:54:24Z</time>
      </trkpt>
      <trkpt lat="47.84982" lon="-0.27983">
        <ele>55</ele>
        <time>2020-07-20T17:54:30Z</time>
      </trkpt>
      <trkpt lat="47.84971" lon="-0.27947">
        <ele>55</ele>
        <time>2020-07-20T17:54:35Z</time>
      </trkpt>
      <trkpt lat="47.84891" lon="-0.27766">
        <ele>62</ele>
        <time>2020-07-20T17:55:01Z</time>
      </trkpt>
      <trkpt lat="47.84864" lon="-0.27713">
        <ele>65</ele>
        <time>2020-07-20T17:55:09Z</time>
      </trkpt>
      <trkpt lat="47.84811" lon="-0.2763">
        <ele>67</ele>
        <time>2020-07-20T17:55:23Z</time>
      </trkpt>
      <trkpt lat="47.84771" lon="-0.27561">
        <ele>68</ele>
        <time>2020-07-20T17:55:33Z</time>
      </trkpt>
      <trkpt lat="47.84732" lon="-0.27461">
        <ele>70</ele>
        <time>2020-07-20T17:55:47Z</time>
      </trkpt>
      <trkpt lat="47.84722" lon="-0.27447">
        <ele>69</ele>
        <time>2020-07-20T17:55:50Z</time>
      </trkpt>
      <trkpt lat="47.84697" lon="-0.27423">
        <ele>69</ele>
        <time>2020-07-20T17:55:55Z</time>
      </trkpt>
      <trkpt lat="47.84547" lon="-0.27345">
        <ele>70</ele>
        <time>2020-07-20T17:56:23Z</time>
      </trkpt>
      <trkpt lat="47.84405" lon="-0.27255">
        <ele>71</ele>
        <time>2020-07-20T17:56:51Z</time>
      </trkpt>
      <trkpt lat="47.84378" lon="-0.27242">
        <ele>71</ele>
        <time>2020-07-20T17:56:56Z</time>
      </trkpt>
      <trkpt lat="47.84349" lon="-0.27236">
        <ele>71</ele>
        <time>2020-07-20T17:57:01Z</time>
      </trkpt>
      <trkpt lat="47.84152" lon="-0.27228">
        <ele>71</ele>
        <time>2020-07-20T17:57:36Z</time>
      </trkpt>
      <trkpt lat="47.8406" lon="-0.27221">
        <ele>72</ele>
        <time>2020-07-20T17:57:52Z</time>
      </trkpt>
      <trkpt lat="47.84035" lon="-0.27216">
        <ele>72</ele>
        <time>2020-07-20T17:57:57Z</time>
      </trkpt>
      <trkpt lat="47.8376" lon="-0.27139">
        <ele>69</ele>
        <time>2020-07-20T17:58:47Z</time>
      </trkpt>
      <trkpt lat="47.83747" lon="-0.26764">
        <ele>69</ele>
        <time>2020-07-20T17:59:31Z</time>
      </trkpt>
      <trkpt lat="47.83734" lon="-0.2677">
        <ele>69</ele>
        <time>2020-07-20T17:59:34Z</time>
      </trkpt>
      <trkpt lat="47.83723" lon="-0.26764">
        <ele>69</ele>
        <time>2020-07-20T17:59:36Z</time>
      </trkpt>
      <trkpt lat="47.83703" lon="-0.26758">
        <ele>68</ele>
        <time>2020-07-20T17:59:40Z</time>
      </trkpt>
      <trkpt lat="47.83614" lon="-0.26658">
        <ele>66</ele>
        <time>2020-07-20T17:59:59Z</time>
      </trkpt>
      <trkpt lat="47.83409" lon="-0.26367">
        <ele>64</ele>
        <time>2020-07-20T18:00:50Z</time>
      </trkpt>
      <trkpt lat="47.83384" lon="-0.26325">
        <ele>63</ele>
        <time>2020-07-20T18:00:57Z</time>
      </trkpt>
      <trkpt lat="47.83366" lon="-0.26285">
        <ele>64</ele>
        <time>2020-07-20T18:01:02Z</time>
      </trkpt>
      <trkpt lat="47.83352" lon="-0.26231">
        <ele>64</ele>
        <time>2020-07-20T18:01:09Z</time>
      </trkpt>
      <trkpt lat="47.83205" lon="-0.25563">
        <ele>61</ele>
        <time>2020-07-20T18:02:33Z</time>
      </trkpt>
      <trkpt lat="47.83175" lon="-0.25498">
        <ele>61</ele>
        <time>2020-07-20T18:02:43Z</time>
      </trkpt>
      <trkpt lat="47.83115" lon="-0.25388">
        <ele>62</ele>
        <time>2020-07-20T18:03:00Z</time>
      </trkpt>
      <trkpt lat="47.83091" lon="-0.25349">
        <ele>62</ele>
        <time>2020-07-20T18:03:06Z</time>
      </trkpt>
      <trkpt lat="47.83071" lon="-0.25322">
        <ele>62</ele>
        <time>2020-07-20T18:03:11Z</time>
      </trkpt>
      <trkpt lat="47.82982" lon="-0.25218">
        <ele>61</ele>
        <time>2020-07-20T18:03:31Z</time>
      </trkpt>
      <trkpt lat="47.82818" lon="-0.24992">
        <ele>61</ele>
        <time>2020-07-20T18:04:11Z</time>
      </trkpt>
      <trkpt lat="47.82796" lon="-0.24967">
        <ele>61</ele>
        <time>2020-07-20T18:04:15Z</time>
      </trkpt>
      <trkpt lat="47.82774" lon="-0.24945">
        <ele>60</ele>
        <time>2020-07-20T18:04:20Z</time>
      </trkpt>
      <trkpt lat="47.82736" lon="-0.2492">
        <ele>60</ele>
        <time>2020-07-20T18:04:28Z</time>
      </trkpt>
      <trkpt lat="47.82668" lon="-0.2488">
        <ele>57</ele>
        <time>2020-07-20T18:04:41Z</time>
      </trkpt>
      <trkpt lat="47.82584" lon="-0.24835">
        <ele>52</ele>
        <time>2020-07-20T18:04:56Z</time>
      </trkpt>
      <trkpt lat="47.82555" lon="-0.2481">
        <ele>51</ele>
        <time>2020-07-20T18:05:02Z</time>
      </trkpt>
      <trkpt lat="47.82533" lon="-0.2478">
        <ele>51</ele>
        <time>2020-07-20T18:05:08Z</time>
      </trkpt>
      <trkpt lat="47.82518" lon="-0.24751">
        <ele>50</ele>
        <time>2020-07-20T18:05:12Z</time>
      </trkpt>
      <trkpt lat="47.82412" lon="-0.24509">
        <ele>48</ele>
        <time>2020-07-20T18:05:47Z</time>
      </trkpt>
      <trkpt lat="47.82389" lon="-0.24463">
        <ele>48</ele>
        <time>2020-07-20T18:05:53Z</time>
      </trkpt>
      <trkpt lat="47.82367" lon="-0.2443">
        <ele>48</ele>
        <time>2020-07-20T18:05:59Z</time>
      </trkpt>
      <trkpt lat="47.82248" lon="-0.24274">
        <ele>48</ele>
        <time>2020-07-20T18:06:27Z</time>
      </trkpt>
      <trkpt lat="47.82224" lon="-0.24247">
        <ele>48</ele>
        <time>2020-07-20T18:06:33Z</time>
      </trkpt>
      <trkpt lat="47.81994" lon="-0.24044">
        <ele>47</ele>
        <time>2020-07-20T18:07:20Z</time>
      </trkpt>
      <trkpt lat="47.81931" lon="-0.23973">
        <ele>47</ele>
        <time>2020-07-20T18:07:34Z</time>
      </trkpt>
      <trkpt lat="47.81913" lon="-0.2396">
        <ele>47</ele>
        <time>2020-07-20T18:07:38Z</time>
      </trkpt>
      <trkpt lat="47.81858" lon="-0.23937">
        <ele>48</ele>
        <time>2020-07-20T18:07:48Z</time>
      </trkpt>
      <trkpt lat="47.81883" lon="-0.23856">
        <ele>48</ele>
        <time>2020-07-20T18:07:59Z</time>
      </trkpt>
      <trkpt lat="47.81879" lon="-0.23857">
        <ele>48</ele>
        <time>2020-07-20T18:07:59Z</time>
      </trkpt>
      <trkpt lat="47.8187" lon="-0.23853">
        <ele>48</ele>
        <time>2020-07-20T18:08:01Z</time>
      </trkpt>
      <trkpt lat="47.81858" lon="-0.23837">
        <ele>48</ele>
        <time>2020-07-20T18:08:04Z</time>
      </trkpt>
      <trkpt lat="47.81857" lon="-0.23824">
        <ele>48</ele>
        <time>2020-07-20T18:08:05Z</time>
      </trkpt>
      <trkpt lat="47.8185" lon="-0.23802">
        <ele>48</ele>
        <time>2020-07-20T18:08:08Z</time>
      </trkpt>
      <trkpt lat="47.81763" lon="-0.23561">
        <ele>45</ele>
        <time>2020-07-20T18:08:41Z</time>
      </trkpt>
      <trkpt lat="47.81734" lon="-0.23378">
        <ele>45</ele>
        <time>2020-07-20T18:09:03Z</time>
      </trkpt>
      <trkpt lat="47.81707" lon="-0.23262">
        <ele>45</ele>
        <time>2020-07-20T18:09:18Z</time>
      </trkpt>
      <trkpt lat="47.81703" lon="-0.23228">
        <ele>45</ele>
        <time>2020-07-20T18:09:22Z</time>
      </trkpt>
      <trkpt lat="47.81703" lon="-0.23195">
        <ele>45</ele>
        <time>2020-07-20T18:09:26Z</time>
      </trkpt>
      <trkpt lat="47.81715" lon="-0.23017">
        <ele>46</ele>
        <time>2020-07-20T18:09:48Z</time>
      </trkpt>
      <trkpt lat="47.81709" lon="-0.22918">
        <ele>46</ele>
        <time>2020-07-20T18:09:59Z</time>
      </trkpt>
      <trkpt lat="47.8166" lon="-0.22709">
        <ele>44</ele>
        <time>2020-07-20T18:10:26Z</time>
      </trkpt>
      <trkpt lat="47.81622" lon="-0.22475">
        <ele>45</ele>
        <time>2020-07-20T18:10:55Z</time>
      </trkpt>
      <trkpt lat="47.81596" lon="-0.22259">
        <ele>44</ele>
        <time>2020-07-20T18:11:21Z</time>
      </trkpt>
      <trkpt lat="47.81584" lon="-0.22192">
        <ele>43</ele>
        <time>2020-07-20T18:11:29Z</time>
      </trkpt>
      <trkpt lat="47.81543" lon="-0.22021">
        <ele>44</ele>
        <time>2020-07-20T18:11:51Z</time>
      </trkpt>
      <trkpt lat="47.81523" lon="-0.2182">
        <ele>44</ele>
        <time>2020-07-20T18:12:15Z</time>
      </trkpt>
      <trkpt lat="47.81495" lon="-0.21677">
        <ele>44</ele>
        <time>2020-07-20T18:12:33Z</time>
      </trkpt>
      <trkpt lat="47.81476" lon="-0.21594">
        <ele>44</ele>
        <time>2020-07-20T18:12:43Z</time>
      </trkpt>
      <trkpt lat="47.81457" lon="-0.21449">
        <ele>44</ele>
        <time>2020-07-20T18:13:01Z</time>
      </trkpt>
      <trkpt lat="47.81439" lon="-0.21144">
        <ele>43</ele>
        <time>2020-07-20T18:13:38Z</time>
      </trkpt>
      <trkpt lat="47.81434" lon="-0.20987">
        <ele>44</ele>
        <time>2020-07-20T18:13:56Z</time>
      </trkpt>
      <trkpt lat="47.81446" lon="-0.20846">
        <ele>43</ele>
        <time>2020-07-20T18:14:13Z</time>
      </trkpt>
      <trkpt lat="47.81464" lon="-0.20573">
        <ele>44</ele>
        <time>2020-07-20T18:14:46Z</time>
      </trkpt>
      <trkpt lat="47.81468" lon="-0.2054">
        <ele>44</ele>
        <time>2020-07-20T18:14:50Z</time>
      </trkpt>
      <trkpt lat="47.81491" lon="-0.20446">
        <ele>43</ele>
        <time>2020-07-20T18:15:02Z</time>
      </trkpt>
      <trkpt lat="47.815" lon="-0.20396">
        <ele>43</ele>
        <time>2020-07-20T18:15:08Z</time>
      </trkpt>
      <trkpt lat="47.81503" lon="-0.20348">
        <ele>43</ele>
        <time>2020-07-20T18:15:14Z</time>
      </trkpt>
      <trkpt lat="47.81497" lon="-0.19991">
        <ele>45</ele>
        <time>2020-07-20T18:15:57Z</time>
      </trkpt>
      <trkpt lat="47.81493" lon="-0.19917">
        <ele>45</ele>
        <time>2020-07-20T18:16:06Z</time>
      </trkpt>
      <trkpt lat="47.81445" lon="-0.19617">
        <ele>45</ele>
        <time>2020-07-20T18:16:42Z</time>
      </trkpt>
      <trkpt lat="47.81439" lon="-0.19562">
        <ele>45</ele>
        <time>2020-07-20T18:16:49Z</time>
      </trkpt>
      <trkpt lat="47.81437" lon="-0.19495">
        <ele>45</ele>
        <time>2020-07-20T18:16:57Z</time>
      </trkpt>
      <trkpt lat="47.81431" lon="-0.19427">
        <ele>44</ele>
        <time>2020-07-20T18:17:05Z</time>
      </trkpt>
      <trkpt lat="47.8142" lon="-0.19377">
        <ele>44</ele>
        <time>2020-07-20T18:17:12Z</time>
      </trkpt>
      <trkpt lat="47.81321" lon="-0.19067">
        <ele>47</ele>
        <time>2020-07-20T18:17:53Z</time>
      </trkpt>
      <trkpt lat="47.81296" lon="-0.19065">
        <ele>48</ele>
        <time>2020-07-20T18:17:57Z</time>
      </trkpt>
      <trkpt lat="47.81256" lon="-0.19072">
        <ele>48</ele>
        <time>2020-07-20T18:18:04Z</time>
      </trkpt>
      <trkpt lat="47.81143" lon="-0.19115">
        <ele>47</ele>
        <time>2020-07-20T18:18:25Z</time>
      </trkpt>
      <trkpt lat="47.81105" lon="-0.1912">
        <ele>46</ele>
        <time>2020-07-20T18:18:32Z</time>
      </trkpt>
      <trkpt lat="47.81081" lon="-0.19119">
        <ele>46</ele>
        <time>2020-07-20T18:18:36Z</time>
      </trkpt>
      <trkpt lat="47.81046" lon="-0.19112">
        <ele>45</ele>
        <time>2020-07-20T18:18:42Z</time>
      </trkpt>
      <trkpt lat="47.80955" lon="-0.19067">
        <ele>46</ele>
        <time>2020-07-20T18:18:59Z</time>
      </trkpt>
      <trkpt lat="47.80929" lon="-0.19048">
        <ele>46</ele>
        <time>2020-07-20T18:19:05Z</time>
      </trkpt>
      <trkpt lat="47.8089" lon="-0.18994">
        <ele>47</ele>
        <time>2020-07-20T18:19:14Z</time>
      </trkpt>
      <trkpt lat="47.8086" lon="-0.18958">
        <ele>47</ele>
        <time>2020-07-20T18:19:21Z</time>
      </trkpt>
      <trkpt lat="47.80812" lon="-0.18915">
        <ele>47</ele>
        <time>2020-07-20T18:19:31Z</time>
      </trkpt>
      <trkpt lat="47.80758" lon="-0.18852">
        <ele>47</ele>
        <time>2020-07-20T18:19:43Z</time>
      </trkpt>
      <trkpt lat="47.80737" lon="-0.18836">
        <ele>47</ele>
        <time>2020-07-20T18:19:47Z</time>
      </trkpt>
      <trkpt lat="47.80691" lon="-0.18817">
        <ele>47</ele>
        <time>2020-07-20T18:19:56Z</time>
      </trkpt>
      <trkpt lat="47.80676" lon="-0.18808">
        <ele>47</ele>
        <time>2020-07-20T18:19:59Z</time>
      </trkpt>
      <trkpt lat="47.80616" lon="-0.18763">
        <ele>49</ele>
        <time>2020-07-20T18:20:11Z</time>
      </trkpt>
      <trkpt lat="47.80566" lon="-0.18718">
        <ele>51</ele>
        <time>2020-07-20T18:20:21Z</time>
      </trkpt>
      <trkpt lat="47.80519" lon="-0.18661">
        <ele>54</ele>
        <time>2020-07-20T18:20:32Z</time>
      </trkpt>
      <trkpt lat="47.80502" lon="-0.18656">
        <ele>54</ele>
        <time>2020-07-20T18:20:35Z</time>
      </trkpt>
      <trkpt lat="47.80419" lon="-0.18655">
        <ele>54</ele>
        <time>2020-07-20T18:20:50Z</time>
      </trkpt>
      <trkpt lat="47.80399" lon="-0.18649">
        <ele>54</ele>
        <time>2020-07-20T18:20:53Z</time>
      </trkpt>
      <trkpt lat="47.80361" lon="-0.18629">
        <ele>55</ele>
        <time>2020-07-20T18:21:00Z</time>
      </trkpt>
      <trkpt lat="47.80267" lon="-0.18557">
        <ele>56</ele>
        <time>2020-07-20T18:21:19Z</time>
      </trkpt>
      <trkpt lat="47.8023" lon="-0.1852">
        <ele>55</ele>
        <time>2020-07-20T18:21:27Z</time>
      </trkpt>
      <trkpt lat="47.80102" lon="-0.18357">
        <ele>56</ele>
        <time>2020-07-20T18:21:57Z</time>
      </trkpt>
      <trkpt lat="47.80057" lon="-0.18293">
        <ele>55</ele>
        <time>2020-07-20T18:22:08Z</time>
      </trkpt>
      <trkpt lat="47.80045" lon="-0.18283">
        <ele>54</ele>
        <time>2020-07-20T18:22:11Z</time>
      </trkpt>
      <trkpt lat="47.79973" lon="-0.18251">
        <ele>50</ele>
        <time>2020-07-20T18:22:24Z</time>
      </trkpt>
      <trkpt lat="47.79952" lon="-0.18238">
        <ele>49</ele>
        <time>2020-07-20T18:22:28Z</time>
      </trkpt>
      <trkpt lat="47.79822" lon="-0.18137">
        <ele>49</ele>
        <time>2020-07-20T18:22:54Z</time>
      </trkpt>
      <trkpt lat="47.79788" lon="-0.18099">
        <ele>48</ele>
        <time>2020-07-20T18:23:02Z</time>
      </trkpt>
      <trkpt lat="47.79771" lon="-0.18071">
        <ele>48</ele>
        <time>2020-07-20T18:23:06Z</time>
      </trkpt>
      <trkpt lat="47.79704" lon="-0.1794">
        <ele>48</ele>
        <time>2020-07-20T18:23:26Z</time>
      </trkpt>
      <trkpt lat="47.79687" lon="-0.17914">
        <ele>48</ele>
        <time>2020-07-20T18:23:30Z</time>
      </trkpt>
      <trkpt lat="47.79669" lon="-0.17895">
        <ele>48</ele>
        <time>2020-07-20T18:23:34Z</time>
      </trkpt>
      <trkpt lat="47.79628" lon="-0.17862">
        <ele>47</ele>
        <time>2020-07-20T18:23:43Z</time>
      </trkpt>
      <trkpt lat="47.79532" lon="-0.17798">
        <ele>47</ele>
        <time>2020-07-20T18:24:01Z</time>
      </trkpt>
      <trkpt lat="47.79508" lon="-0.17775">
        <ele>48</ele>
        <time>2020-07-20T18:24:06Z</time>
      </trkpt>
      <trkpt lat="47.79482" lon="-0.17733">
        <ele>48</ele>
        <time>2020-07-20T18:24:13Z</time>
      </trkpt>
      <trkpt lat="47.79423" lon="-0.17618">
        <ele>47</ele>
        <time>2020-07-20T18:24:30Z</time>
      </trkpt>
      <trkpt lat="47.79344" lon="-0.17445">
        <ele>51</ele>
        <time>2020-07-20T18:24:55Z</time>
      </trkpt>
      <trkpt lat="47.79212" lon="-0.17184">
        <ele>59</ele>
        <time>2020-07-20T18:25:34Z</time>
      </trkpt>
      <trkpt lat="47.79195" lon="-0.17168">
        <ele>60</ele>
        <time>2020-07-20T18:25:38Z</time>
      </trkpt>
      <trkpt lat="47.7918" lon="-0.17162">
        <ele>61</ele>
        <time>2020-07-20T18:25:41Z</time>
      </trkpt>
      <trkpt lat="47.79164" lon="-0.17162">
        <ele>61</ele>
        <time>2020-07-20T18:25:44Z</time>
      </trkpt>
      <trkpt lat="47.78748" lon="-0.1726">
        <ele>55</ele>
        <time>2020-07-20T18:26:59Z</time>
      </trkpt>
      <trkpt lat="47.78716" lon="-0.1726">
        <ele>56</ele>
        <time>2020-07-20T18:27:04Z</time>
      </trkpt>
      <trkpt lat="47.78688" lon="-0.17249">
        <ele>56</ele>
        <time>2020-07-20T18:27:09Z</time>
      </trkpt>
      <trkpt lat="47.78522" lon="-0.17142">
        <ele>61</ele>
        <time>2020-07-20T18:27:42Z</time>
      </trkpt>
      <trkpt lat="47.78456" lon="-0.17072">
        <ele>62</ele>
        <time>2020-07-20T18:27:56Z</time>
      </trkpt>
      <trkpt lat="47.78432" lon="-0.17052">
        <ele>63</ele>
        <time>2020-07-20T18:28:01Z</time>
      </trkpt>
      <trkpt lat="47.78409" lon="-0.17039">
        <ele>63</ele>
        <time>2020-07-20T18:28:05Z</time>
      </trkpt>
      <trkpt lat="47.78389" lon="-0.1702">
        <ele>64</ele>
        <time>2020-07-20T18:28:10Z</time>
      </trkpt>
      <trkpt lat="47.78322" lon="-0.16929">
        <ele>64</ele>
        <time>2020-07-20T18:28:26Z</time>
      </trkpt>
      <trkpt lat="47.78261" lon="-0.16874">
        <ele>63</ele>
        <time>2020-07-20T18:28:38Z</time>
      </trkpt>
      <trkpt lat="47.7814" lon="-0.16756">
        <ele>61</ele>
        <time>2020-07-20T18:29:04Z</time>
      </trkpt>
      <trkpt lat="47.78127" lon="-0.16748">
        <ele>61</ele>
        <time>2020-07-20T18:29:07Z</time>
      </trkpt>
      <trkpt lat="47.78115" lon="-0.16745">
        <ele>60</ele>
        <time>2020-07-20T18:29:09Z</time>
      </trkpt>
      <trkpt lat="47.78063" lon="-0.16747">
        <ele>60</ele>
        <time>2020-07-20T18:29:18Z</time>
      </trkpt>
      <trkpt lat="47.78046" lon="-0.16742">
        <ele>60</ele>
        <time>2020-07-20T18:29:21Z</time>
      </trkpt>
      <trkpt lat="47.78031" lon="-0.16735">
        <ele>60</ele>
        <time>2020-07-20T18:29:24Z</time>
      </trkpt>
      <trkpt lat="47.77963" lon="-0.16689">
        <ele>61</ele>
        <time>2020-07-20T18:29:37Z</time>
      </trkpt>
      <trkpt lat="47.77934" lon="-0.16672">
        <ele>62</ele>
        <time>2020-07-20T18:29:43Z</time>
      </trkpt>
      <trkpt lat="47.77755" lon="-0.16593">
        <ele>64</ele>
        <time>2020-07-20T18:30:16Z</time>
      </trkpt>
      <trkpt lat="47.77738" lon="-0.16583">
        <ele>64</ele>
        <time>2020-07-20T18:30:19Z</time>
      </trkpt>
      <trkpt lat="47.7773" lon="-0.16574">
        <ele>64</ele>
        <time>2020-07-20T18:30:21Z</time>
      </trkpt>
      <trkpt lat="47.77693" lon="-0.16515">
        <ele>65</ele>
        <time>2020-07-20T18:30:31Z</time>
      </trkpt>
      <trkpt lat="47.77667" lon="-0.1648">
        <ele>65</ele>
        <time>2020-07-20T18:30:37Z</time>
      </trkpt>
      <trkpt lat="47.77565" lon="-0.16368">
        <ele>64</ele>
        <time>2020-07-20T18:30:59Z</time>
      </trkpt>
      <trkpt lat="47.77524" lon="-0.16339">
        <ele>63</ele>
        <time>2020-07-20T18:31:08Z</time>
      </trkpt>
      <trkpt lat="47.77489" lon="-0.16319">
        <ele>62</ele>
        <time>2020-07-20T18:31:14Z</time>
      </trkpt>
      <trkpt lat="47.77462" lon="-0.16306">
        <ele>61</ele>
        <time>2020-07-20T18:31:19Z</time>
      </trkpt>
      <trkpt lat="47.77439" lon="-0.16298">
        <ele>59</ele>
        <time>2020-07-20T18:31:23Z</time>
      </trkpt>
      <trkpt lat="47.77113" lon="-0.16216">
        <ele>58</ele>
        <time>2020-07-20T18:32:22Z</time>
      </trkpt>
      <trkpt lat="47.77107" lon="-0.1622">
        <ele>58</ele>
        <time>2020-07-20T18:32:23Z</time>
      </trkpt>
      <trkpt lat="47.77102" lon="-0.16213">
        <ele>58</ele>
        <time>2020-07-20T18:32:25Z</time>
      </trkpt>
      <trkpt lat="47.77071" lon="-0.16189">
        <ele>58</ele>
        <time>2020-07-20T18:32:31Z</time>
      </trkpt>
      <trkpt lat="47.76986" lon="-0.16148">
        <ele>58</ele>
        <time>2020-07-20T18:32:47Z</time>
      </trkpt>
      <trkpt lat="47.76942" lon="-0.16139">
        <ele>58</ele>
        <time>2020-07-20T18:32:55Z</time>
      </trkpt>
      <trkpt lat="47.76916" lon="-0.16143">
        <ele>58</ele>
        <time>2020-07-20T18:32:59Z</time>
      </trkpt>
      <trkpt lat="47.76892" lon="-0.16142">
        <ele>57</ele>
        <time>2020-07-20T18:33:04Z</time>
      </trkpt>
      <trkpt lat="47.76866" lon="-0.16138">
        <ele>57</ele>
        <time>2020-07-20T18:33:08Z</time>
      </trkpt>
      <trkpt lat="47.76854" lon="-0.16133">
        <ele>56</ele>
        <time>2020-07-20T18:33:10Z</time>
      </trkpt>
      <trkpt lat="47.76828" lon="-0.16132">
        <ele>55</ele>
        <time>2020-07-20T18:33:15Z</time>
      </trkpt>
      <trkpt lat="47.76818" lon="-0.16127">
        <ele>55</ele>
        <time>2020-07-20T18:33:17Z</time>
      </trkpt>
      <trkpt lat="47.76789" lon="-0.16121">
        <ele>55</ele>
        <time>2020-07-20T18:33:22Z</time>
      </trkpt>
      <trkpt lat="47.76777" lon="-0.16113">
        <ele>54</ele>
        <time>2020-07-20T18:33:25Z</time>
      </trkpt>
      <trkpt lat="47.76774" lon="-0.16098">
        <ele>54</ele>
        <time>2020-07-20T18:33:26Z</time>
      </trkpt>
      <trkpt lat="47.76765" lon="-0.15971">
        <ele>55</ele>
        <time>2020-07-20T18:33:42Z</time>
      </trkpt>
      <trkpt lat="47.7675" lon="-0.15909">
        <ele>55</ele>
        <time>2020-07-20T18:33:50Z</time>
      </trkpt>
      <trkpt lat="47.7675" lon="-0.15901">
        <ele>55</ele>
        <time>2020-07-20T18:33:51Z</time>
      </trkpt>
      <trkpt lat="47.76747" lon="-0.15895">
        <ele>55</ele>
        <time>2020-07-20T18:33:51Z</time>
      </trkpt>
      <trkpt lat="47.7674" lon="-0.15847">
        <ele>56</ele>
        <time>2020-07-20T18:33:57Z</time>
      </trkpt>
      <trkpt lat="47.76724" lon="-0.15803">
        <ele>55</ele>
        <time>2020-07-20T18:34:03Z</time>
      </trkpt>
      <trkpt lat="47.7667" lon="-0.15709">
        <ele>54</ele>
        <time>2020-07-20T18:34:18Z</time>
      </trkpt>
      <trkpt lat="47.76653" lon="-0.15672">
        <ele>53</ele>
        <time>2020-07-20T18:34:23Z</time>
      </trkpt>
      <trkpt lat="47.76622" lon="-0.15557">
        <ele>51</ele>
        <time>2020-07-20T18:34:38Z</time>
      </trkpt>
      <trkpt lat="47.76608" lon="-0.15494">
        <ele>50</ele>
        <time>2020-07-20T18:34:46Z</time>
      </trkpt>
      <trkpt lat="47.76584" lon="-0.15319">
        <ele>47</ele>
        <time>2020-07-20T18:35:08Z</time>
      </trkpt>
      <trkpt lat="47.7658" lon="-0.15295">
        <ele>47</ele>
        <time>2020-07-20T18:35:10Z</time>
      </trkpt>
      <trkpt lat="47.76572" lon="-0.15276">
        <ele>46</ele>
        <time>2020-07-20T18:35:13Z</time>
      </trkpt>
      <trkpt lat="47.76559" lon="-0.15263">
        <ele>46</ele>
        <time>2020-07-20T18:35:16Z</time>
      </trkpt>
      <trkpt lat="47.76545" lon="-0.15256">
        <ele>46</ele>
        <time>2020-07-20T18:35:19Z</time>
      </trkpt>
      <trkpt lat="47.76454" lon="-0.15244">
        <ele>46</ele>
        <time>2020-07-20T18:35:35Z</time>
      </trkpt>
      <trkpt lat="47.76442" lon="-0.15239">
        <ele>46</ele>
        <time>2020-07-20T18:35:37Z</time>
      </trkpt>
      <trkpt lat="47.76417" lon="-0.15218">
        <ele>46</ele>
        <time>2020-07-20T18:35:42Z</time>
      </trkpt>
      <trkpt lat="47.76375" lon="-0.1517">
        <ele>47</ele>
        <time>2020-07-20T18:35:52Z</time>
      </trkpt>
      <trkpt lat="47.76312" lon="-0.1512">
        <ele>49</ele>
        <time>2020-07-20T18:36:04Z</time>
      </trkpt>
      <trkpt lat="47.76228" lon="-0.15021">
        <ele>53</ele>
        <time>2020-07-20T18:36:23Z</time>
      </trkpt>
      <trkpt lat="47.76217" lon="-0.15011">
        <ele>53</ele>
        <time>2020-07-20T18:36:26Z</time>
      </trkpt>
      <trkpt lat="47.76195" lon="-0.15004">
        <ele>54</ele>
        <time>2020-07-20T18:36:30Z</time>
      </trkpt>
      <trkpt lat="47.76078" lon="-0.14983">
        <ele>58</ele>
        <time>2020-07-20T18:36:51Z</time>
      </trkpt>
      <trkpt lat="47.76065" lon="-0.14982">
        <ele>58</ele>
        <time>2020-07-20T18:36:53Z</time>
      </trkpt>
      <trkpt lat="47.76027" lon="-0.14991">
        <ele>58</ele>
        <time>2020-07-20T18:37:00Z</time>
      </trkpt>
      <trkpt lat="47.76006" lon="-0.14993">
        <ele>58</ele>
        <time>2020-07-20T18:37:04Z</time>
      </trkpt>
      <trkpt lat="47.75824" lon="-0.14922">
        <ele>60</ele>
        <time>2020-07-20T18:37:37Z</time>
      </trkpt>
      <trkpt lat="47.75798" lon="-0.14917">
        <ele>60</ele>
        <time>2020-07-20T18:37:42Z</time>
      </trkpt>
      <trkpt lat="47.75775" lon="-0.14916">
        <ele>60</ele>
        <time>2020-07-20T18:37:46Z</time>
      </trkpt>
      <trkpt lat="47.75729" lon="-0.1492">
        <ele>60</ele>
        <time>2020-07-20T18:37:54Z</time>
      </trkpt>
      <trkpt lat="47.75688" lon="-0.14928">
        <ele>59</ele>
        <time>2020-07-20T18:38:01Z</time>
      </trkpt>
      <trkpt lat="47.75567" lon="-0.14964">
        <ele>60</ele>
        <time>2020-07-20T18:38:23Z</time>
      </trkpt>
      <trkpt lat="47.75527" lon="-0.14978">
        <ele>60</ele>
        <time>2020-07-20T18:38:31Z</time>
      </trkpt>
      <trkpt lat="47.75464" lon="-0.14993">
        <ele>60</ele>
        <time>2020-07-20T18:38:42Z</time>
      </trkpt>
      <trkpt lat="47.754" lon="-0.15002">
        <ele>60</ele>
        <time>2020-07-20T18:38:53Z</time>
      </trkpt>
      <trkpt lat="47.7538" lon="-0.15">
        <ele>61</ele>
        <time>2020-07-20T18:38:57Z</time>
      </trkpt>
      <trkpt lat="47.75344" lon="-0.14982">
        <ele>62</ele>
        <time>2020-07-20T18:39:04Z</time>
      </trkpt>
      <trkpt lat="47.75219" lon="-0.14903">
        <ele>62</ele>
        <time>2020-07-20T18:39:28Z</time>
      </trkpt>
      <trkpt lat="47.75211" lon="-0.14895">
        <ele>62</ele>
        <time>2020-07-20T18:39:30Z</time>
      </trkpt>
      <trkpt lat="47.75189" lon="-0.14905">
        <ele>63</ele>
        <time>2020-07-20T18:39:34Z</time>
      </trkpt>
      <trkpt lat="47.75115" lon="-0.14924">
        <ele>62</ele>
        <time>2020-07-20T18:39:47Z</time>
      </trkpt>
      <trkpt lat="47.75094" lon="-0.14927">
        <ele>61</ele>
        <time>2020-07-20T18:39:51Z</time>
      </trkpt>
      <trkpt lat="47.75077" lon="-0.14926">
        <ele>61</ele>
        <time>2020-07-20T18:39:54Z</time>
      </trkpt>
      <trkpt lat="47.74992" lon="-0.14906">
        <ele>60</ele>
        <time>2020-07-20T18:40:09Z</time>
      </trkpt>
      <trkpt lat="47.74968" lon="-0.14903">
        <ele>59</ele>
        <time>2020-07-20T18:40:13Z</time>
      </trkpt>
      <trkpt lat="47.7483" lon="-0.14918">
        <ele>56</ele>
        <time>2020-07-20T18:40:38Z</time>
      </trkpt>
      <trkpt lat="47.74788" lon="-0.1493">
        <ele>55</ele>
        <time>2020-07-20T18:40:46Z</time>
      </trkpt>
      <trkpt lat="47.74767" lon="-0.14947">
        <ele>54</ele>
        <time>2020-07-20T18:40:50Z</time>
      </trkpt>
      <trkpt lat="47.74678" lon="-0.15034">
        <ele>57</ele>
        <time>2020-07-20T18:41:09Z</time>
      </trkpt>
      <trkpt lat="47.74673" lon="-0.15055">
        <ele>58</ele>
        <time>2020-07-20T18:41:12Z</time>
      </trkpt>
      <trkpt lat="47.74671" lon="-0.15119">
        <ele>58</ele>
        <time>2020-07-20T18:41:19Z</time>
      </trkpt>
      <trkpt lat="47.74646" lon="-0.152">
        <ele>58</ele>
        <time>2020-07-20T18:41:30Z</time>
      </trkpt>
      <trkpt lat="47.746" lon="-0.15207">
        <ele>59</ele>
        <time>2020-07-20T18:41:38Z</time>
      </trkpt>
      <trkpt lat="47.74576" lon="-0.15205">
        <ele>59</ele>
        <time>2020-07-20T18:41:42Z</time>
      </trkpt>
      <trkpt lat="47.74526" lon="-0.15207">
        <ele>59</ele>
        <time>2020-07-20T18:41:51Z</time>
      </trkpt>
      <trkpt lat="47.74479" lon="-0.15217">
        <ele>60</ele>
        <time>2020-07-20T18:42:00Z</time>
      </trkpt>
      <trkpt lat="47.74457" lon="-0.15224">
        <ele>60</ele>
        <time>2020-07-20T18:42:04Z</time>
      </trkpt>
      <trkpt lat="47.74417" lon="-0.15244">
        <ele>59</ele>
        <time>2020-07-20T18:42:11Z</time>
      </trkpt>
      <trkpt lat="47.74386" lon="-0.15266">
        <ele>59</ele>
        <time>2020-07-20T18:42:17Z</time>
      </trkpt>
      <trkpt lat="47.74288" lon="-0.15352">
        <ele>58</ele>
        <time>2020-07-20T18:42:38Z</time>
      </trkpt>
      <trkpt lat="47.74262" lon="-0.15381">
        <ele>58</ele>
        <time>2020-07-20T18:42:43Z</time>
      </trkpt>
      <trkpt lat="47.74144" lon="-0.15567">
        <ele>54</ele>
        <time>2020-07-20T18:43:14Z</time>
      </trkpt>
      <trkpt lat="47.74069" lon="-0.15668">
        <ele>54</ele>
        <time>2020-07-20T18:43:32Z</time>
      </trkpt>
      <trkpt lat="47.74023" lon="-0.15749">
        <ele>52</ele>
        <time>2020-07-20T18:43:45Z</time>
      </trkpt>
      <trkpt lat="47.74007" lon="-0.15773">
        <ele>52</ele>
        <time>2020-07-20T18:43:49Z</time>
      </trkpt>
      <trkpt lat="47.73992" lon="-0.15789">
        <ele>52</ele>
        <time>2020-07-20T18:43:52Z</time>
      </trkpt>
      <trkpt lat="47.73976" lon="-0.15803">
        <ele>52</ele>
        <time>2020-07-20T18:43:55Z</time>
      </trkpt>
      <trkpt lat="47.73951" lon="-0.1582">
        <ele>53</ele>
        <time>2020-07-20T18:44:00Z</time>
      </trkpt>
      <trkpt lat="47.73924" lon="-0.15833">
        <ele>54</ele>
        <time>2020-07-20T18:44:05Z</time>
      </trkpt>
      <trkpt lat="47.73647" lon="-0.15914">
        <ele>51</ele>
        <time>2020-07-20T18:44:55Z</time>
      </trkpt>
      <trkpt lat="47.73614" lon="-0.15927">
        <ele>52</ele>
        <time>2020-07-20T18:45:02Z</time>
      </trkpt>
      <trkpt lat="47.73588" lon="-0.15948">
        <ele>52</ele>
        <time>2020-07-20T18:45:07Z</time>
      </trkpt>
      <trkpt lat="47.73412" lon="-0.16153">
        <ele>51</ele>
        <time>2020-07-20T18:45:47Z</time>
      </trkpt>
      <trkpt lat="47.73255" lon="-0.16311">
        <ele>50</ele>
        <time>2020-07-20T18:46:20Z</time>
      </trkpt>
      <trkpt lat="47.73173" lon="-0.16379">
        <ele>52</ele>
        <time>2020-07-20T18:46:37Z</time>
      </trkpt>
      <trkpt lat="47.73151" lon="-0.16409">
        <ele>53</ele>
        <time>2020-07-20T18:46:42Z</time>
      </trkpt>
      <trkpt lat="47.73141" lon="-0.16429">
        <ele>53</ele>
        <time>2020-07-20T18:46:45Z</time>
      </trkpt>
      <trkpt lat="47.73122" lon="-0.16484">
        <ele>54</ele>
        <time>2020-07-20T18:46:53Z</time>
      </trkpt>
      <trkpt lat="47.73102" lon="-0.1651">
        <ele>56</ele>
        <time>2020-07-20T18:46:57Z</time>
      </trkpt>
      <trkpt lat="47.73055" lon="-0.16542">
        <ele>59</ele>
        <time>2020-07-20T18:47:07Z</time>
      </trkpt>
      <trkpt lat="47.73037" lon="-0.1655">
        <ele>60</ele>
        <time>2020-07-20T18:47:10Z</time>
      </trkpt>
      <trkpt lat="47.7302" lon="-0.16554">
        <ele>61</ele>
        <time>2020-07-20T18:47:13Z</time>
      </trkpt>
      <trkpt lat="47.72916" lon="-0.16526">
        <ele>64</ele>
        <time>2020-07-20T18:47:32Z</time>
      </trkpt>
      <trkpt lat="47.7285" lon="-0.16503">
        <ele>68</ele>
        <time>2020-07-20T18:47:44Z</time>
      </trkpt>
      <trkpt lat="47.72838" lon="-0.16501">
        <ele>69</ele>
        <time>2020-07-20T18:47:46Z</time>
      </trkpt>
      <trkpt lat="47.72826" lon="-0.16503">
        <ele>69</ele>
        <time>2020-07-20T18:47:48Z</time>
      </trkpt>
      <trkpt lat="47.72814" lon="-0.1652">
        <ele>68</ele>
        <time>2020-07-20T18:47:51Z</time>
      </trkpt>
      <trkpt lat="47.72787" lon="-0.16573">
        <ele>68</ele>
        <time>2020-07-20T18:47:59Z</time>
      </trkpt>
      <trkpt lat="47.72775" lon="-0.16588">
        <ele>68</ele>
        <time>2020-07-20T18:48:02Z</time>
      </trkpt>
      <trkpt lat="47.72756" lon="-0.16606">
        <ele>68</ele>
        <time>2020-07-20T18:48:06Z</time>
      </trkpt>
      <trkpt lat="47.72673" lon="-0.16665">
        <ele>69</ele>
        <time>2020-07-20T18:48:22Z</time>
      </trkpt>
      <trkpt lat="47.72641" lon="-0.16683">
        <ele>70</ele>
        <time>2020-07-20T18:48:28Z</time>
      </trkpt>
      <trkpt lat="47.72621" lon="-0.16691">
        <ele>71</ele>
        <time>2020-07-20T18:48:32Z</time>
      </trkpt>
      <trkpt lat="47.72489" lon="-0.1673">
        <ele>80</ele>
        <time>2020-07-20T18:48:56Z</time>
      </trkpt>
      <trkpt lat="47.72408" lon="-0.16765">
        <ele>82</ele>
        <time>2020-07-20T18:49:11Z</time>
      </trkpt>
      <trkpt lat="47.72366" lon="-0.16776">
        <ele>79</ele>
        <time>2020-07-20T18:49:19Z</time>
      </trkpt>
      <trkpt lat="47.72295" lon="-0.16775">
        <ele>77</ele>
        <time>2020-07-20T18:49:31Z</time>
      </trkpt>
      <trkpt lat="47.71891" lon="-0.16721">
        <ele>100</ele>
        <time>2020-07-20T18:50:43Z</time>
      </trkpt>
      <trkpt lat="47.71868" lon="-0.16715">
        <ele>99</ele>
        <time>2020-07-20T18:50:48Z</time>
      </trkpt>
      <trkpt lat="47.71824" lon="-0.16696">
        <ele>99</ele>
        <time>2020-07-20T18:50:56Z</time>
      </trkpt>
      <trkpt lat="47.71746" lon="-0.16653">
        <ele>97</ele>
        <time>2020-07-20T18:51:11Z</time>
      </trkpt>
      <trkpt lat="47.71721" lon="-0.16644">
        <ele>97</ele>
        <time>2020-07-20T18:51:15Z</time>
      </trkpt>
      <trkpt lat="47.71704" lon="-0.16642">
        <ele>97</ele>
        <time>2020-07-20T18:51:18Z</time>
      </trkpt>
      <trkpt lat="47.71643" lon="-0.16642">
        <ele>97</ele>
        <time>2020-07-20T18:51:29Z</time>
      </trkpt>
      <trkpt lat="47.71562" lon="-0.16649">
        <ele>97</ele>
        <time>2020-07-20T18:51:43Z</time>
      </trkpt>
      <trkpt lat="47.71486" lon="-0.16659">
        <ele>97</ele>
        <time>2020-07-20T18:51:57Z</time>
      </trkpt>
      <trkpt lat="47.7147" lon="-0.16664">
        <ele>97</ele>
        <time>2020-07-20T18:52:00Z</time>
      </trkpt>
      <trkpt lat="47.71441" lon="-0.16679">
        <ele>96</ele>
        <time>2020-07-20T18:52:05Z</time>
      </trkpt>
      <trkpt lat="47.71406" lon="-0.16707">
        <ele>96</ele>
        <time>2020-07-20T18:52:12Z</time>
      </trkpt>
      <trkpt lat="47.71348" lon="-0.1674">
        <ele>94</ele>
        <time>2020-07-20T18:52:23Z</time>
      </trkpt>
      <trkpt lat="47.71315" lon="-0.16757">
        <ele>94</ele>
        <time>2020-07-20T18:52:30Z</time>
      </trkpt>
      <trkpt lat="47.71208" lon="-0.16805">
        <ele>92</ele>
        <time>2020-07-20T18:52:50Z</time>
      </trkpt>
      <trkpt lat="47.71182" lon="-0.16822">
        <ele>91</ele>
        <time>2020-07-20T18:52:55Z</time>
      </trkpt>
      <trkpt lat="47.71125" lon="-0.16882">
        <ele>91</ele>
        <time>2020-07-20T18:53:07Z</time>
      </trkpt>
      <trkpt lat="47.71105" lon="-0.16899">
        <ele>91</ele>
        <time>2020-07-20T18:53:11Z</time>
      </trkpt>
      <trkpt lat="47.71051" lon="-0.16929">
        <ele>92</ele>
        <time>2020-07-20T18:53:21Z</time>
      </trkpt>
      <trkpt lat="47.70966" lon="-0.16969">
        <ele>93</ele>
        <time>2020-07-20T18:53:37Z</time>
      </trkpt>
      <trkpt lat="47.70905" lon="-0.17002">
        <ele>93</ele>
        <time>2020-07-20T18:53:49Z</time>
      </trkpt>
      <trkpt lat="47.70876" lon="-0.17022">
        <ele>91</ele>
        <time>2020-07-20T18:53:55Z</time>
      </trkpt>
      <trkpt lat="47.70846" lon="-0.17054">
        <ele>89</ele>
        <time>2020-07-20T18:54:01Z</time>
      </trkpt>
      <trkpt lat="47.70789" lon="-0.17142">
        <ele>84</ele>
        <time>2020-07-20T18:54:16Z</time>
      </trkpt>
      <trkpt lat="47.70775" lon="-0.17157">
        <ele>83</ele>
        <time>2020-07-20T18:54:19Z</time>
      </trkpt>
      <trkpt lat="47.70752" lon="-0.17173">
        <ele>82</ele>
        <time>2020-07-20T18:54:23Z</time>
      </trkpt>
      <trkpt lat="47.70715" lon="-0.17187">
        <ele>82</ele>
        <time>2020-07-20T18:54:30Z</time>
      </trkpt>
      <trkpt lat="47.70661" lon="-0.17196">
        <ele>81</ele>
        <time>2020-07-20T18:54:40Z</time>
      </trkpt>
      <trkpt lat="47.7058" lon="-0.17199">
        <ele>79</ele>
        <time>2020-07-20T18:54:54Z</time>
      </trkpt>
      <trkpt lat="47.70531" lon="-0.17196">
        <ele>79</ele>
        <time>2020-07-20T18:55:03Z</time>
      </trkpt>
      <trkpt lat="47.70465" lon="-0.1718">
        <ele>78</ele>
        <time>2020-07-20T18:55:15Z</time>
      </trkpt>
      <trkpt lat="47.70365" lon="-0.17168">
        <ele>79</ele>
        <time>2020-07-20T18:55:33Z</time>
      </trkpt>
      <trkpt lat="47.7033" lon="-0.17166">
        <ele>80</ele>
        <time>2020-07-20T18:55:39Z</time>
      </trkpt>
      <trkpt lat="47.70269" lon="-0.17173">
        <ele>81</ele>
        <time>2020-07-20T18:55:50Z</time>
      </trkpt>
      <trkpt lat="47.70251" lon="-0.17179">
        <ele>81</ele>
        <time>2020-07-20T18:55:53Z</time>
      </trkpt>
      <trkpt lat="47.70238" lon="-0.17187">
        <ele>80</ele>
        <time>2020-07-20T18:55:56Z</time>
      </trkpt>
      <trkpt lat="47.70173" lon="-0.17241">
        <ele>77</ele>
        <time>2020-07-20T18:56:09Z</time>
      </trkpt>
      <trkpt lat="47.70146" lon="-0.17256">
        <ele>77</ele>
        <time>2020-07-20T18:56:14Z</time>
      </trkpt>
      <trkpt lat="47.70129" lon="-0.17258">
        <ele>76</ele>
        <time>2020-07-20T18:56:17Z</time>
      </trkpt>
      <trkpt lat="47.70075" lon="-0.17248">
        <ele>75</ele>
        <time>2020-07-20T18:56:27Z</time>
      </trkpt>
      <trkpt lat="47.7006" lon="-0.17248">
        <ele>75</ele>
        <time>2020-07-20T18:56:29Z</time>
      </trkpt>
      <trkpt lat="47.70041" lon="-0.17252">
        <ele>75</ele>
        <time>2020-07-20T18:56:33Z</time>
      </trkpt>
      <trkpt lat="47.69959" lon="-0.17283">
        <ele>73</ele>
        <time>2020-07-20T18:56:48Z</time>
      </trkpt>
      <trkpt lat="47.6989" lon="-0.1733">
        <ele>67</ele>
        <time>2020-07-20T18:57:01Z</time>
      </trkpt>
      <trkpt lat="47.6987" lon="-0.17337">
        <ele>65</ele>
        <time>2020-07-20T18:57:05Z</time>
      </trkpt>
      <trkpt lat="47.69856" lon="-0.17337">
        <ele>63</ele>
        <time>2020-07-20T18:57:07Z</time>
      </trkpt>
      <trkpt lat="47.69802" lon="-0.17327">
        <ele>57</ele>
        <time>2020-07-20T18:57:17Z</time>
      </trkpt>
      <trkpt lat="47.69774" lon="-0.17328">
        <ele>53</ele>
        <time>2020-07-20T18:57:22Z</time>
      </trkpt>
      <trkpt lat="47.69724" lon="-0.17337">
        <ele>48</ele>
        <time>2020-07-20T18:57:31Z</time>
      </trkpt>
      <trkpt lat="47.69676" lon="-0.17349">
        <ele>44</ele>
        <time>2020-07-20T18:57:40Z</time>
      </trkpt>
      <trkpt lat="47.69664" lon="-0.17349">
        <ele>43</ele>
        <time>2020-07-20T18:57:42Z</time>
      </trkpt>
      <trkpt lat="47.69654" lon="-0.17346">
        <ele>42</ele>
        <time>2020-07-20T18:57:44Z</time>
      </trkpt>
      <trkpt lat="47.69629" lon="-0.17332">
        <ele>39</ele>
        <time>2020-07-20T18:57:48Z</time>
      </trkpt>
      <trkpt lat="47.69502" lon="-0.17246">
        <ele>32</ele>
        <time>2020-07-20T18:58:13Z</time>
      </trkpt>
      <trkpt lat="47.69429" lon="-0.17201">
        <ele>29</ele>
        <time>2020-07-20T18:58:27Z</time>
      </trkpt>
      <trkpt lat="47.69153" lon="-0.16972">
        <ele>29</ele>
        <time>2020-07-20T18:59:24Z</time>
      </trkpt>
      <trkpt lat="47.69036" lon="-0.16853">
        <ele>29</ele>
        <time>2020-07-20T18:59:49Z</time>
      </trkpt>
      <trkpt lat="47.69027" lon="-0.16848">
        <ele>29</ele>
        <time>2020-07-20T18:59:51Z</time>
      </trkpt>
      <trkpt lat="47.69007" lon="-0.16842">
        <ele>29</ele>
        <time>2020-07-20T18:59:54Z</time>
      </trkpt>
      <trkpt lat="47.68973" lon="-0.16844">
        <ele>29</ele>
        <time>2020-07-20T19:00:00Z</time>
      </trkpt>
      <trkpt lat="47.68951" lon="-0.16837">
        <ele>30</ele>
        <time>2020-07-20T19:00:04Z</time>
      </trkpt>
      <trkpt lat="47.68913" lon="-0.16937">
        <ele>30</ele>
        <time>2020-07-20T19:00:18Z</time>
      </trkpt>
      <trkpt lat="47.68896" lon="-0.17012">
        <ele>30</ele>
        <time>2020-07-20T19:00:27Z</time>
      </trkpt>
      <trkpt lat="47.68884" lon="-0.17006">
        <ele>29</ele>
        <time>2020-07-20T19:00:30Z</time>
      </trkpt>
      <trkpt lat="47.68742" lon="-0.17011">
        <ele>27</ele>
        <time>2020-07-20T19:00:55Z</time>
      </trkpt>
      <trkpt lat="47.68716" lon="-0.17007">
        <ele>27</ele>
        <time>2020-07-20T19:01:00Z</time>
      </trkpt>
      <trkpt lat="47.68697" lon="-0.16993">
        <ele>27</ele>
        <time>2020-07-20T19:01:03Z</time>
      </trkpt>
      <trkpt lat="47.68688" lon="-0.16982">
        <ele>27</ele>
        <time>2020-07-20T19:01:05Z</time>
      </trkpt>
      <trkpt lat="47.6864" lon="-0.16897">
        <ele>26</ele>
        <time>2020-07-20T19:01:19Z</time>
      </trkpt>
      <trkpt lat="47.68622" lon="-0.16878">
        <ele>26</ele>
        <time>2020-07-20T19:01:23Z</time>
      </trkpt>
      <trkpt lat="47.68593" lon="-0.1686">
        <ele>26</ele>
        <time>2020-07-20T19:01:28Z</time>
      </trkpt>
      <trkpt lat="47.68571" lon="-0.16852">
        <ele>26</ele>
        <time>2020-07-20T19:01:32Z</time>
      </trkpt>
      <trkpt lat="47.68528" lon="-0.16843">
        <ele>25</ele>
        <time>2020-07-20T19:01:40Z</time>
      </trkpt>
      <trkpt lat="47.68484" lon="-0.16843">
        <ele>25</ele>
        <time>2020-07-20T19:01:48Z</time>
      </trkpt>
      <trkpt lat="47.68418" lon="-0.16849">
        <ele>24</ele>
        <time>2020-07-20T19:02:00Z</time>
      </trkpt>
      <trkpt lat="47.6839" lon="-0.16848">
        <ele>25</ele>
        <time>2020-07-20T19:02:05Z</time>
      </trkpt>
      <trkpt lat="47.68346" lon="-0.1684">
        <ele>26</ele>
        <time>2020-07-20T19:02:12Z</time>
      </trkpt>
      <trkpt lat="47.68285" lon="-0.16818">
        <ele>26</ele>
        <time>2020-07-20T19:02:24Z</time>
      </trkpt>
      <trkpt lat="47.6818" lon="-0.16767">
        <ele>25</ele>
        <time>2020-07-20T19:02:43Z</time>
      </trkpt>
      <trkpt lat="47.68164" lon="-0.16763">
        <ele>25</ele>
        <time>2020-07-20T19:02:46Z</time>
      </trkpt>
      <trkpt lat="47.68154" lon="-0.16764">
        <ele>26</ele>
        <time>2020-07-20T19:02:48Z</time>
      </trkpt>
      <trkpt lat="47.68127" lon="-0.16775">
        <ele>27</ele>
        <time>2020-07-20T19:02:53Z</time>
      </trkpt>
      <trkpt lat="47.68104" lon="-0.1679">
        <ele>28</ele>
        <time>2020-07-20T19:02:57Z</time>
      </trkpt>
      <trkpt lat="47.68066" lon="-0.16821">
        <ele>28</ele>
        <time>2020-07-20T19:03:05Z</time>
      </trkpt>
      <trkpt lat="47.68019" lon="-0.16866">
        <ele>27</ele>
        <time>2020-07-20T19:03:15Z</time>
      </trkpt>
      <trkpt lat="47.6795" lon="-0.16942">
        <ele>27</ele>
        <time>2020-07-20T19:03:30Z</time>
      </trkpt>
      <trkpt lat="47.67892" lon="-0.16997">
        <ele>27</ele>
        <time>2020-07-20T19:03:43Z</time>
      </trkpt>
      <trkpt lat="47.67827" lon="-0.17054">
        <ele>27</ele>
        <time>2020-07-20T19:03:56Z</time>
      </trkpt>
      <trkpt lat="47.67783" lon="-0.17081">
        <ele>25</ele>
        <time>2020-07-20T19:04:05Z</time>
      </trkpt>
      <trkpt lat="47.67745" lon="-0.17099">
        <ele>25</ele>
        <time>2020-07-20T19:04:12Z</time>
      </trkpt>
      <trkpt lat="47.67727" lon="-0.17111">
        <ele>26</ele>
        <time>2020-07-20T19:04:15Z</time>
      </trkpt>
      <trkpt lat="47.67664" lon="-0.17176">
        <ele>26</ele>
        <time>2020-07-20T19:04:29Z</time>
      </trkpt>
      <trkpt lat="47.6763" lon="-0.17199">
        <ele>25</ele>
        <time>2020-07-20T19:04:35Z</time>
      </trkpt>
      <trkpt lat="47.67548" lon="-0.17246">
        <ele>26</ele>
        <time>2020-07-20T19:04:51Z</time>
      </trkpt>
      <trkpt lat="47.67518" lon="-0.1726">
        <ele>27</ele>
        <time>2020-07-20T19:04:57Z</time>
      </trkpt>
      <trkpt lat="47.67488" lon="-0.17267">
        <ele>27</ele>
        <time>2020-07-20T19:05:02Z</time>
      </trkpt>
      <trkpt lat="47.67441" lon="-0.17267">
        <ele>27</ele>
        <time>2020-07-20T19:05:10Z</time>
      </trkpt>
      <trkpt lat="47.6737" lon="-0.1725">
        <ele>27</ele>
        <time>2020-07-20T19:05:23Z</time>
      </trkpt>
      <trkpt lat="47.67285" lon="-0.17243">
        <ele>27</ele>
        <time>2020-07-20T19:05:38Z</time>
      </trkpt>
      <trkpt lat="47.67262" lon="-0.17236">
        <ele>27</ele>
        <time>2020-07-20T19:05:43Z</time>
      </trkpt>
      <trkpt lat="47.67244" lon="-0.17226">
        <ele>27</ele>
        <time>2020-07-20T19:05:46Z</time>
      </trkpt>
      <trkpt lat="47.67123" lon="-0.17144">
        <ele>27</ele>
        <time>2020-07-20T19:06:10Z</time>
      </trkpt>
      <trkpt lat="47.67106" lon="-0.17135">
        <ele>27</ele>
        <time>2020-07-20T19:06:13Z</time>
      </trkpt>
      <trkpt lat="47.67013" lon="-0.17098">
        <ele>27</ele>
        <time>2020-07-20T19:06:30Z</time>
      </trkpt>
      <trkpt lat="47.66971" lon="-0.17085">
        <ele>27</ele>
        <time>2020-07-20T19:06:38Z</time>
      </trkpt>
      <trkpt lat="47.66938" lon="-0.17085">
        <ele>27</ele>
        <time>2020-07-20T19:06:43Z</time>
      </trkpt>
      <trkpt lat="47.66892" lon="-0.17098">
        <ele>27</ele>
        <time>2020-07-20T19:06:52Z</time>
      </trkpt>
      <trkpt lat="47.6681" lon="-0.17133">
        <ele>28</ele>
        <time>2020-07-20T19:07:07Z</time>
      </trkpt>
      <trkpt lat="47.66789" lon="-0.17145">
        <ele>27</ele>
        <time>2020-07-20T19:07:11Z</time>
      </trkpt>
      <trkpt lat="47.66763" lon="-0.17166">
        <ele>26</ele>
        <time>2020-07-20T19:07:16Z</time>
      </trkpt>
      <trkpt lat="47.66543" lon="-0.17411">
        <ele>25</ele>
        <time>2020-07-20T19:08:05Z</time>
      </trkpt>
      <trkpt lat="47.66512" lon="-0.17458">
        <ele>26</ele>
        <time>2020-07-20T19:08:13Z</time>
      </trkpt>
      <trkpt lat="47.66431" lon="-0.17643">
        <ele>25</ele>
        <time>2020-07-20T19:08:40Z</time>
      </trkpt>
      <trkpt lat="47.66402" lon="-0.17697">
        <ele>25</ele>
        <time>2020-07-20T19:08:48Z</time>
      </trkpt>
      <trkpt lat="47.6638" lon="-0.17731">
        <ele>25</ele>
        <time>2020-07-20T19:08:53Z</time>
      </trkpt>
      <trkpt lat="47.66295" lon="-0.1783">
        <ele>25</ele>
        <time>2020-07-20T19:09:13Z</time>
      </trkpt>
      <trkpt lat="47.66191" lon="-0.17978">
        <ele>25</ele>
        <time>2020-07-20T19:09:38Z</time>
      </trkpt>
      <trkpt lat="47.66081" lon="-0.18158">
        <ele>25</ele>
        <time>2020-07-20T19:10:07Z</time>
      </trkpt>
      <trkpt lat="47.66058" lon="-0.18207">
        <ele>25</ele>
        <time>2020-07-20T19:10:15Z</time>
      </trkpt>
      <trkpt lat="47.66025" lon="-0.18308">
        <ele>25</ele>
        <time>2020-07-20T19:10:28Z</time>
      </trkpt>
      <trkpt lat="47.66011" lon="-0.18366">
        <ele>25</ele>
        <time>2020-07-20T19:10:35Z</time>
      </trkpt>
      <trkpt lat="47.65987" lon="-0.18565">
        <ele>25</ele>
        <time>2020-07-20T19:11:00Z</time>
      </trkpt>
      <trkpt lat="47.65964" lon="-0.18668">
        <ele>26</ele>
        <time>2020-07-20T19:11:13Z</time>
      </trkpt>
      <trkpt lat="47.65931" lon="-0.18835">
        <ele>24</ele>
        <time>2020-07-20T19:11:34Z</time>
      </trkpt>
      <trkpt lat="47.65897" lon="-0.18962">
        <ele>25</ele>
        <time>2020-07-20T19:11:50Z</time>
      </trkpt>
      <trkpt lat="47.65858" lon="-0.19147">
        <ele>27</ele>
        <time>2020-07-20T19:12:13Z</time>
      </trkpt>
      <trkpt lat="47.65805" lon="-0.19356">
        <ele>31</ele>
        <time>2020-07-20T19:12:40Z</time>
      </trkpt>
      <trkpt lat="47.65778" lon="-0.19533">
        <ele>38</ele>
        <time>2020-07-20T19:13:02Z</time>
      </trkpt>
      <trkpt lat="47.65768" lon="-0.19581">
        <ele>40</ele>
        <time>2020-07-20T19:13:08Z</time>
      </trkpt>
      <trkpt lat="47.65757" lon="-0.19627">
        <ele>39</ele>
        <time>2020-07-20T19:13:14Z</time>
      </trkpt>
      <trkpt lat="47.65708" lon="-0.19775">
        <ele>40</ele>
        <time>2020-07-20T19:13:33Z</time>
      </trkpt>
      <trkpt lat="47.65686" lon="-0.19851">
        <ele>39</ele>
        <time>2020-07-20T19:13:43Z</time>
      </trkpt>
      <trkpt lat="47.65608" lon="-0.20138">
        <ele>38</ele>
        <time>2020-07-20T19:14:20Z</time>
      </trkpt>
      <trkpt lat="47.65599" lon="-0.20165">
        <ele>38</ele>
        <time>2020-07-20T19:14:24Z</time>
      </trkpt>
      <trkpt lat="47.6559" lon="-0.20183">
        <ele>38</ele>
        <time>2020-07-20T19:14:27Z</time>
      </trkpt>
      <trkpt lat="47.65575" lon="-0.20201">
        <ele>37</ele>
        <time>2020-07-20T19:14:30Z</time>
      </trkpt>
      <trkpt lat="47.65564" lon="-0.2021">
        <ele>37</ele>
        <time>2020-07-20T19:14:32Z</time>
      </trkpt>
      <trkpt lat="47.65531" lon="-0.20231">
        <ele>36</ele>
        <time>2020-07-20T19:14:39Z</time>
      </trkpt>
      <trkpt lat="47.65341" lon="-0.20348">
        <ele>35</ele>
        <time>2020-07-20T19:15:15Z</time>
      </trkpt>
      <trkpt lat="47.65218" lon="-0.20414">
        <ele>37</ele>
        <time>2020-07-20T19:15:39Z</time>
      </trkpt>
      <trkpt lat="47.65164" lon="-0.20456">
        <ele>36</ele>
        <time>2020-07-20T19:15:49Z</time>
      </trkpt>
      <trkpt lat="47.6511" lon="-0.20509">
        <ele>36</ele>
        <time>2020-07-20T19:16:01Z</time>
      </trkpt>
      <trkpt lat="47.6511" lon="-0.20538">
        <ele>37</ele>
        <time>2020-07-20T19:16:04Z</time>
      </trkpt>
      <trkpt lat="47.65078" lon="-0.20548">
        <ele>37</ele>
        <time>2020-07-20T19:16:10Z</time>
      </trkpt>
      <trkpt lat="47.65073" lon="-0.20553">
        <ele>37</ele>
        <time>2020-07-20T19:16:11Z</time>
      </trkpt>
      <trkpt lat="47.65063" lon="-0.20603">
        <ele>38</ele>
        <time>2020-07-20T19:16:17Z</time>
      </trkpt>
      <trkpt lat="47.65044" lon="-0.20654">
        <ele>39</ele>
        <time>2020-07-20T19:16:24Z</time>
      </trkpt>
      <trkpt lat="47.65021" lon="-0.20671">
        <ele>39</ele>
        <time>2020-07-20T19:16:29Z</time>
      </trkpt>
      <trkpt lat="47.64988" lon="-0.20683">
        <ele>39</ele>
        <time>2020-07-20T19:16:35Z</time>
      </trkpt>
      <trkpt lat="47.64967" lon="-0.20687">
        <ele>38</ele>
        <time>2020-07-20T19:16:39Z</time>
      </trkpt>
      <trkpt lat="47.64949" lon="-0.20686">
        <ele>38</ele>
        <time>2020-07-20T19:16:42Z</time>
      </trkpt>
      <trkpt lat="47.64889" lon="-0.20798">
        <ele>38</ele>
        <time>2020-07-20T19:16:59Z</time>
      </trkpt>
      <trkpt lat="47.64854" lon="-0.20897">
        <ele>38</ele>
        <time>2020-07-20T19:17:13Z</time>
      </trkpt>
      <trkpt lat="47.64846" lon="-0.20911">
        <ele>38</ele>
        <time>2020-07-20T19:17:15Z</time>
      </trkpt>
      <trkpt lat="47.64808" lon="-0.20958">
        <ele>38</ele>
        <time>2020-07-20T19:17:24Z</time>
      </trkpt>
      <trkpt lat="47.64732" lon="-0.2102">
        <ele>38</ele>
        <time>2020-07-20T19:17:39Z</time>
      </trkpt>
      <trkpt lat="47.64714" lon="-0.21038">
        <ele>38</ele>
        <time>2020-07-20T19:17:43Z</time>
      </trkpt>
      <trkpt lat="47.64683" lon="-0.21078">
        <ele>37</ele>
        <time>2020-07-20T19:17:50Z</time>
      </trkpt>
      <trkpt lat="47.64673" lon="-0.21098">
        <ele>37</ele>
        <time>2020-07-20T19:17:53Z</time>
      </trkpt>
      <trkpt lat="47.64644" lon="-0.21186">
        <ele>35</ele>
        <time>2020-07-20T19:18:05Z</time>
      </trkpt>
      <trkpt lat="47.64633" lon="-0.21203">
        <ele>35</ele>
        <time>2020-07-20T19:18:08Z</time>
      </trkpt>
      <trkpt lat="47.64623" lon="-0.21215">
        <ele>35</ele>
        <time>2020-07-20T19:18:10Z</time>
      </trkpt>
      <trkpt lat="47.64587" lon="-0.21222">
        <ele>35</ele>
        <time>2020-07-20T19:18:17Z</time>
      </trkpt>
      <trkpt lat="47.64567" lon="-0.21229">
        <ele>35</ele>
        <time>2020-07-20T19:18:20Z</time>
      </trkpt>
      <trkpt lat="47.64546" lon="-0.21245">
        <ele>35</ele>
        <time>2020-07-20T19:18:24Z</time>
      </trkpt>
      <trkpt lat="47.64521" lon="-0.21275">
        <ele>35</ele>
        <time>2020-07-20T19:18:30Z</time>
      </trkpt>
      <trkpt lat="47.64458" lon="-0.21387">
        <ele>35</ele>
        <time>2020-07-20T19:18:48Z</time>
      </trkpt>
      <trkpt lat="47.64427" lon="-0.21436">
        <ele>33</ele>
        <time>2020-07-20T19:18:56Z</time>
      </trkpt>
      <trkpt lat="47.6432" lon="-0.21582">
        <ele>28</ele>
        <time>2020-07-20T19:19:22Z</time>
      </trkpt>
      <trkpt lat="47.64256" lon="-0.21683">
        <ele>30</ele>
        <time>2020-07-20T19:19:38Z</time>
      </trkpt>
      <trkpt lat="47.6425" lon="-0.21698">
        <ele>30</ele>
        <time>2020-07-20T19:19:40Z</time>
      </trkpt>
      <trkpt lat="47.64243" lon="-0.2174">
        <ele>31</ele>
        <time>2020-07-20T19:19:45Z</time>
      </trkpt>
      <trkpt lat="47.64197" lon="-0.2212">
        <ele>36</ele>
        <time>2020-07-20T19:20:32Z</time>
      </trkpt>
      <trkpt lat="47.64187" lon="-0.22158">
        <ele>36</ele>
        <time>2020-07-20T19:20:37Z</time>
      </trkpt>
      <trkpt lat="47.64179" lon="-0.22177">
        <ele>36</ele>
        <time>2020-07-20T19:20:39Z</time>
      </trkpt>
      <trkpt lat="47.64016" lon="-0.22454">
        <ele>37</ele>
        <time>2020-07-20T19:21:23Z</time>
      </trkpt>
      <trkpt lat="47.63957" lon="-0.22548">
        <ele>42</ele>
        <time>2020-07-20T19:21:39Z</time>
      </trkpt>
      <trkpt lat="47.63914" lon="-0.22608">
        <ele>44</ele>
        <time>2020-07-20T19:21:49Z</time>
      </trkpt>
      <trkpt lat="47.63871" lon="-0.2266">
        <ele>46</ele>
        <time>2020-07-20T19:21:59Z</time>
      </trkpt>
      <trkpt lat="47.63477" lon="-0.23164">
        <ele>41</ele>
        <time>2020-07-20T19:23:32Z</time>
      </trkpt>
      <trkpt lat="47.63117" lon="-0.23632">
        <ele>45</ele>
        <time>2020-07-20T19:24:57Z</time>
      </trkpt>
      <trkpt lat="47.63031" lon="-0.23735">
        <ele>47</ele>
        <time>2020-07-20T19:25:17Z</time>
      </trkpt>
      <trkpt lat="47.6297" lon="-0.23802">
        <ele>46</ele>
        <time>2020-07-20T19:25:30Z</time>
      </trkpt>
      <trkpt lat="47.62898" lon="-0.23889">
        <ele>44</ele>
        <time>2020-07-20T19:25:47Z</time>
      </trkpt>
      <trkpt lat="47.62648" lon="-0.2417">
        <ele>45</ele>
        <time>2020-07-20T19:26:42Z</time>
      </trkpt>
      <trkpt lat="47.62255" lon="-0.2462">
        <ele>47</ele>
        <time>2020-07-20T19:28:11Z</time>
      </trkpt>
      <trkpt lat="47.61922" lon="-0.25007">
        <ele>46</ele>
        <time>2020-07-20T19:29:26Z</time>
      </trkpt>
      <trkpt lat="47.61239" lon="-0.25071">
        <ele>48</ele>
        <time>2020-07-20T19:31:28Z</time>
      </trkpt>
      <trkpt lat="47.61225" lon="-0.25113">
        <ele>48</ele>
        <time>2020-07-20T19:31:33Z</time>
      </trkpt>
      <trkpt lat="47.61101" lon="-0.25442">
        <ele>48</ele>
        <time>2020-07-20T19:32:19Z</time>
      </trkpt>
      <trkpt lat="47.60974" lon="-0.25769">
        <ele>51</ele>
        <time>2020-07-20T19:33:04Z</time>
      </trkpt>
      <trkpt lat="47.60492" lon="-0.27043">
        <ele>57</ele>
        <time>2020-07-20T19:35:59Z</time>
      </trkpt>
      <trkpt lat="47.60199" lon="-0.27808">
        <ele>50</ele>
        <time>2020-07-20T19:37:45Z</time>
      </trkpt>
      <trkpt lat="47.60149" lon="-0.27927">
        <ele>50</ele>
        <time>2020-07-20T19:38:01Z</time>
      </trkpt>
      <trkpt lat="47.60054" lon="-0.28099">
        <ele>50</ele>
        <time>2020-07-20T19:38:28Z</time>
      </trkpt>
      <trkpt lat="47.60034" lon="-0.28127">
        <ele>50</ele>
        <time>2020-07-20T19:38:33Z</time>
      </trkpt>
      <trkpt lat="47.60007" lon="-0.28157">
        <ele>48</ele>
        <time>2020-07-20T19:38:39Z</time>
      </trkpt>
      <trkpt lat="47.59987" lon="-0.28189">
        <ele>48</ele>
        <time>2020-07-20T19:38:44Z</time>
      </trkpt>
      <trkpt lat="47.59961" lon="-0.28242">
        <ele>48</ele>
        <time>2020-07-20T19:38:52Z</time>
      </trkpt>
      <trkpt lat="47.59895" lon="-0.28433">
        <ele>52</ele>
        <time>2020-07-20T19:39:18Z</time>
      </trkpt>
      <trkpt lat="47.59877" lon="-0.28472">
        <ele>53</ele>
        <time>2020-07-20T19:39:24Z</time>
      </trkpt>
      <trkpt lat="47.59854" lon="-0.28508">
        <ele>53</ele>
        <time>2020-07-20T19:39:29Z</time>
      </trkpt>
      <trkpt lat="47.59823" lon="-0.28541">
        <ele>53</ele>
        <time>2020-07-20T19:39:36Z</time>
      </trkpt>
      <trkpt lat="47.59792" lon="-0.28566">
        <ele>53</ele>
        <time>2020-07-20T19:39:43Z</time>
      </trkpt>
      <trkpt lat="47.59707" lon="-0.28618">
        <ele>53</ele>
        <time>2020-07-20T19:39:59Z</time>
      </trkpt>
      <trkpt lat="47.59669" lon="-0.28637">
        <ele>53</ele>
        <time>2020-07-20T19:40:06Z</time>
      </trkpt>
      <trkpt lat="47.59631" lon="-0.2866">
        <ele>53</ele>
        <time>2020-07-20T19:40:13Z</time>
      </trkpt>
      <trkpt lat="47.59519" lon="-0.28817">
        <ele>54</ele>
        <time>2020-07-20T19:40:41Z</time>
      </trkpt>
      <trkpt lat="47.59475" lon="-0.28896">
        <ele>55</ele>
        <time>2020-07-20T19:40:53Z</time>
      </trkpt>
      <trkpt lat="47.59453" lon="-0.28951">
        <ele>57</ele>
        <time>2020-07-20T19:41:01Z</time>
      </trkpt>
      <trkpt lat="47.59424" lon="-0.29037">
        <ele>59</ele>
        <time>2020-07-20T19:41:12Z</time>
      </trkpt>
      <trkpt lat="47.59269" lon="-0.29335">
        <ele>66</ele>
        <time>2020-07-20T19:41:57Z</time>
      </trkpt>
      <trkpt lat="47.59254" lon="-0.29385">
        <ele>65</ele>
        <time>2020-07-20T19:42:04Z</time>
      </trkpt>
      <trkpt lat="47.59223" lon="-0.29709">
        <ele>65</ele>
        <time>2020-07-20T19:42:43Z</time>
      </trkpt>
      <trkpt lat="47.59177" lon="-0.29903">
        <ele>61</ele>
        <time>2020-07-20T19:43:08Z</time>
      </trkpt>
      <trkpt lat="47.59135" lon="-0.30064">
        <ele>61</ele>
        <time>2020-07-20T19:43:29Z</time>
      </trkpt>
      <trkpt lat="47.59121" lon="-0.30155">
        <ele>56</ele>
        <time>2020-07-20T19:43:40Z</time>
      </trkpt>
      <trkpt lat="47.59112" lon="-0.30253">
        <ele>52</ele>
        <time>2020-07-20T19:43:52Z</time>
      </trkpt>
      <trkpt lat="47.59082" lon="-0.3033">
        <ele>51</ele>
        <time>2020-07-20T19:44:02Z</time>
      </trkpt>
      <trkpt lat="47.59037" lon="-0.30421">
        <ele>49</ele>
        <time>2020-07-20T19:44:16Z</time>
      </trkpt>
      <trkpt lat="47.5896" lon="-0.30542">
        <ele>46</ele>
        <time>2020-07-20T19:44:36Z</time>
      </trkpt>
      <trkpt lat="47.58894" lon="-0.30673">
        <ele>45</ele>
        <time>2020-07-20T19:44:55Z</time>
      </trkpt>
      <trkpt lat="47.58869" lon="-0.30719">
        <ele>44</ele>
        <time>2020-07-20T19:45:03Z</time>
      </trkpt>
      <trkpt lat="47.58851" lon="-0.30746">
        <ele>44</ele>
        <time>2020-07-20T19:45:07Z</time>
      </trkpt>
      <trkpt lat="47.58733" lon="-0.30864">
        <ele>47</ele>
        <time>2020-07-20T19:45:32Z</time>
      </trkpt>
      <trkpt lat="47.58693" lon="-0.30914">
        <ele>48</ele>
        <time>2020-07-20T19:45:42Z</time>
      </trkpt>
      <trkpt lat="47.58647" lon="-0.30984">
        <ele>49</ele>
        <time>2020-07-20T19:45:54Z</time>
      </trkpt>
      <trkpt lat="47.58553" lon="-0.31097">
        <ele>47</ele>
        <time>2020-07-20T19:46:15Z</time>
      </trkpt>
      <trkpt lat="47.58534" lon="-0.31123">
        <ele>47</ele>
        <time>2020-07-20T19:46:20Z</time>
      </trkpt>
      <trkpt lat="47.58514" lon="-0.31157">
        <ele>47</ele>
        <time>2020-07-20T19:46:25Z</time>
      </trkpt>
      <trkpt lat="47.58481" lon="-0.31234">
        <ele>46</ele>
        <time>2020-07-20T19:46:36Z</time>
      </trkpt>
      <trkpt lat="47.5847" lon="-0.31252">
        <ele>46</ele>
        <time>2020-07-20T19:46:39Z</time>
      </trkpt>
      <trkpt lat="47.58456" lon="-0.31272">
        <ele>46</ele>
        <time>2020-07-20T19:46:42Z</time>
      </trkpt>
      <trkpt lat="47.58375" lon="-0.31369">
        <ele>45</ele>
        <time>2020-07-20T19:47:01Z</time>
      </trkpt>
      <trkpt lat="47.58349" lon="-0.31404">
        <ele>44</ele>
        <time>2020-07-20T19:47:07Z</time>
      </trkpt>
      <trkpt lat="47.58332" lon="-0.31437">
        <ele>44</ele>
        <time>2020-07-20T19:47:12Z</time>
      </trkpt>
      <trkpt lat="47.58321" lon="-0.31471">
        <ele>45</ele>
        <time>2020-07-20T19:47:17Z</time>
      </trkpt>
      <trkpt lat="47.58284" lon="-0.31642">
        <ele>48</ele>
        <time>2020-07-20T19:47:38Z</time>
      </trkpt>
      <trkpt lat="47.58251" lon="-0.31781">
        <ele>50</ele>
        <time>2020-07-20T19:47:56Z</time>
      </trkpt>
      <trkpt lat="47.58242" lon="-0.31807">
        <ele>50</ele>
        <time>2020-07-20T19:47:59Z</time>
      </trkpt>
      <trkpt lat="47.58226" lon="-0.31831">
        <ele>49</ele>
        <time>2020-07-20T19:48:03Z</time>
      </trkpt>
      <trkpt lat="47.58189" lon="-0.31871">
        <ele>46</ele>
        <time>2020-07-20T19:48:12Z</time>
      </trkpt>
      <trkpt lat="47.5813" lon="-0.31929">
        <ele>41</ele>
        <time>2020-07-20T19:48:24Z</time>
      </trkpt>
      <trkpt lat="47.58108" lon="-0.31958">
        <ele>39</ele>
        <time>2020-07-20T19:48:29Z</time>
      </trkpt>
      <trkpt lat="47.58097" lon="-0.31981">
        <ele>38</ele>
        <time>2020-07-20T19:48:33Z</time>
      </trkpt>
      <trkpt lat="47.58091" lon="-0.31999">
        <ele>37</ele>
        <time>2020-07-20T19:48:35Z</time>
      </trkpt>
      <trkpt lat="47.58088" lon="-0.32019">
        <ele>37</ele>
        <time>2020-07-20T19:48:38Z</time>
      </trkpt>
      <trkpt lat="47.58088" lon="-0.32063">
        <ele>37</ele>
        <time>2020-07-20T19:48:43Z</time>
      </trkpt>
      <trkpt lat="47.58104" lon="-0.32194">
        <ele>37</ele>
        <time>2020-07-20T19:48:59Z</time>
      </trkpt>
      <trkpt lat="47.58124" lon="-0.32273">
        <ele>36</ele>
        <time>2020-07-20T19:49:09Z</time>
      </trkpt>
      <trkpt lat="47.58129" lon="-0.3231">
        <ele>36</ele>
        <time>2020-07-20T19:49:14Z</time>
      </trkpt>
      <trkpt lat="47.58132" lon="-0.32342">
        <ele>36</ele>
        <time>2020-07-20T19:49:17Z</time>
      </trkpt>
      <trkpt lat="47.58128" lon="-0.32378">
        <ele>36</ele>
        <time>2020-07-20T19:49:22Z</time>
      </trkpt>
      <trkpt lat="47.58114" lon="-0.32435">
        <ele>36</ele>
        <time>2020-07-20T19:49:29Z</time>
      </trkpt>
      <trkpt lat="47.58099" lon="-0.32468">
        <ele>36</ele>
        <time>2020-07-20T19:49:34Z</time>
      </trkpt>
      <trkpt lat="47.58057" lon="-0.32489">
        <ele>37</ele>
        <time>2020-07-20T19:49:42Z</time>
      </trkpt>
      <trkpt lat="47.58018" lon="-0.32502">
        <ele>38</ele>
        <time>2020-07-20T19:49:49Z</time>
      </trkpt>
      <trkpt lat="47.58012" lon="-0.3251">
        <ele>38</ele>
        <time>2020-07-20T19:49:50Z</time>
      </trkpt>
      <trkpt lat="47.58017" lon="-0.32529">
        <ele>38</ele>
        <time>2020-07-20T19:49:53Z</time>
      </trkpt>
      <trkpt lat="47.5802" lon="-0.32576">
        <ele>38</ele>
        <time>2020-07-20T19:49:58Z</time>
      </trkpt>
      <trkpt lat="47.5801" lon="-0.32717">
        <ele>38</ele>
        <time>2020-07-20T19:50:15Z</time>
      </trkpt>
      <trkpt lat="47.58015" lon="-0.32763">
        <ele>37</ele>
        <time>2020-07-20T19:50:21Z</time>
      </trkpt>
      <trkpt lat="47.58031" lon="-0.32803">
        <ele>35</ele>
        <time>2020-07-20T19:50:27Z</time>
      </trkpt>
      <trkpt lat="47.58045" lon="-0.32822">
        <ele>34</ele>
        <time>2020-07-20T19:50:30Z</time>
      </trkpt>
      <trkpt lat="47.58065" lon="-0.32842">
        <ele>32</ele>
        <time>2020-07-20T19:50:34Z</time>
      </trkpt>
      <trkpt lat="47.58124" lon="-0.32918">
        <ele>31</ele>
        <time>2020-07-20T19:50:48Z</time>
      </trkpt>
      <trkpt lat="47.58132" lon="-0.32938">
        <ele>32</ele>
        <time>2020-07-20T19:50:51Z</time>
      </trkpt>
      <trkpt lat="47.58137" lon="-0.32959">
        <ele>33</ele>
        <time>2020-07-20T19:50:54Z</time>
      </trkpt>
      <trkpt lat="47.58138" lon="-0.32991">
        <ele>34</ele>
        <time>2020-07-20T19:50:58Z</time>
      </trkpt>
      <trkpt lat="47.58136" lon="-0.33009">
        <ele>34</ele>
        <time>2020-07-20T19:51:00Z</time>
      </trkpt>
      <trkpt lat="47.58128" lon="-0.33041">
        <ele>36</ele>
        <time>2020-07-20T19:51:04Z</time>
      </trkpt>
      <trkpt lat="47.57947" lon="-0.3366">
        <ele>39</ele>
        <time>2020-07-20T19:52:25Z</time>
      </trkpt>
      <trkpt lat="47.57935" lon="-0.33708">
        <ele>38</ele>
        <time>2020-07-20T19:52:31Z</time>
      </trkpt>
      <trkpt lat="47.57928" lon="-0.33748">
        <ele>38</ele>
        <time>2020-07-20T19:52:36Z</time>
      </trkpt>
      <trkpt lat="47.57915" lon="-0.33942">
        <ele>37</ele>
        <time>2020-07-20T19:52:59Z</time>
      </trkpt>
      <trkpt lat="47.57908" lon="-0.33997">
        <ele>37</ele>
        <time>2020-07-20T19:53:06Z</time>
      </trkpt>
      <trkpt lat="47.57856" lon="-0.34317">
        <ele>40</ele>
        <time>2020-07-20T19:53:46Z</time>
      </trkpt>
      <trkpt lat="47.57844" lon="-0.34425">
        <ele>40</ele>
        <time>2020-07-20T19:53:59Z</time>
      </trkpt>
      <trkpt lat="47.57833" lon="-0.34582">
        <ele>39</ele>
        <time>2020-07-20T19:54:18Z</time>
      </trkpt>
      <trkpt lat="47.5783" lon="-0.34646">
        <ele>39</ele>
        <time>2020-07-20T19:54:25Z</time>
      </trkpt>
      <trkpt lat="47.57833" lon="-0.34702">
        <ele>39</ele>
        <time>2020-07-20T19:54:32Z</time>
      </trkpt>
      <trkpt lat="47.5784" lon="-0.34736">
        <ele>39</ele>
        <time>2020-07-20T19:54:36Z</time>
      </trkpt>
      <trkpt lat="47.57909" lon="-0.34966">
        <ele>43</ele>
        <time>2020-07-20T19:55:07Z</time>
      </trkpt>
      <trkpt lat="47.57919" lon="-0.35067">
        <ele>43</ele>
        <time>2020-07-20T19:55:19Z</time>
      </trkpt>
      <trkpt lat="47.5792" lon="-0.35212">
        <ele>42</ele>
        <time>2020-07-20T19:55:36Z</time>
      </trkpt>
      <trkpt lat="47.57917" lon="-0.35243">
        <ele>42</ele>
        <time>2020-07-20T19:55:40Z</time>
      </trkpt>
      <trkpt lat="47.5793" lon="-0.35249">
        <ele>42</ele>
        <time>2020-07-20T19:55:42Z</time>
      </trkpt>
      <trkpt lat="47.5794" lon="-0.35248">
        <ele>43</ele>
        <time>2020-07-20T19:55:44Z</time>
      </trkpt>
      <trkpt lat="47.57972" lon="-0.35231">
        <ele>43</ele>
        <time>2020-07-20T19:55:50Z</time>
      </trkpt>
      <trkpt lat="47.57986" lon="-0.35226">
        <ele>43</ele>
        <time>2020-07-20T19:55:53Z</time>
      </trkpt>
      <trkpt lat="47.57997" lon="-0.35226">
        <ele>44</ele>
        <time>2020-07-20T19:55:55Z</time>
      </trkpt>
      <trkpt lat="47.58015" lon="-0.35231">
        <ele>44</ele>
        <time>2020-07-20T19:55:58Z</time>
      </trkpt>
      <trkpt lat="47.58044" lon="-0.35249">
        <ele>43</ele>
        <time>2020-07-20T19:56:04Z</time>
      </trkpt>
      <trkpt lat="47.58073" lon="-0.35273">
        <ele>42</ele>
        <time>2020-07-20T19:56:09Z</time>
      </trkpt>
      <trkpt lat="47.58137" lon="-0.35343">
        <ele>40</ele>
        <time>2020-07-20T19:56:24Z</time>
      </trkpt>
      <trkpt lat="47.58176" lon="-0.35382">
        <ele>40</ele>
        <time>2020-07-20T19:56:32Z</time>
      </trkpt>
      <trkpt lat="47.58215" lon="-0.35415">
        <ele>40</ele>
        <time>2020-07-20T19:56:40Z</time>
      </trkpt>
      <trkpt lat="47.5825" lon="-0.35438">
        <ele>39</ele>
        <time>2020-07-20T19:56:47Z</time>
      </trkpt>
      <trkpt lat="47.58346" lon="-0.35484">
        <ele>40</ele>
        <time>2020-07-20T19:57:05Z</time>
      </trkpt>
      <trkpt lat="47.58364" lon="-0.3549">
        <ele>40</ele>
        <time>2020-07-20T19:57:08Z</time>
      </trkpt>
      <trkpt lat="47.58387" lon="-0.35487">
        <ele>40</ele>
        <time>2020-07-20T19:57:12Z</time>
      </trkpt>
      <trkpt lat="47.58402" lon="-0.35482">
        <ele>40</ele>
        <time>2020-07-20T19:57:15Z</time>
      </trkpt>
      <trkpt lat="47.58418" lon="-0.35481">
        <ele>40</ele>
        <time>2020-07-20T19:57:18Z</time>
      </trkpt>
      <trkpt lat="47.58431" lon="-0.35485">
        <ele>40</ele>
        <time>2020-07-20T19:57:20Z</time>
      </trkpt>
      <trkpt lat="47.58445" lon="-0.35497">
        <ele>40</ele>
        <time>2020-07-20T19:57:23Z</time>
      </trkpt>
      <trkpt lat="47.58489" lon="-0.35556">
        <ele>41</ele>
        <time>2020-07-20T19:57:34Z</time>
      </trkpt>
      <trkpt lat="47.58498" lon="-0.35564">
        <ele>41</ele>
        <time>2020-07-20T19:57:35Z</time>
      </trkpt>
      <trkpt lat="47.58511" lon="-0.35563">
        <ele>42</ele>
        <time>2020-07-20T19:57:38Z</time>
      </trkpt>
      <trkpt lat="47.58547" lon="-0.35533">
        <ele>41</ele>
        <time>2020-07-20T19:57:45Z</time>
      </trkpt>
      <trkpt lat="47.58577" lon="-0.35525">
        <ele>41</ele>
        <time>2020-07-20T19:57:50Z</time>
      </trkpt>
      <trkpt lat="47.58593" lon="-0.35528">
        <ele>41</ele>
        <time>2020-07-20T19:57:53Z</time>
      </trkpt>
      <trkpt lat="47.58733" lon="-0.35576">
        <ele>42</ele>
        <time>2020-07-20T19:58:19Z</time>
      </trkpt>
      <trkpt lat="47.58759" lon="-0.35582">
        <ele>42</ele>
        <time>2020-07-20T19:58:24Z</time>
      </trkpt>
      <trkpt lat="47.58777" lon="-0.35582">
        <ele>42</ele>
        <time>2020-07-20T19:58:27Z</time>
      </trkpt>
      <trkpt lat="47.58809" lon="-0.35589">
        <ele>43</ele>
        <time>2020-07-20T19:58:33Z</time>
      </trkpt>
      <trkpt lat="47.58868" lon="-0.35621">
        <ele>42</ele>
        <time>2020-07-20T19:58:44Z</time>
      </trkpt>
      <trkpt lat="47.58965" lon="-0.35649">
        <ele>40</ele>
        <time>2020-07-20T19:59:01Z</time>
      </trkpt>
      <trkpt lat="47.58986" lon="-0.35652">
        <ele>39</ele>
        <time>2020-07-20T19:59:05Z</time>
      </trkpt>
      <trkpt lat="47.58977" lon="-0.35675">
        <ele>40</ele>
        <time>2020-07-20T19:59:08Z</time>
      </trkpt>
      <trkpt lat="47.58952" lon="-0.35718">
        <ele>43</ele>
        <time>2020-07-20T19:59:15Z</time>
      </trkpt>
      <trkpt lat="47.58923" lon="-0.35754">
        <ele>46</ele>
        <time>2020-07-20T19:59:22Z</time>
      </trkpt>
      <trkpt lat="47.58903" lon="-0.35767">
        <ele>46</ele>
        <time>2020-07-20T19:59:26Z</time>
      </trkpt>
      <trkpt lat="47.58892" lon="-0.35771">
        <ele>46</ele>
        <time>2020-07-20T19:59:28Z</time>
      </trkpt>
      <trkpt lat="47.58838" lon="-0.35768">
        <ele>47</ele>
        <time>2020-07-20T19:59:37Z</time>
      </trkpt>
      <trkpt lat="47.58786" lon="-0.35786">
        <ele>47</ele>
        <time>2020-07-20T19:59:47Z</time>
      </trkpt>
      <trkpt lat="47.58765" lon="-0.35783">
        <ele>47</ele>
        <time>2020-07-20T19:59:51Z</time>
      </trkpt>
      <trkpt lat="47.58732" lon="-0.35773">
        <ele>47</ele>
        <time>2020-07-20T19:59:57Z</time>
      </trkpt>
      <trkpt lat="47.58701" lon="-0.35783">
        <ele>47</ele>
        <time>2020-07-20T20:00:02Z</time>
      </trkpt>
      <trkpt lat="47.58651" lon="-0.35814">
        <ele>46</ele>
        <time>2020-07-20T20:00:12Z</time>
      </trkpt>
      <trkpt lat="47.58624" lon="-0.35825">
        <ele>45</ele>
        <time>2020-07-20T20:00:17Z</time>
      </trkpt>
      <trkpt lat="47.58593" lon="-0.35863">
        <ele>42</ele>
        <time>2020-07-20T20:00:24Z</time>
      </trkpt>
      <trkpt lat="47.58529" lon="-0.35911">
        <ele>39</ele>
        <time>2020-07-20T20:00:37Z</time>
      </trkpt>
      <trkpt lat="47.58454" lon="-0.35985">
        <ele>34</ele>
        <time>2020-07-20T20:00:53Z</time>
      </trkpt>
      <trkpt lat="47.58411" lon="-0.36021">
        <ele>33</ele>
        <time>2020-07-20T20:01:02Z</time>
      </trkpt>
      <trkpt lat="47.58373" lon="-0.36046">
        <ele>30</ele>
        <time>2020-07-20T20:01:09Z</time>
      </trkpt>
      <trkpt lat="47.58341" lon="-0.3606">
        <ele>28</ele>
        <time>2020-07-20T20:01:15Z</time>
      </trkpt>
      <trkpt lat="47.58315" lon="-0.36064">
        <ele>28</ele>
        <time>2020-07-20T20:01:20Z</time>
      </trkpt>
      <trkpt lat="47.58289" lon="-0.36061">
        <ele>28</ele>
        <time>2020-07-20T20:01:24Z</time>
      </trkpt>
      <trkpt lat="47.5827" lon="-0.36062">
        <ele>27</ele>
        <time>2020-07-20T20:01:28Z</time>
      </trkpt>
      <trkpt lat="47.58223" lon="-0.36092">
        <ele>26</ele>
        <time>2020-07-20T20:01:37Z</time>
      </trkpt>
      <trkpt lat="47.58196" lon="-0.3612">
        <ele>24</ele>
        <time>2020-07-20T20:01:43Z</time>
      </trkpt>
      <trkpt lat="47.58171" lon="-0.3614">
        <ele>23</ele>
        <time>2020-07-20T20:01:48Z</time>
      </trkpt>
      <trkpt lat="47.58155" lon="-0.36149">
        <ele>22</ele>
        <time>2020-07-20T20:01:51Z</time>
      </trkpt>
      <trkpt lat="47.58132" lon="-0.36154">
        <ele>22</ele>
        <time>2020-07-20T20:01:55Z</time>
      </trkpt>
      <trkpt lat="47.58106" lon="-0.36155">
        <ele>23</ele>
        <time>2020-07-20T20:01:59Z</time>
      </trkpt>
      <trkpt lat="47.58034" lon="-0.36151">
        <ele>22</ele>
        <time>2020-07-20T20:02:12Z</time>
      </trkpt>
      <trkpt lat="47.5803" lon="-0.36147">
        <ele>22</ele>
        <time>2020-07-20T20:02:13Z</time>
      </trkpt>
      <trkpt lat="47.58029" lon="-0.36151">
        <ele>22</ele>
        <time>2020-07-20T20:02:14Z</time>
      </trkpt>
      <trkpt lat="47.58022" lon="-0.36154">
        <ele>22</ele>
        <time>2020-07-20T20:02:15Z</time>
      </trkpt>
      <trkpt lat="47.58019" lon="-0.3615">
        <ele>22</ele>
        <time>2020-07-20T20:02:16Z</time>
      </trkpt>
      <trkpt lat="47.57992" lon="-0.36182">
        <ele>21</ele>
        <time>2020-07-20T20:02:22Z</time>
      </trkpt>
      <trkpt lat="47.57927" lon="-0.36251">
        <ele>21</ele>
        <time>2020-07-20T20:02:36Z</time>
      </trkpt>
      <trkpt lat="47.5787" lon="-0.36289">
        <ele>22</ele>
        <time>2020-07-20T20:02:47Z</time>
      </trkpt>
      <trkpt lat="47.57832" lon="-0.36309">
        <ele>23</ele>
        <time>2020-07-20T20:02:54Z</time>
      </trkpt>
      <trkpt lat="47.57782" lon="-0.3632">
        <ele>25</ele>
        <time>2020-07-20T20:03:03Z</time>
      </trkpt>
      <trkpt lat="47.5772" lon="-0.3632">
        <ele>27</ele>
        <time>2020-07-20T20:03:14Z</time>
      </trkpt>
      <trkpt lat="47.57708" lon="-0.36279">
        <ele>27</ele>
        <time>2020-07-20T20:03:20Z</time>
      </trkpt>
      <trkpt lat="47.57699" lon="-0.36281">
        <ele>27</ele>
        <time>2020-07-20T20:03:21Z</time>
      </trkpt>
      <trkpt lat="47.57589" lon="-0.36362">
        <ele>27</ele>
        <time>2020-07-20T20:03:43Z</time>
      </trkpt>
      <trkpt lat="47.57609" lon="-0.36426">
        <ele>22</ele>
        <time>2020-07-20T20:03:52Z</time>
      </trkpt>
      <trkpt lat="47.57734" lon="-0.36746">
        <ele>20</ele>
        <time>2020-07-20T20:04:36Z</time>
      </trkpt>
      <trkpt lat="47.57767" lon="-0.36824">
        <ele>20</ele>
        <time>2020-07-20T20:04:47Z</time>
      </trkpt>
      <trkpt lat="47.5822" lon="-0.37705">
        <ele>21</ele>
        <time>2020-07-20T20:07:00Z</time>
      </trkpt>
      <trkpt lat="47.58085" lon="-0.37911">
        <ele>22</ele>
        <time>2020-07-20T20:07:34Z</time>
      </trkpt>
      <trkpt lat="47.58038" lon="-0.37974">
        <ele>23</ele>
        <time>2020-07-20T20:07:46Z</time>
      </trkpt>
      <trkpt lat="47.58" lon="-0.38031">
        <ele>23</ele>
        <time>2020-07-20T20:07:55Z</time>
      </trkpt>
      <trkpt lat="47.57976" lon="-0.38073">
        <ele>22</ele>
        <time>2020-07-20T20:08:02Z</time>
      </trkpt>
      <trkpt lat="47.57926" lon="-0.38178">
        <ele>21</ele>
        <time>2020-07-20T20:08:17Z</time>
      </trkpt>
      <trkpt lat="47.57899" lon="-0.38227">
        <ele>21</ele>
        <time>2020-07-20T20:08:25Z</time>
      </trkpt>
      <trkpt lat="47.57813" lon="-0.38345">
        <ele>19</ele>
        <time>2020-07-20T20:08:46Z</time>
      </trkpt>
      <trkpt lat="47.57789" lon="-0.38385">
        <ele>20</ele>
        <time>2020-07-20T20:08:52Z</time>
      </trkpt>
      <trkpt lat="47.57767" lon="-0.38433">
        <ele>20</ele>
        <time>2020-07-20T20:08:59Z</time>
      </trkpt>
      <trkpt lat="47.57751" lon="-0.38488">
        <ele>20</ele>
        <time>2020-07-20T20:09:06Z</time>
      </trkpt>
      <trkpt lat="47.5774" lon="-0.38569">
        <ele>20</ele>
        <time>2020-07-20T20:09:16Z</time>
      </trkpt>
      <trkpt lat="47.57736" lon="-0.38698">
        <ele>21</ele>
        <time>2020-07-20T20:09:32Z</time>
      </trkpt>
      <trkpt lat="47.57738" lon="-0.38836">
        <ele>21</ele>
        <time>2020-07-20T20:09:48Z</time>
      </trkpt>
      <trkpt lat="47.57731" lon="-0.38897">
        <ele>21</ele>
        <time>2020-07-20T20:09:56Z</time>
      </trkpt>
      <trkpt lat="47.57714" lon="-0.38958">
        <ele>20</ele>
        <time>2020-07-20T20:10:04Z</time>
      </trkpt>
      <trkpt lat="47.57649" lon="-0.39115">
        <ele>20</ele>
        <time>2020-07-20T20:10:26Z</time>
      </trkpt>
      <trkpt lat="47.57611" lon="-0.3923">
        <ele>20</ele>
        <time>2020-07-20T20:10:41Z</time>
      </trkpt>
      <trkpt lat="47.57577" lon="-0.39316">
        <ele>21</ele>
        <time>2020-07-20T20:10:53Z</time>
      </trkpt>
      <trkpt lat="47.57456" lon="-0.39661">
        <ele>27</ele>
        <time>2020-07-20T20:11:40Z</time>
      </trkpt>
      <trkpt lat="47.5744" lon="-0.39715">
        <ele>28</ele>
        <time>2020-07-20T20:11:47Z</time>
      </trkpt>
      <trkpt lat="47.57426" lon="-0.39783">
        <ele>29</ele>
        <time>2020-07-20T20:11:56Z</time>
      </trkpt>
      <trkpt lat="47.57346" lon="-0.40261">
        <ele>29</ele>
        <time>2020-07-20T20:12:55Z</time>
      </trkpt>
      <trkpt lat="47.57332" lon="-0.40315">
        <ele>30</ele>
        <time>2020-07-20T20:13:02Z</time>
      </trkpt>
      <trkpt lat="47.57302" lon="-0.40371">
        <ele>31</ele>
        <time>2020-07-20T20:13:10Z</time>
      </trkpt>
      <trkpt lat="47.56962" lon="-0.40905">
        <ele>36</ele>
        <time>2020-07-20T20:14:38Z</time>
      </trkpt>
      <trkpt lat="47.56944" lon="-0.40936">
        <ele>35</ele>
        <time>2020-07-20T20:14:43Z</time>
      </trkpt>
      <trkpt lat="47.56927" lon="-0.40984">
        <ele>35</ele>
        <time>2020-07-20T20:14:50Z</time>
      </trkpt>
      <trkpt lat="47.56916" lon="-0.4103">
        <ele>34</ele>
        <time>2020-07-20T20:14:56Z</time>
      </trkpt>
      <trkpt lat="47.56852" lon="-0.41349">
        <ele>23</ele>
        <time>2020-07-20T20:15:36Z</time>
      </trkpt>
      <trkpt lat="47.5684" lon="-0.41436">
        <ele>21</ele>
        <time>2020-07-20T20:15:46Z</time>
      </trkpt>
      <trkpt lat="47.56815" lon="-0.4172">
        <ele>22</ele>
        <time>2020-07-20T20:16:21Z</time>
      </trkpt>
      <trkpt lat="47.56817" lon="-0.41758">
        <ele>22</ele>
        <time>2020-07-20T20:16:25Z</time>
      </trkpt>
      <trkpt lat="47.5683" lon="-0.41829">
        <ele>22</ele>
        <time>2020-07-20T20:16:34Z</time>
      </trkpt>
      <trkpt lat="47.56834" lon="-0.41867">
        <ele>22</ele>
        <time>2020-07-20T20:16:39Z</time>
      </trkpt>
      <trkpt lat="47.56801" lon="-0.41884">
        <ele>21</ele>
        <time>2020-07-20T20:16:45Z</time>
      </trkpt>
      <trkpt lat="47.56788" lon="-0.41888">
        <ele>21</ele>
        <time>2020-07-20T20:16:47Z</time>
      </trkpt>
      <trkpt lat="47.56602" lon="-0.41917">
        <ele>17</ele>
        <time>2020-07-20T20:17:20Z</time>
      </trkpt>
      <trkpt lat="47.56421" lon="-0.41941">
        <ele>17</ele>
        <time>2020-07-20T20:17:53Z</time>
      </trkpt>
      <trkpt lat="47.56378" lon="-0.41949">
        <ele>17</ele>
        <time>2020-07-20T20:18:00Z</time>
      </trkpt>
      <trkpt lat="47.56331" lon="-0.41966">
        <ele>17</ele>
        <time>2020-07-20T20:18:09Z</time>
      </trkpt>
      <trkpt lat="47.56282" lon="-0.41997">
        <ele>18</ele>
        <time>2020-07-20T20:18:19Z</time>
      </trkpt>
      <trkpt lat="47.56074" lon="-0.4216">
        <ele>23</ele>
        <time>2020-07-20T20:19:00Z</time>
      </trkpt>
      <trkpt lat="47.56039" lon="-0.4218">
        <ele>24</ele>
        <time>2020-07-20T20:19:07Z</time>
      </trkpt>
      <trkpt lat="47.56064" lon="-0.42329">
        <ele>30</ele>
        <time>2020-07-20T20:19:26Z</time>
      </trkpt>
      <trkpt lat="47.56101" lon="-0.42493">
        <ele>34</ele>
        <time>2020-07-20T20:19:46Z</time>
      </trkpt>
      <trkpt lat="47.56104" lon="-0.42518">
        <ele>35</ele>
        <time>2020-07-20T20:19:49Z</time>
      </trkpt>
      <trkpt lat="47.56103" lon="-0.42531">
        <ele>36</ele>
        <time>2020-07-20T20:19:51Z</time>
      </trkpt>
      <trkpt lat="47.5609" lon="-0.42595">
        <ele>40</ele>
        <time>2020-07-20T20:19:59Z</time>
      </trkpt>
      <trkpt lat="47.56067" lon="-0.42756">
        <ele>44</ele>
        <time>2020-07-20T20:20:19Z</time>
      </trkpt>
      <trkpt lat="47.56024" lon="-0.42924">
        <ele>43</ele>
        <time>2020-07-20T20:20:40Z</time>
      </trkpt>
      <trkpt lat="47.55984" lon="-0.43051">
        <ele>42</ele>
        <time>2020-07-20T20:20:57Z</time>
      </trkpt>
      <trkpt lat="47.55972" lon="-0.43102">
        <ele>41</ele>
        <time>2020-07-20T20:21:04Z</time>
      </trkpt>
      <trkpt lat="47.55953" lon="-0.43238">
        <ele>39</ele>
        <time>2020-07-20T20:21:20Z</time>
      </trkpt>
      <trkpt lat="47.55935" lon="-0.4333">
        <ele>40</ele>
        <time>2020-07-20T20:21:32Z</time>
      </trkpt>
      <trkpt lat="47.55926" lon="-0.43363">
        <ele>41</ele>
        <time>2020-07-20T20:21:36Z</time>
      </trkpt>
      <trkpt lat="47.55928" lon="-0.43369">
        <ele>41</ele>
        <time>2020-07-20T20:21:37Z</time>
      </trkpt>
      <trkpt lat="47.55924" lon="-0.43374">
        <ele>41</ele>
        <time>2020-07-20T20:21:38Z</time>
      </trkpt>
      <trkpt lat="47.55873" lon="-0.43811">
        <ele>35</ele>
        <time>2020-07-20T20:22:31Z</time>
      </trkpt>
      <trkpt lat="47.55863" lon="-0.43872">
        <ele>34</ele>
        <time>2020-07-20T20:22:39Z</time>
      </trkpt>
      <trkpt lat="47.55847" lon="-0.43939">
        <ele>32</ele>
        <time>2020-07-20T20:22:47Z</time>
      </trkpt>
      <trkpt lat="47.55799" lon="-0.441">
        <ele>30</ele>
        <time>2020-07-20T20:23:08Z</time>
      </trkpt>
      <trkpt lat="47.55762" lon="-0.44196">
        <ele>31</ele>
        <time>2020-07-20T20:23:22Z</time>
      </trkpt>
      <trkpt lat="47.55726" lon="-0.44265">
        <ele>31</ele>
        <time>2020-07-20T20:23:32Z</time>
      </trkpt>
      <trkpt lat="47.55667" lon="-0.44351">
        <ele>32</ele>
        <time>2020-07-20T20:23:47Z</time>
      </trkpt>
      <trkpt lat="47.55627" lon="-0.44423">
        <ele>32</ele>
        <time>2020-07-20T20:23:58Z</time>
      </trkpt>
      <trkpt lat="47.55559" lon="-0.44578">
        <ele>31</ele>
        <time>2020-07-20T20:24:20Z</time>
      </trkpt>
      <trkpt lat="47.55513" lon="-0.4472">
        <ele>31</ele>
        <time>2020-07-20T20:24:39Z</time>
      </trkpt>
      <trkpt lat="47.55499" lon="-0.44794">
        <ele>32</ele>
        <time>2020-07-20T20:24:48Z</time>
      </trkpt>
      <trkpt lat="47.55499" lon="-0.44832">
        <ele>32</ele>
        <time>2020-07-20T20:24:53Z</time>
      </trkpt>
      <trkpt lat="47.55512" lon="-0.44975">
        <ele>33</ele>
        <time>2020-07-20T20:25:10Z</time>
      </trkpt>
      <trkpt lat="47.5551" lon="-0.45036">
        <ele>33</ele>
        <time>2020-07-20T20:25:17Z</time>
      </trkpt>
      <trkpt lat="47.55502" lon="-0.45082">
        <ele>34</ele>
        <time>2020-07-20T20:25:23Z</time>
      </trkpt>
      <trkpt lat="47.55494" lon="-0.45112">
        <ele>35</ele>
        <time>2020-07-20T20:25:27Z</time>
      </trkpt>
      <trkpt lat="47.55476" lon="-0.45156">
        <ele>36</ele>
        <time>2020-07-20T20:25:33Z</time>
      </trkpt>
      <trkpt lat="47.55382" lon="-0.45326">
        <ele>34</ele>
        <time>2020-07-20T20:26:00Z</time>
      </trkpt>
      <trkpt lat="47.55351" lon="-0.45395">
        <ele>36</ele>
        <time>2020-07-20T20:26:10Z</time>
      </trkpt>
      <trkpt lat="47.55343" lon="-0.45421">
        <ele>36</ele>
        <time>2020-07-20T20:26:13Z</time>
      </trkpt>
      <trkpt lat="47.5533" lon="-0.45484">
        <ele>36</ele>
        <time>2020-07-20T20:26:21Z</time>
      </trkpt>
      <trkpt lat="47.55316" lon="-0.45576">
        <ele>36</ele>
        <time>2020-07-20T20:26:32Z</time>
      </trkpt>
      <trkpt lat="47.55313" lon="-0.45658">
        <ele>35</ele>
        <time>2020-07-20T20:26:42Z</time>
      </trkpt>
      <trkpt lat="47.55318" lon="-0.4571">
        <ele>34</ele>
        <time>2020-07-20T20:26:48Z</time>
      </trkpt>
      <trkpt lat="47.55317" lon="-0.45751">
        <ele>33</ele>
        <time>2020-07-20T20:26:53Z</time>
      </trkpt>
      <trkpt lat="47.55305" lon="-0.45828">
        <ele>33</ele>
        <time>2020-07-20T20:27:03Z</time>
      </trkpt>
      <trkpt lat="47.55286" lon="-0.45882">
        <ele>31</ele>
        <time>2020-07-20T20:27:10Z</time>
      </trkpt>
      <trkpt lat="47.55236" lon="-0.45998">
        <ele>28</ele>
        <time>2020-07-20T20:27:27Z</time>
      </trkpt>
      <trkpt lat="47.55228" lon="-0.46024">
        <ele>28</ele>
        <time>2020-07-20T20:27:30Z</time>
      </trkpt>
      <trkpt lat="47.55218" lon="-0.46074">
        <ele>28</ele>
        <time>2020-07-20T20:27:36Z</time>
      </trkpt>
      <trkpt lat="47.5521" lon="-0.46189">
        <ele>29</ele>
        <time>2020-07-20T20:27:50Z</time>
      </trkpt>
      <trkpt lat="47.55199" lon="-0.46249">
        <ele>30</ele>
        <time>2020-07-20T20:27:58Z</time>
      </trkpt>
      <trkpt lat="47.55181" lon="-0.46312">
        <ele>31</ele>
        <time>2020-07-20T20:28:06Z</time>
      </trkpt>
      <trkpt lat="47.55114" lon="-0.4652">
        <ele>33</ele>
        <time>2020-07-20T20:28:34Z</time>
      </trkpt>
      <trkpt lat="47.55" lon="-0.46763">
        <ele>35</ele>
        <time>2020-07-20T20:29:09Z</time>
      </trkpt>
      <trkpt lat="47.54985" lon="-0.46808">
        <ele>34</ele>
        <time>2020-07-20T20:29:15Z</time>
      </trkpt>
      <trkpt lat="47.54971" lon="-0.46883">
        <ele>33</ele>
        <time>2020-07-20T20:29:25Z</time>
      </trkpt>
      <trkpt lat="47.54958" lon="-0.46983">
        <ele>32</ele>
        <time>2020-07-20T20:29:37Z</time>
      </trkpt>
      <trkpt lat="47.54945" lon="-0.47059">
        <ele>32</ele>
        <time>2020-07-20T20:29:46Z</time>
      </trkpt>
      <trkpt lat="47.54919" lon="-0.47173">
        <ele>36</ele>
        <time>2020-07-20T20:30:01Z</time>
      </trkpt>
      <trkpt lat="47.54893" lon="-0.47265">
        <ele>36</ele>
        <time>2020-07-20T20:30:13Z</time>
      </trkpt>
      <trkpt lat="47.54878" lon="-0.47305">
        <ele>36</ele>
        <time>2020-07-20T20:30:18Z</time>
      </trkpt>
      <trkpt lat="47.54839" lon="-0.47379">
        <ele>36</ele>
        <time>2020-07-20T20:30:29Z</time>
      </trkpt>
      <trkpt lat="47.54725" lon="-0.47541">
        <ele>38</ele>
        <time>2020-07-20T20:30:57Z</time>
      </trkpt>
      <trkpt lat="47.54695" lon="-0.47592">
        <ele>39</ele>
        <time>2020-07-20T20:31:06Z</time>
      </trkpt>
      <trkpt lat="47.54666" lon="-0.47664">
        <ele>41</ele>
        <time>2020-07-20T20:31:16Z</time>
      </trkpt>
      <trkpt lat="47.54571" lon="-0.47979">
        <ele>42</ele>
        <time>2020-07-20T20:31:57Z</time>
      </trkpt>
      <trkpt lat="47.5456" lon="-0.47989">
        <ele>42</ele>
        <time>2020-07-20T20:31:59Z</time>
      </trkpt>
      <trkpt lat="47.54528" lon="-0.48041">
        <ele>42</ele>
        <time>2020-07-20T20:32:08Z</time>
      </trkpt>
      <trkpt lat="47.54487" lon="-0.48077">
        <ele>43</ele>
        <time>2020-07-20T20:32:16Z</time>
      </trkpt>
      <trkpt lat="47.54461" lon="-0.48092">
        <ele>43</ele>
        <time>2020-07-20T20:32:21Z</time>
      </trkpt>
      <trkpt lat="47.54422" lon="-0.48107">
        <ele>42</ele>
        <time>2020-07-20T20:32:28Z</time>
      </trkpt>
      <trkpt lat="47.54355" lon="-0.4812">
        <ele>42</ele>
        <time>2020-07-20T20:32:40Z</time>
      </trkpt>
      <trkpt lat="47.54293" lon="-0.48135">
        <ele>42</ele>
        <time>2020-07-20T20:32:52Z</time>
      </trkpt>
      <trkpt lat="47.5426" lon="-0.48141">
        <ele>41</ele>
        <time>2020-07-20T20:32:58Z</time>
      </trkpt>
      <trkpt lat="47.54216" lon="-0.48142">
        <ele>41</ele>
        <time>2020-07-20T20:33:05Z</time>
      </trkpt>
      <trkpt lat="47.54174" lon="-0.48087">
        <ele>42</ele>
        <time>2020-07-20T20:33:15Z</time>
      </trkpt>
      <trkpt lat="47.54129" lon="-0.48037">
        <ele>42</ele>
        <time>2020-07-20T20:33:25Z</time>
      </trkpt>
      <trkpt lat="47.54055" lon="-0.47975">
        <ele>42</ele>
        <time>2020-07-20T20:33:41Z</time>
      </trkpt>
      <trkpt lat="47.54025" lon="-0.47957">
        <ele>43</ele>
        <time>2020-07-20T20:33:46Z</time>
      </trkpt>
      <trkpt lat="47.53838" lon="-0.4788">
        <ele>42</ele>
        <time>2020-07-20T20:34:21Z</time>
      </trkpt>
      <trkpt lat="47.53678" lon="-0.47806">
        <ele>41</ele>
        <time>2020-07-20T20:34:51Z</time>
      </trkpt>
      <trkpt lat="47.53636" lon="-0.47792">
        <ele>41</ele>
        <time>2020-07-20T20:34:58Z</time>
      </trkpt>
      <trkpt lat="47.5355" lon="-0.47774">
        <ele>40</ele>
        <time>2020-07-20T20:35:14Z</time>
      </trkpt>
      <trkpt lat="47.53389" lon="-0.47756">
        <ele>41</ele>
        <time>2020-07-20T20:35:42Z</time>
      </trkpt>
      <trkpt lat="47.53323" lon="-0.47757">
        <ele>40</ele>
        <time>2020-07-20T20:35:54Z</time>
      </trkpt>
      <trkpt lat="47.53196" lon="-0.47731">
        <ele>38</ele>
        <time>2020-07-20T20:36:17Z</time>
      </trkpt>
      <trkpt lat="47.53127" lon="-0.47708">
        <ele>38</ele>
        <time>2020-07-20T20:36:30Z</time>
      </trkpt>
      <trkpt lat="47.53006" lon="-0.47646">
        <ele>39</ele>
        <time>2020-07-20T20:36:52Z</time>
      </trkpt>
      <trkpt lat="47.52983" lon="-0.47688">
        <ele>39</ele>
        <time>2020-07-20T20:36:59Z</time>
      </trkpt>
      <trkpt lat="47.52967" lon="-0.47707">
        <ele>38</ele>
        <time>2020-07-20T20:37:03Z</time>
      </trkpt>
      <trkpt lat="47.52947" lon="-0.47723">
        <ele>38</ele>
        <time>2020-07-20T20:37:07Z</time>
      </trkpt>
      <trkpt lat="47.52862" lon="-0.47771">
        <ele>37</ele>
        <time>2020-07-20T20:37:23Z</time>
      </trkpt>
      <trkpt lat="47.52793" lon="-0.47802">
        <ele>36</ele>
        <time>2020-07-20T20:37:36Z</time>
      </trkpt>
      <trkpt lat="47.52755" lon="-0.47814">
        <ele>37</ele>
        <time>2020-07-20T20:37:43Z</time>
      </trkpt>
      <trkpt lat="47.52595" lon="-0.47856">
        <ele>36</ele>
        <time>2020-07-20T20:38:11Z</time>
      </trkpt>
      <trkpt lat="47.5252" lon="-0.4788">
        <ele>36</ele>
        <time>2020-07-20T20:38:25Z</time>
      </trkpt>
      <trkpt lat="47.52381" lon="-0.47945">
        <ele>37</ele>
        <time>2020-07-20T20:38:51Z</time>
      </trkpt>
      <trkpt lat="47.52337" lon="-0.47968">
        <ele>36</ele>
        <time>2020-07-20T20:38:59Z</time>
      </trkpt>
      <trkpt lat="47.52294" lon="-0.47999">
        <ele>36</ele>
        <time>2020-07-20T20:39:08Z</time>
      </trkpt>
      <trkpt lat="47.5224" lon="-0.48056">
        <ele>38</ele>
        <time>2020-07-20T20:39:20Z</time>
      </trkpt>
      <trkpt lat="47.52204" lon="-0.48089">
        <ele>38</ele>
        <time>2020-07-20T20:39:27Z</time>
      </trkpt>
      <trkpt lat="47.52181" lon="-0.48104">
        <ele>38</ele>
        <time>2020-07-20T20:39:32Z</time>
      </trkpt>
      <trkpt lat="47.52119" lon="-0.4813">
        <ele>37</ele>
        <time>2020-07-20T20:39:43Z</time>
      </trkpt>
      <trkpt lat="47.52043" lon="-0.48155">
        <ele>37</ele>
        <time>2020-07-20T20:39:57Z</time>
      </trkpt>
      <trkpt lat="47.52011" lon="-0.48163">
        <ele>36</ele>
        <time>2020-07-20T20:40:03Z</time>
      </trkpt>
      <trkpt lat="47.51915" lon="-0.48215">
        <ele>37</ele>
        <time>2020-07-20T20:40:21Z</time>
      </trkpt>
      <trkpt lat="47.51796" lon="-0.48251">
        <ele>37</ele>
        <time>2020-07-20T20:40:43Z</time>
      </trkpt>
      <trkpt lat="47.51781" lon="-0.48259">
        <ele>37</ele>
        <time>2020-07-20T20:40:45Z</time>
      </trkpt>
      <trkpt lat="47.51899" lon="-0.48564">
        <ele>36</ele>
        <time>2020-07-20T20:41:28Z</time>
      </trkpt>
      <trkpt lat="47.51928" lon="-0.4866">
        <ele>38</ele>
        <time>2020-07-20T20:41:40Z</time>
      </trkpt>
      <trkpt lat="47.51952" lon="-0.48752">
        <ele>38</ele>
        <time>2020-07-20T20:41:52Z</time>
      </trkpt>
      <trkpt lat="47.52" lon="-0.48902">
        <ele>35</ele>
        <time>2020-07-20T20:42:12Z</time>
      </trkpt>
      <trkpt lat="47.52029" lon="-0.49008">
        <ele>37</ele>
        <time>2020-07-20T20:42:26Z</time>
      </trkpt>
      <trkpt lat="47.5206" lon="-0.49068">
        <ele>38</ele>
        <time>2020-07-20T20:42:35Z</time>
      </trkpt>
      <trkpt lat="47.52065" lon="-0.49076">
        <ele>38</ele>
        <time>2020-07-20T20:42:36Z</time>
      </trkpt>
      <trkpt lat="47.52071" lon="-0.49079">
        <ele>38</ele>
        <time>2020-07-20T20:42:37Z</time>
      </trkpt>
      <trkpt lat="47.52075" lon="-0.49087">
        <ele>38</ele>
        <time>2020-07-20T20:42:38Z</time>
      </trkpt>
      <trkpt lat="47.52082" lon="-0.49125">
        <ele>37</ele>
        <time>2020-07-20T20:42:43Z</time>
      </trkpt>
      <trkpt lat="47.52106" lon="-0.49212">
        <ele>38</ele>
        <time>2020-07-20T20:42:55Z</time>
      </trkpt>
      <trkpt lat="47.52203" lon="-0.49594">
        <ele>35</ele>
        <time>2020-07-20T20:43:44Z</time>
      </trkpt>
      <trkpt lat="47.52216" lon="-0.49635">
        <ele>35</ele>
        <time>2020-07-20T20:43:49Z</time>
      </trkpt>
      <trkpt lat="47.52246" lon="-0.49705">
        <ele>35</ele>
        <time>2020-07-20T20:43:59Z</time>
      </trkpt>
      <trkpt lat="47.52347" lon="-0.49896">
        <ele>34</ele>
        <time>2020-07-20T20:44:28Z</time>
      </trkpt>
      <trkpt lat="47.52366" lon="-0.49936">
        <ele>34</ele>
        <time>2020-07-20T20:44:34Z</time>
      </trkpt>
      <trkpt lat="47.524" lon="-0.50021">
        <ele>34</ele>
        <time>2020-07-20T20:44:46Z</time>
      </trkpt>
      <trkpt lat="47.52452" lon="-0.50135">
        <ele>34</ele>
        <time>2020-07-20T20:45:02Z</time>
      </trkpt>
      <trkpt lat="47.52471" lon="-0.50172">
        <ele>35</ele>
        <time>2020-07-20T20:45:08Z</time>
      </trkpt>
      <trkpt lat="47.52509" lon="-0.50228">
        <ele>34</ele>
        <time>2020-07-20T20:45:18Z</time>
      </trkpt>
      <trkpt lat="47.52534" lon="-0.50275">
        <ele>34</ele>
        <time>2020-07-20T20:45:25Z</time>
      </trkpt>
      <trkpt lat="47.52551" lon="-0.50314">
        <ele>34</ele>
        <time>2020-07-20T20:45:30Z</time>
      </trkpt>
      <trkpt lat="47.52565" lon="-0.50354">
        <ele>34</ele>
        <time>2020-07-20T20:45:36Z</time>
      </trkpt>
      <trkpt lat="47.52577" lon="-0.50431">
        <ele>32</ele>
        <time>2020-07-20T20:45:45Z</time>
      </trkpt>
      <trkpt lat="47.52588" lon="-0.50462">
        <ele>32</ele>
        <time>2020-07-20T20:45:49Z</time>
      </trkpt>
      <trkpt lat="47.52603" lon="-0.50491">
        <ele>32</ele>
        <time>2020-07-20T20:45:54Z</time>
      </trkpt>
      <trkpt lat="47.52629" lon="-0.50523">
        <ele>32</ele>
        <time>2020-07-20T20:46:00Z</time>
      </trkpt>
      <trkpt lat="47.52654" lon="-0.50543">
        <ele>31</ele>
        <time>2020-07-20T20:46:05Z</time>
      </trkpt>
      <trkpt lat="47.52638" lon="-0.50569">
        <ele>31</ele>
        <time>2020-07-20T20:46:09Z</time>
      </trkpt>
      <trkpt lat="47.52609" lon="-0.50594">
        <ele>31</ele>
        <time>2020-07-20T20:46:15Z</time>
      </trkpt>
      <trkpt lat="47.52601" lon="-0.50595">
        <ele>31</ele>
        <time>2020-07-20T20:46:16Z</time>
      </trkpt>
      <trkpt lat="47.52582" lon="-0.50617">
        <ele>31</ele>
        <time>2020-07-20T20:46:21Z</time>
      </trkpt>
      <trkpt lat="47.52384" lon="-0.50873">
        <ele>25</ele>
        <time>2020-07-20T20:47:08Z</time>
      </trkpt>
      <trkpt lat="47.52307" lon="-0.50952">
        <ele>26</ele>
        <time>2020-07-20T20:47:24Z</time>
      </trkpt>
      <trkpt lat="47.52263" lon="-0.5099">
        <ele>26</ele>
        <time>2020-07-20T20:47:33Z</time>
      </trkpt>
      <trkpt lat="47.52235" lon="-0.51009">
        <ele>26</ele>
        <time>2020-07-20T20:47:39Z</time>
      </trkpt>
      <trkpt lat="47.52204" lon="-0.51024">
        <ele>27</ele>
        <time>2020-07-20T20:47:45Z</time>
      </trkpt>
      <trkpt lat="47.52156" lon="-0.51036">
        <ele>27</ele>
        <time>2020-07-20T20:47:53Z</time>
      </trkpt>
      <trkpt lat="47.51827" lon="-0.5109">
        <ele>26</ele>
        <time>2020-07-20T20:48:52Z</time>
      </trkpt>
      <trkpt lat="47.51778" lon="-0.51103">
        <ele>26</ele>
        <time>2020-07-20T20:49:01Z</time>
      </trkpt>
      <trkpt lat="47.51743" lon="-0.51119">
        <ele>26</ele>
        <time>2020-07-20T20:49:07Z</time>
      </trkpt>
      <trkpt lat="47.5122" lon="-0.51403">
        <ele>22</ele>
        <time>2020-07-20T20:50:47Z</time>
      </trkpt>
      <trkpt lat="47.51198" lon="-0.51417">
        <ele>21</ele>
        <time>2020-07-20T20:50:51Z</time>
      </trkpt>
      <trkpt lat="47.51169" lon="-0.51443">
        <ele>21</ele>
        <time>2020-07-20T20:50:57Z</time>
      </trkpt>
      <trkpt lat="47.51171" lon="-0.5146">
        <ele>21</ele>
        <time>2020-07-20T20:50:59Z</time>
      </trkpt>
      <trkpt lat="47.51165" lon="-0.51472">
        <ele>20</ele>
        <time>2020-07-20T20:51:01Z</time>
      </trkpt>
      <trkpt lat="47.51157" lon="-0.51474">
        <ele>20</ele>
        <time>2020-07-20T20:51:02Z</time>
      </trkpt>
      <trkpt lat="47.51148" lon="-0.51468">
        <ele>20</ele>
        <time>2020-07-20T20:51:04Z</time>
      </trkpt>
      <trkpt lat="47.51056" lon="-0.51493">
        <ele>18</ele>
        <time>2020-07-20T20:51:21Z</time>
      </trkpt>
      <trkpt lat="47.50766" lon="-0.51648">
        <ele>27</ele>
        <time>2020-07-20T20:52:15Z</time>
      </trkpt>
      <trkpt lat="47.5069" lon="-0.51679">
        <ele>28</ele>
        <time>2020-07-20T20:52:29Z</time>
      </trkpt>
      <trkpt lat="47.50627" lon="-0.51728">
        <ele>28</ele>
        <time>2020-07-20T20:52:42Z</time>
      </trkpt>
      <trkpt lat="47.50485" lon="-0.5187">
        <ele>27</ele>
        <time>2020-07-20T20:53:13Z</time>
      </trkpt>
      <trkpt lat="47.50372" lon="-0.51998">
        <ele>28</ele>
        <time>2020-07-20T20:53:38Z</time>
      </trkpt>
      <trkpt lat="47.50311" lon="-0.5206">
        <ele>28</ele>
        <time>2020-07-20T20:53:51Z</time>
      </trkpt>
      <trkpt lat="47.50192" lon="-0.52168">
        <ele>29</ele>
        <time>2020-07-20T20:54:16Z</time>
      </trkpt>
      <trkpt lat="47.50122" lon="-0.52224">
        <ele>27</ele>
        <time>2020-07-20T20:54:30Z</time>
      </trkpt>
      <trkpt lat="47.50061" lon="-0.52264">
        <ele>27</ele>
        <time>2020-07-20T20:54:42Z</time>
      </trkpt>
      <trkpt lat="47.49973" lon="-0.52314">
        <ele>28</ele>
        <time>2020-07-20T20:54:59Z</time>
      </trkpt>
      <trkpt lat="47.49895" lon="-0.52385">
        <ele>26</ele>
        <time>2020-07-20T20:55:15Z</time>
      </trkpt>
      <trkpt lat="47.49773" lon="-0.52503">
        <ele>26</ele>
        <time>2020-07-20T20:55:41Z</time>
      </trkpt>
      <trkpt lat="47.49747" lon="-0.52535">
        <ele>26</ele>
        <time>2020-07-20T20:55:47Z</time>
      </trkpt>
      <trkpt lat="47.49721" lon="-0.5258">
        <ele>24</ele>
        <time>2020-07-20T20:55:54Z</time>
      </trkpt>
      <trkpt lat="47.49695" lon="-0.52619">
        <ele>23</ele>
        <time>2020-07-20T20:56:01Z</time>
      </trkpt>
      <trkpt lat="47.49682" lon="-0.52632">
        <ele>23</ele>
        <time>2020-07-20T20:56:03Z</time>
      </trkpt>
      <trkpt lat="47.49661" lon="-0.52646">
        <ele>24</ele>
        <time>2020-07-20T20:56:08Z</time>
      </trkpt>
      <trkpt lat="47.49635" lon="-0.52656">
        <ele>25</ele>
        <time>2020-07-20T20:56:12Z</time>
      </trkpt>
      <trkpt lat="47.49577" lon="-0.52666">
        <ele>28</ele>
        <time>2020-07-20T20:56:23Z</time>
      </trkpt>
      <trkpt lat="47.49543" lon="-0.5268">
        <ele>30</ele>
        <time>2020-07-20T20:56:29Z</time>
      </trkpt>
      <trkpt lat="47.49491" lon="-0.52718">
        <ele>33</ele>
        <time>2020-07-20T20:56:39Z</time>
      </trkpt>
      <trkpt lat="47.49356" lon="-0.52825">
        <ele>34</ele>
        <time>2020-07-20T20:57:07Z</time>
      </trkpt>
      <trkpt lat="47.49264" lon="-0.52882">
        <ele>37</ele>
        <time>2020-07-20T20:57:24Z</time>
      </trkpt>
      <trkpt lat="47.49182" lon="-0.52928">
        <ele>38</ele>
        <time>2020-07-20T20:57:40Z</time>
      </trkpt>
      <trkpt lat="47.49148" lon="-0.53003">
        <ele>42</ele>
        <time>2020-07-20T20:57:51Z</time>
      </trkpt>
      <trkpt lat="47.49134" lon="-0.5305">
        <ele>41</ele>
        <time>2020-07-20T20:57:57Z</time>
      </trkpt>
      <trkpt lat="47.49133" lon="-0.53079">
        <ele>40</ele>
        <time>2020-07-20T20:58:00Z</time>
      </trkpt>
      <trkpt lat="47.49127" lon="-0.53112">
        <ele>39</ele>
        <time>2020-07-20T20:58:05Z</time>
      </trkpt>
      <trkpt lat="47.49117" lon="-0.5314">
        <ele>38</ele>
        <time>2020-07-20T20:58:08Z</time>
      </trkpt>
      <trkpt lat="47.49103" lon="-0.53168">
        <ele>38</ele>
        <time>2020-07-20T20:58:13Z</time>
      </trkpt>
      <trkpt lat="47.49007" lon="-0.53331">
        <ele>32</ele>
        <time>2020-07-20T20:58:39Z</time>
      </trkpt>
      <trkpt lat="47.48953" lon="-0.53416">
        <ele>30</ele>
        <time>2020-07-20T20:58:53Z</time>
      </trkpt>
      <trkpt lat="47.48955" lon="-0.53431">
        <ele>30</ele>
        <time>2020-07-20T20:58:54Z</time>
      </trkpt>
      <trkpt lat="47.48952" lon="-0.53439">
        <ele>29</ele>
        <time>2020-07-20T20:58:56Z</time>
      </trkpt>
      <trkpt lat="47.48948" lon="-0.53443">
        <ele>29</ele>
        <time>2020-07-20T20:58:56Z</time>
      </trkpt>
      <trkpt lat="47.48942" lon="-0.53443">
        <ele>30</ele>
        <time>2020-07-20T20:58:57Z</time>
      </trkpt>
      <trkpt lat="47.48937" lon="-0.53439">
        <ele>30</ele>
        <time>2020-07-20T20:58:58Z</time>
      </trkpt>
      <trkpt lat="47.48912" lon="-0.53487">
        <ele>29</ele>
        <time>2020-07-20T20:59:06Z</time>
      </trkpt>
      <trkpt lat="47.48828" lon="-0.53624">
        <ele>28</ele>
        <time>2020-07-20T20:59:28Z</time>
      </trkpt>
      <trkpt lat="47.48831" lon="-0.53634">
        <ele>28</ele>
        <time>2020-07-20T20:59:29Z</time>
      </trkpt>
      <trkpt lat="47.48828" lon="-0.53643">
        <ele>28</ele>
        <time>2020-07-20T20:59:31Z</time>
      </trkpt>
      <trkpt lat="47.4882" lon="-0.53645">
        <ele>28</ele>
        <time>2020-07-20T20:59:32Z</time>
      </trkpt>
      <trkpt lat="47.48817" lon="-0.53642">
        <ele>28</ele>
        <time>2020-07-20T20:59:33Z</time>
      </trkpt>
      <trkpt lat="47.48786" lon="-0.53702">
        <ele>26</ele>
        <time>2020-07-20T20:59:42Z</time>
      </trkpt>
      <trkpt lat="47.48749" lon="-0.53785">
        <ele>22</ele>
        <time>2020-07-20T20:59:54Z</time>
      </trkpt>
      <trkpt lat="47.48747" lon="-0.53804">
        <ele>21</ele>
        <time>2020-07-20T20:59:56Z</time>
      </trkpt>
      <trkpt lat="47.48716" lon="-0.5387">
        <ele>20</ele>
        <time>2020-07-20T21:00:06Z</time>
      </trkpt>
      <trkpt lat="47.48694" lon="-0.53937">
        <ele>20</ele>
        <time>2020-07-20T21:00:15Z</time>
      </trkpt>
      <trkpt lat="47.48659" lon="-0.54001">
        <ele>20</ele>
        <time>2020-07-20T21:00:24Z</time>
      </trkpt>
      <trkpt lat="47.48637" lon="-0.54027">
        <ele>21</ele>
        <time>2020-07-20T21:00:30Z</time>
      </trkpt>
      <trkpt lat="47.486" lon="-0.54061">
        <ele>21</ele>
        <time>2020-07-20T21:00:37Z</time>
      </trkpt>
      <trkpt lat="47.48525" lon="-0.5412">
        <ele>21</ele>
        <time>2020-07-20T21:00:52Z</time>
      </trkpt>
      <trkpt lat="47.48464" lon="-0.54146">
        <ele>20</ele>
        <time>2020-07-20T21:01:04Z</time>
      </trkpt>
      <trkpt lat="47.48387" lon="-0.54168">
        <ele>21</ele>
        <time>2020-07-20T21:01:18Z</time>
      </trkpt>
      <trkpt lat="47.48333" lon="-0.54194">
        <ele>22</ele>
        <time>2020-07-20T21:01:28Z</time>
      </trkpt>
      <trkpt lat="47.48243" lon="-0.54242">
        <ele>21</ele>
        <time>2020-07-20T21:01:45Z</time>
      </trkpt>
      <trkpt lat="47.48232" lon="-0.54253">
        <ele>21</ele>
        <time>2020-07-20T21:01:47Z</time>
      </trkpt>
      <trkpt lat="47.48223" lon="-0.54268">
        <ele>22</ele>
        <time>2020-07-20T21:01:50Z</time>
      </trkpt>
      <trkpt lat="47.48195" lon="-0.54301">
        <ele>22</ele>
        <time>2020-07-20T21:01:56Z</time>
      </trkpt>
      <trkpt lat="47.48196" lon="-0.5431">
        <ele>22</ele>
        <time>2020-07-20T21:01:57Z</time>
      </trkpt>
      <trkpt lat="47.48193" lon="-0.5433">
        <ele>22</ele>
        <time>2020-07-20T21:01:59Z</time>
      </trkpt>
      <trkpt lat="47.48185" lon="-0.54356">
        <ele>22</ele>
        <time>2020-07-20T21:02:03Z</time>
      </trkpt>
      <trkpt lat="47.48166" lon="-0.54381">
        <ele>23</ele>
        <time>2020-07-20T21:02:07Z</time>
      </trkpt>
      <trkpt lat="47.47932" lon="-0.54604">
        <ele>21</ele>
        <time>2020-07-20T21:02:57Z</time>
      </trkpt>
      <trkpt lat="47.47975" lon="-0.54702">
        <ele>20</ele>
        <time>2020-07-20T21:03:11Z</time>
      </trkpt>
      <trkpt lat="47.48019" lon="-0.54813">
        <ele>21</ele>
        <time>2020-07-20T21:03:26Z</time>
      </trkpt>
      <trkpt lat="47.47924" lon="-0.54897">
        <ele>21</ele>
        <time>2020-07-20T21:03:46Z</time>
      </trkpt>
      <trkpt lat="47.47964" lon="-0.54997">
        <ele>21</ele>
        <time>2020-07-20T21:04:00Z</time>
      </trkpt>
      <trkpt lat="47.47993" lon="-0.55079">
        <ele>26</ele>
        <time>2020-07-20T21:04:11Z</time>
      </trkpt>
      <trkpt lat="47.48036" lon="-0.55225">
        <ele>20</ele>
        <time>2020-07-20T21:04:30Z</time>
      </trkpt>
      <trkpt lat="47.48085" lon="-0.55423">
        <ele>21</ele>
        <time>2020-07-20T21:04:56Z</time>
      </trkpt>
      <trkpt lat="47.48096" lon="-0.5545">
        <ele>21</ele>
        <time>2020-07-20T21:05:00Z</time>
      </trkpt>
      <trkpt lat="47.48049" lon="-0.55483">
        <ele>22</ele>
        <time>2020-07-20T21:05:09Z</time>
      </trkpt>
      <trkpt lat="47.48039" lon="-0.55483">
        <ele>22</ele>
        <time>2020-07-20T21:05:11Z</time>
      </trkpt>
      <trkpt lat="47.48025" lon="-0.55492">
        <ele>23</ele>
        <time>2020-07-20T21:05:13Z</time>
      </trkpt>
      <trkpt lat="47.47963" lon="-0.55543">
        <ele>25</ele>
        <time>2020-07-20T21:05:26Z</time>
      </trkpt>
      <trkpt lat="47.47955" lon="-0.55549">
        <ele>25</ele>
        <time>2020-07-20T21:05:28Z</time>
      </trkpt>
      <trkpt lat="47.47945" lon="-0.55552">
        <ele>25</ele>
        <time>2020-07-20T21:05:29Z</time>
      </trkpt>
      <trkpt lat="47.47928" lon="-0.55565">
        <ele>26</ele>
        <time>2020-07-20T21:05:33Z</time>
      </trkpt>
      <trkpt lat="47.47661" lon="-0.55795">
        <ele>25</ele>
        <time>2020-07-20T21:06:28Z</time>
      </trkpt>
      <trkpt lat="47.47511" lon="-0.55921">
        <ele>23</ele>
        <time>2020-07-20T21:06:58Z</time>
      </trkpt>
      <trkpt lat="47.47339" lon="-0.56181">
        <ele>24</ele>
        <time>2020-07-20T21:07:42Z</time>
      </trkpt>
      <trkpt lat="47.47318" lon="-0.56208">
        <ele>23</ele>
        <time>2020-07-20T21:07:47Z</time>
      </trkpt>
      <trkpt lat="47.47303" lon="-0.56216">
        <ele>23</ele>
        <time>2020-07-20T21:07:50Z</time>
      </trkpt>
      <trkpt lat="47.47286" lon="-0.56238">
        <ele>22</ele>
        <time>2020-07-20T21:07:54Z</time>
      </trkpt>
      <trkpt lat="47.47181" lon="-0.56401">
        <ele>21</ele>
        <time>2020-07-20T21:08:21Z</time>
      </trkpt>
    </trkseg>
  </trk>
</gpx>